<?xml version="1.0" encoding="UTF-8" standalone="no" ?>
<gpx xmlns="http://www.topografix.com/GPX/1/1" xmlns:xsi="http://www.w3.org/2001/XMLSchema-instance" xsi:schemaLocation="http://www.topografix.com/GPX/1/1 http://www.topografix.com/GPX/1/1/gpx.xsd" version="1.1" creator="VisuGPX - https://www.visugpx.com">
  <metadata>
    <name>Randonnée GR5</name>
    <desc><![CDATA[Etape de St Dalmas de Valdeblore à Utelle]]></desc>
  </metadata>
  <wpt lat="44.06565" lon="7.20388">
    <ele>1300</ele>
  </wpt>
  <trk>
    <name><![CDATA[Randonnée GR5_1]]></name>
    <trkseg>
      <trkpt lat="44.06565" lon="7.20388">
        <ele>1300</ele>
        <time>2013-08-31T05:49:06Z</time>
      </trkpt>
      <trkpt lat="44.0657" lon="7.20398">
        <ele>1305</ele>
        <time>2013-08-31T05:54:35Z</time>
      </trkpt>
      <trkpt lat="44.06578" lon="7.20402">
        <ele>1296</ele>
        <time>2013-08-31T05:54:45Z</time>
      </trkpt>
      <trkpt lat="44.06577" lon="7.20417">
        <ele>1312</ele>
        <time>2013-08-31T05:54:55Z</time>
      </trkpt>
      <trkpt lat="44.06567" lon="7.20419">
        <ele>1325</ele>
        <time>2013-08-31T05:55:03Z</time>
      </trkpt>
      <trkpt lat="44.06561" lon="7.20429">
        <ele>1349</ele>
        <time>2013-08-31T05:55:15Z</time>
      </trkpt>
      <trkpt lat="44.06569" lon="7.20422">
        <ele>1340</ele>
        <time>2013-08-31T05:55:27Z</time>
      </trkpt>
      <trkpt lat="44.06578" lon="7.20417">
        <ele>1324</ele>
        <time>2013-08-31T05:55:48Z</time>
      </trkpt>
      <trkpt lat="44.06581" lon="7.20401">
        <ele>1302</ele>
        <time>2013-08-31T05:55:57Z</time>
      </trkpt>
      <trkpt lat="44.06583" lon="7.20414">
        <ele>1312</ele>
        <time>2013-08-31T05:56:21Z</time>
      </trkpt>
      <trkpt lat="44.06592" lon="7.20413">
        <ele>1312</ele>
        <time>2013-08-31T05:56:31Z</time>
      </trkpt>
      <trkpt lat="44.06601" lon="7.20417">
        <ele>1303</ele>
        <time>2013-08-31T05:56:40Z</time>
      </trkpt>
      <trkpt lat="44.06609" lon="7.20423">
        <ele>1303</ele>
        <time>2013-08-31T05:56:49Z</time>
      </trkpt>
      <trkpt lat="44.0662" lon="7.20417">
        <ele>1297</ele>
        <time>2013-08-31T05:57:02Z</time>
      </trkpt>
      <trkpt lat="44.06625" lon="7.20408">
        <ele>1288</ele>
        <time>2013-08-31T05:57:06Z</time>
      </trkpt>
      <trkpt lat="44.0663" lon="7.20396">
        <ele>1288</ele>
        <time>2013-08-31T05:57:17Z</time>
      </trkpt>
      <trkpt lat="44.06631" lon="7.20382">
        <ele>1295</ele>
        <time>2013-08-31T05:57:38Z</time>
      </trkpt>
      <trkpt lat="44.06628" lon="7.20369">
        <ele>1295</ele>
        <time>2013-08-31T05:57:48Z</time>
      </trkpt>
      <trkpt lat="44.06622" lon="7.20359">
        <ele>1307</ele>
        <time>2013-08-31T05:58:09Z</time>
      </trkpt>
      <trkpt lat="44.06612" lon="7.20355">
        <ele>1301</ele>
        <time>2013-08-31T05:58:15Z</time>
      </trkpt>
      <trkpt lat="44.06601" lon="7.2035">
        <ele>1301</ele>
        <time>2013-08-31T05:58:22Z</time>
      </trkpt>
      <trkpt lat="44.06592" lon="7.20341">
        <ele>1301</ele>
        <time>2013-08-31T05:58:31Z</time>
      </trkpt>
      <trkpt lat="44.06583" lon="7.20338">
        <ele>1301</ele>
        <time>2013-08-31T05:58:37Z</time>
      </trkpt>
      <trkpt lat="44.06575" lon="7.20327">
        <ele>1295</ele>
        <time>2013-08-31T05:58:46Z</time>
      </trkpt>
      <trkpt lat="44.06571" lon="7.20314">
        <ele>1310</ele>
        <time>2013-08-31T05:58:57Z</time>
      </trkpt>
      <trkpt lat="44.06563" lon="7.20307">
        <ele>1310</ele>
        <time>2013-08-31T05:59:04Z</time>
      </trkpt>
      <trkpt lat="44.06556" lon="7.20314">
        <ele>1300</ele>
        <time>2013-08-31T05:59:14Z</time>
      </trkpt>
      <trkpt lat="44.06548" lon="7.20323">
        <ele>1300</ele>
        <time>2013-08-31T05:59:58Z</time>
      </trkpt>
      <trkpt lat="44.0654" lon="7.20329">
        <ele>1300</ele>
        <time>2013-08-31T06:00:07Z</time>
      </trkpt>
      <trkpt lat="44.06532" lon="7.20334">
        <ele>1300</ele>
        <time>2013-08-31T06:00:17Z</time>
      </trkpt>
      <trkpt lat="44.06526" lon="7.20345">
        <ele>1300</ele>
        <time>2013-08-31T06:00:26Z</time>
      </trkpt>
      <trkpt lat="44.06525" lon="7.20358">
        <ele>1300</ele>
        <time>2013-08-31T06:00:36Z</time>
      </trkpt>
      <trkpt lat="44.06516" lon="7.20362">
        <ele>1300</ele>
        <time>2013-08-31T06:00:44Z</time>
      </trkpt>
      <trkpt lat="44.06508" lon="7.20365">
        <ele>1300</ele>
        <time>2013-08-31T06:00:51Z</time>
      </trkpt>
      <trkpt lat="44.06499" lon="7.20365">
        <ele>1312</ele>
        <time>2013-08-31T06:01:00Z</time>
      </trkpt>
      <trkpt lat="44.06489" lon="7.20368">
        <ele>1303</ele>
        <time>2013-08-31T06:01:23Z</time>
      </trkpt>
      <trkpt lat="44.0648" lon="7.20363">
        <ele>1303</ele>
        <time>2013-08-31T06:01:30Z</time>
      </trkpt>
      <trkpt lat="44.06471" lon="7.20367">
        <ele>1314</ele>
        <time>2013-08-31T06:01:43Z</time>
      </trkpt>
      <trkpt lat="44.06462" lon="7.20364">
        <ele>1314</ele>
        <time>2013-08-31T06:01:54Z</time>
      </trkpt>
      <trkpt lat="44.06454" lon="7.20357">
        <ele>1314</ele>
        <time>2013-08-31T06:02:08Z</time>
      </trkpt>
      <trkpt lat="44.06445" lon="7.20355">
        <ele>1314</ele>
        <time>2013-08-31T06:02:22Z</time>
      </trkpt>
      <trkpt lat="44.06436" lon="7.20358">
        <ele>1322</ele>
        <time>2013-08-31T06:02:35Z</time>
      </trkpt>
      <trkpt lat="44.06427" lon="7.2036">
        <ele>1328</ele>
        <time>2013-08-31T06:02:49Z</time>
      </trkpt>
      <trkpt lat="44.06421" lon="7.20371">
        <ele>1328</ele>
        <time>2013-08-31T06:03:05Z</time>
      </trkpt>
      <trkpt lat="44.06418" lon="7.20382">
        <ele>1343</ele>
        <time>2013-08-31T06:03:19Z</time>
      </trkpt>
      <trkpt lat="44.06415" lon="7.20371">
        <ele>1336</ele>
        <time>2013-08-31T06:03:40Z</time>
      </trkpt>
      <trkpt lat="44.06407" lon="7.20364">
        <ele>1331</ele>
        <time>2013-08-31T06:03:49Z</time>
      </trkpt>
      <trkpt lat="44.06398" lon="7.20361">
        <ele>1331</ele>
        <time>2013-08-31T06:04:01Z</time>
      </trkpt>
      <trkpt lat="44.06389" lon="7.20359">
        <ele>1323</ele>
        <time>2013-08-31T06:04:18Z</time>
      </trkpt>
      <trkpt lat="44.06381" lon="7.20364">
        <ele>1323</ele>
        <time>2013-08-31T06:04:39Z</time>
      </trkpt>
      <trkpt lat="44.06372" lon="7.20367">
        <ele>1323</ele>
        <time>2013-08-31T06:04:57Z</time>
      </trkpt>
      <trkpt lat="44.06364" lon="7.20374">
        <ele>1330</ele>
        <time>2013-08-31T06:05:14Z</time>
      </trkpt>
      <trkpt lat="44.06355" lon="7.20373">
        <ele>1342</ele>
        <time>2013-08-31T06:05:38Z</time>
      </trkpt>
      <trkpt lat="44.06346" lon="7.20377">
        <ele>1342</ele>
        <time>2013-08-31T06:05:54Z</time>
      </trkpt>
      <trkpt lat="44.06339" lon="7.20383">
        <ele>1342</ele>
        <time>2013-08-31T06:06:14Z</time>
      </trkpt>
      <trkpt lat="44.06329" lon="7.20383">
        <ele>1352</ele>
        <time>2013-08-31T06:06:31Z</time>
      </trkpt>
      <trkpt lat="44.06321" lon="7.20389">
        <ele>1352</ele>
        <time>2013-08-31T06:06:50Z</time>
      </trkpt>
      <trkpt lat="44.06314" lon="7.20396">
        <ele>1345</ele>
        <time>2013-08-31T06:07:07Z</time>
      </trkpt>
      <trkpt lat="44.06305" lon="7.20396">
        <ele>1345</ele>
        <time>2013-08-31T06:07:27Z</time>
      </trkpt>
      <trkpt lat="44.06296" lon="7.20399">
        <ele>1345</ele>
        <time>2013-08-31T06:07:43Z</time>
      </trkpt>
      <trkpt lat="44.06287" lon="7.20405">
        <ele>1351</ele>
        <time>2013-08-31T06:08:02Z</time>
      </trkpt>
      <trkpt lat="44.06279" lon="7.20409">
        <ele>1351</ele>
        <time>2013-08-31T06:08:17Z</time>
      </trkpt>
      <trkpt lat="44.06271" lon="7.20416">
        <ele>1357</ele>
        <time>2013-08-31T06:08:33Z</time>
      </trkpt>
      <trkpt lat="44.06264" lon="7.20423">
        <ele>1357</ele>
        <time>2013-08-31T06:08:47Z</time>
      </trkpt>
      <trkpt lat="44.06256" lon="7.20426">
        <ele>1363</ele>
        <time>2013-08-31T06:09:04Z</time>
      </trkpt>
      <trkpt lat="44.0625" lon="7.20437">
        <ele>1363</ele>
        <time>2013-08-31T06:09:20Z</time>
      </trkpt>
      <trkpt lat="44.06241" lon="7.20437">
        <ele>1368</ele>
        <time>2013-08-31T06:09:36Z</time>
      </trkpt>
      <trkpt lat="44.06232" lon="7.20435">
        <ele>1377</ele>
        <time>2013-08-31T06:09:53Z</time>
      </trkpt>
      <trkpt lat="44.06223" lon="7.20436">
        <ele>1384</ele>
        <time>2013-08-31T06:10:13Z</time>
      </trkpt>
      <trkpt lat="44.06215" lon="7.20442">
        <ele>1384</ele>
        <time>2013-08-31T06:10:27Z</time>
      </trkpt>
      <trkpt lat="44.06212" lon="7.20454">
        <ele>1379</ele>
        <time>2013-08-31T06:10:37Z</time>
      </trkpt>
      <trkpt lat="44.06207" lon="7.20464">
        <ele>1385</ele>
        <time>2013-08-31T06:10:54Z</time>
      </trkpt>
      <trkpt lat="44.06202" lon="7.20475">
        <ele>1393</ele>
        <time>2013-08-31T06:11:29Z</time>
      </trkpt>
      <trkpt lat="44.06201" lon="7.20488">
        <ele>1387</ele>
        <time>2013-08-31T06:11:39Z</time>
      </trkpt>
      <trkpt lat="44.06194" lon="7.20495">
        <ele>1387</ele>
        <time>2013-08-31T06:11:55Z</time>
      </trkpt>
      <trkpt lat="44.06193" lon="7.20507">
        <ele>1396</ele>
        <time>2013-08-31T06:12:23Z</time>
      </trkpt>
      <trkpt lat="44.0619" lon="7.2052">
        <ele>1396</ele>
        <time>2013-08-31T06:12:49Z</time>
      </trkpt>
      <trkpt lat="44.06186" lon="7.20532">
        <ele>1396</ele>
        <time>2013-08-31T06:13:13Z</time>
      </trkpt>
      <trkpt lat="44.06181" lon="7.20542">
        <ele>1386</ele>
        <time>2013-08-31T06:13:25Z</time>
      </trkpt>
      <trkpt lat="44.06191" lon="7.20542">
        <ele>1401</ele>
        <time>2013-08-31T06:13:57Z</time>
      </trkpt>
      <trkpt lat="44.06188" lon="7.20554">
        <ele>1418</ele>
        <time>2013-08-31T06:15:09Z</time>
      </trkpt>
      <trkpt lat="44.06179" lon="7.20551">
        <ele>1406</ele>
        <time>2013-08-31T06:15:56Z</time>
      </trkpt>
      <trkpt lat="44.06188" lon="7.2055">
        <ele>1433</ele>
        <time>2013-08-31T06:16:19Z</time>
      </trkpt>
      <trkpt lat="44.06184" lon="7.20537">
        <ele>1424</ele>
        <time>2013-08-31T06:16:34Z</time>
      </trkpt>
      <trkpt lat="44.0618" lon="7.2055">
        <ele>1406</ele>
        <time>2013-08-31T06:17:15Z</time>
      </trkpt>
      <trkpt lat="44.06182" lon="7.20564">
        <ele>1413</ele>
        <time>2013-08-31T06:17:40Z</time>
      </trkpt>
      <trkpt lat="44.0618" lon="7.20576">
        <ele>1407</ele>
        <time>2013-08-31T06:18:04Z</time>
      </trkpt>
      <trkpt lat="44.06182" lon="7.20589">
        <ele>1414</ele>
        <time>2013-08-31T06:18:24Z</time>
      </trkpt>
      <trkpt lat="44.0618" lon="7.20602">
        <ele>1414</ele>
        <time>2013-08-31T06:18:44Z</time>
      </trkpt>
      <trkpt lat="44.06177" lon="7.20614">
        <ele>1414</ele>
        <time>2013-08-31T06:19:01Z</time>
      </trkpt>
      <trkpt lat="44.06175" lon="7.20627">
        <ele>1423</ele>
        <time>2013-08-31T06:19:33Z</time>
      </trkpt>
      <trkpt lat="44.06168" lon="7.20634">
        <ele>1423</ele>
        <time>2013-08-31T06:19:47Z</time>
      </trkpt>
      <trkpt lat="44.06167" lon="7.20647">
        <ele>1417</ele>
        <time>2013-08-31T06:20:02Z</time>
      </trkpt>
      <trkpt lat="44.06164" lon="7.20658">
        <ele>1431</ele>
        <time>2013-08-31T06:20:33Z</time>
      </trkpt>
      <trkpt lat="44.06158" lon="7.20669">
        <ele>1425</ele>
        <time>2013-08-31T06:20:49Z</time>
      </trkpt>
      <trkpt lat="44.06153" lon="7.20681">
        <ele>1419</ele>
        <time>2013-08-31T06:21:01Z</time>
      </trkpt>
      <trkpt lat="44.06149" lon="7.20692">
        <ele>1433</ele>
        <time>2013-08-31T06:21:22Z</time>
      </trkpt>
      <trkpt lat="44.06145" lon="7.20704">
        <ele>1438</ele>
        <time>2013-08-31T06:21:42Z</time>
      </trkpt>
      <trkpt lat="44.06138" lon="7.20711">
        <ele>1447</ele>
        <time>2013-08-31T06:22:14Z</time>
      </trkpt>
      <trkpt lat="44.0613" lon="7.20715">
        <ele>1447</ele>
        <time>2013-08-31T06:22:30Z</time>
      </trkpt>
      <trkpt lat="44.06126" lon="7.20726">
        <ele>1447</ele>
        <time>2013-08-31T06:22:40Z</time>
      </trkpt>
      <trkpt lat="44.06118" lon="7.20733">
        <ele>1447</ele>
        <time>2013-08-31T06:22:58Z</time>
      </trkpt>
      <trkpt lat="44.0611" lon="7.20736">
        <ele>1447</ele>
        <time>2013-08-31T06:23:20Z</time>
      </trkpt>
      <trkpt lat="44.06104" lon="7.20746">
        <ele>1447</ele>
        <time>2013-08-31T06:23:37Z</time>
      </trkpt>
      <trkpt lat="44.06096" lon="7.2075">
        <ele>1455</ele>
        <time>2013-08-31T06:23:52Z</time>
      </trkpt>
      <trkpt lat="44.0609" lon="7.20761">
        <ele>1455</ele>
        <time>2013-08-31T06:24:17Z</time>
      </trkpt>
      <trkpt lat="44.06082" lon="7.20768">
        <ele>1455</ele>
        <time>2013-08-31T06:24:33Z</time>
      </trkpt>
      <trkpt lat="44.06076" lon="7.20778">
        <ele>1460</ele>
        <time>2013-08-31T06:24:51Z</time>
      </trkpt>
      <trkpt lat="44.06066" lon="7.20778">
        <ele>1470</ele>
        <time>2013-08-31T06:25:14Z</time>
      </trkpt>
      <trkpt lat="44.06057" lon="7.20778">
        <ele>1470</ele>
        <time>2013-08-31T06:26:09Z</time>
      </trkpt>
      <trkpt lat="44.06049" lon="7.20784">
        <ele>1470</ele>
        <time>2013-08-31T06:26:24Z</time>
      </trkpt>
      <trkpt lat="44.06044" lon="7.20796">
        <ele>1470</ele>
        <time>2013-08-31T06:26:35Z</time>
      </trkpt>
      <trkpt lat="44.06041" lon="7.20807">
        <ele>1470</ele>
        <time>2013-08-31T06:26:48Z</time>
      </trkpt>
      <trkpt lat="44.06044" lon="7.20819">
        <ele>1462</ele>
        <time>2013-08-31T06:27:03Z</time>
      </trkpt>
      <trkpt lat="44.06035" lon="7.20824">
        <ele>1469</ele>
        <time>2013-08-31T06:27:45Z</time>
      </trkpt>
      <trkpt lat="44.06033" lon="7.20836">
        <ele>1469</ele>
        <time>2013-08-31T06:28:01Z</time>
      </trkpt>
      <trkpt lat="44.06037" lon="7.20848">
        <ele>1469</ele>
        <time>2013-08-31T06:28:14Z</time>
      </trkpt>
      <trkpt lat="44.0604" lon="7.2086">
        <ele>1477</ele>
        <time>2013-08-31T06:28:33Z</time>
      </trkpt>
      <trkpt lat="44.06045" lon="7.20871">
        <ele>1477</ele>
        <time>2013-08-31T06:28:53Z</time>
      </trkpt>
      <trkpt lat="44.0605" lon="7.20881">
        <ele>1477</ele>
        <time>2013-08-31T06:29:12Z</time>
      </trkpt>
      <trkpt lat="44.06055" lon="7.20892">
        <ele>1477</ele>
        <time>2013-08-31T06:29:36Z</time>
      </trkpt>
      <trkpt lat="44.06057" lon="7.20904">
        <ele>1491</ele>
        <time>2013-08-31T06:30:07Z</time>
      </trkpt>
      <trkpt lat="44.0606" lon="7.20916">
        <ele>1497</ele>
        <time>2013-08-31T06:30:31Z</time>
      </trkpt>
      <trkpt lat="44.06052" lon="7.20922">
        <ele>1503</ele>
        <time>2013-08-31T06:31:27Z</time>
      </trkpt>
      <trkpt lat="44.06045" lon="7.2093">
        <ele>1503</ele>
        <time>2013-08-31T06:31:44Z</time>
      </trkpt>
      <trkpt lat="44.06046" lon="7.20942">
        <ele>1497</ele>
        <time>2013-08-31T06:32:18Z</time>
      </trkpt>
      <trkpt lat="44.06039" lon="7.20934">
        <ele>1497</ele>
        <time>2013-08-31T06:32:55Z</time>
      </trkpt>
      <trkpt lat="44.06046" lon="7.20928">
        <ele>1507</ele>
        <time>2013-08-31T06:33:44Z</time>
      </trkpt>
      <trkpt lat="44.06041" lon="7.20938">
        <ele>1507</ele>
        <time>2013-08-31T06:34:20Z</time>
      </trkpt>
      <trkpt lat="44.06033" lon="7.20945">
        <ele>1500</ele>
        <time>2013-08-31T06:36:50Z</time>
      </trkpt>
      <trkpt lat="44.06026" lon="7.20952">
        <ele>1500</ele>
        <time>2013-08-31T06:37:35Z</time>
      </trkpt>
      <trkpt lat="44.06017" lon="7.20954">
        <ele>1507</ele>
        <time>2013-08-31T06:38:00Z</time>
      </trkpt>
      <trkpt lat="44.06011" lon="7.20964">
        <ele>1507</ele>
        <time>2013-08-31T06:38:26Z</time>
      </trkpt>
      <trkpt lat="44.06006" lon="7.20974">
        <ele>1515</ele>
        <time>2013-08-31T06:38:48Z</time>
      </trkpt>
      <trkpt lat="44.05999" lon="7.20983">
        <ele>1521</ele>
        <time>2013-08-31T06:39:15Z</time>
      </trkpt>
      <trkpt lat="44.05993" lon="7.20992">
        <ele>1530</ele>
        <time>2013-08-31T06:39:55Z</time>
      </trkpt>
      <trkpt lat="44.05994" lon="7.21005">
        <ele>1530</ele>
        <time>2013-08-31T06:40:09Z</time>
      </trkpt>
      <trkpt lat="44.05989" lon="7.21015">
        <ele>1530</ele>
        <time>2013-08-31T06:40:26Z</time>
      </trkpt>
      <trkpt lat="44.05983" lon="7.21025">
        <ele>1530</ele>
        <time>2013-08-31T06:40:50Z</time>
      </trkpt>
      <trkpt lat="44.05989" lon="7.21037">
        <ele>1530</ele>
        <time>2013-08-31T06:41:08Z</time>
      </trkpt>
      <trkpt lat="44.05993" lon="7.21027">
        <ele>1543</ele>
        <time>2013-08-31T06:41:21Z</time>
      </trkpt>
      <trkpt lat="44.06002" lon="7.21033">
        <ele>1538</ele>
        <time>2013-08-31T06:41:44Z</time>
      </trkpt>
      <trkpt lat="44.05994" lon="7.21042">
        <ele>1550</ele>
        <time>2013-08-31T06:42:58Z</time>
      </trkpt>
      <trkpt lat="44.05991" lon="7.21054">
        <ele>1550</ele>
        <time>2013-08-31T06:43:25Z</time>
      </trkpt>
      <trkpt lat="44.05984" lon="7.21062">
        <ele>1558</ele>
        <time>2013-08-31T06:43:46Z</time>
      </trkpt>
      <trkpt lat="44.05985" lon="7.21074">
        <ele>1558</ele>
        <time>2013-08-31T06:44:02Z</time>
      </trkpt>
      <trkpt lat="44.05984" lon="7.21088">
        <ele>1558</ele>
        <time>2013-08-31T06:44:20Z</time>
      </trkpt>
      <trkpt lat="44.05976" lon="7.21092">
        <ele>1558</ele>
        <time>2013-08-31T06:44:40Z</time>
      </trkpt>
      <trkpt lat="44.05969" lon="7.21102">
        <ele>1564</ele>
        <time>2013-08-31T06:45:00Z</time>
      </trkpt>
      <trkpt lat="44.05971" lon="7.21115">
        <ele>1573</ele>
        <time>2013-08-31T06:45:25Z</time>
      </trkpt>
      <trkpt lat="44.05965" lon="7.21126">
        <ele>1573</ele>
        <time>2013-08-31T06:45:51Z</time>
      </trkpt>
      <trkpt lat="44.05965" lon="7.21139">
        <ele>1573</ele>
        <time>2013-08-31T06:46:09Z</time>
      </trkpt>
      <trkpt lat="44.0596" lon="7.2115">
        <ele>1579</ele>
        <time>2013-08-31T06:46:36Z</time>
      </trkpt>
      <trkpt lat="44.05961" lon="7.21162">
        <ele>1579</ele>
        <time>2013-08-31T06:46:58Z</time>
      </trkpt>
      <trkpt lat="44.05956" lon="7.21172">
        <ele>1584</ele>
        <time>2013-08-31T06:47:20Z</time>
      </trkpt>
      <trkpt lat="44.05951" lon="7.21183">
        <ele>1584</ele>
        <time>2013-08-31T06:47:43Z</time>
      </trkpt>
      <trkpt lat="44.05949" lon="7.21195">
        <ele>1589</ele>
        <time>2013-08-31T06:48:09Z</time>
      </trkpt>
      <trkpt lat="44.05944" lon="7.21206">
        <ele>1589</ele>
        <time>2013-08-31T06:48:23Z</time>
      </trkpt>
      <trkpt lat="44.05944" lon="7.2122">
        <ele>1589</ele>
        <time>2013-08-31T06:48:41Z</time>
      </trkpt>
      <trkpt lat="44.05935" lon="7.2122">
        <ele>1589</ele>
        <time>2013-08-31T06:48:56Z</time>
      </trkpt>
      <trkpt lat="44.05932" lon="7.21231">
        <ele>1596</ele>
        <time>2013-08-31T06:49:18Z</time>
      </trkpt>
      <trkpt lat="44.05928" lon="7.21244">
        <ele>1596</ele>
        <time>2013-08-31T06:49:35Z</time>
      </trkpt>
      <trkpt lat="44.05921" lon="7.2125">
        <ele>1596</ele>
        <time>2013-08-31T06:49:59Z</time>
      </trkpt>
      <trkpt lat="44.05914" lon="7.21257">
        <ele>1596</ele>
        <time>2013-08-31T06:50:11Z</time>
      </trkpt>
      <trkpt lat="44.05905" lon="7.2126">
        <ele>1605</ele>
        <time>2013-08-31T06:50:26Z</time>
      </trkpt>
      <trkpt lat="44.05896" lon="7.21265">
        <ele>1618</ele>
        <time>2013-08-31T06:50:49Z</time>
      </trkpt>
      <trkpt lat="44.05896" lon="7.21277">
        <ele>1618</ele>
        <time>2013-08-31T06:51:03Z</time>
      </trkpt>
      <trkpt lat="44.05897" lon="7.2129">
        <ele>1618</ele>
        <time>2013-08-31T06:51:26Z</time>
      </trkpt>
      <trkpt lat="44.05888" lon="7.21293">
        <ele>1631</ele>
        <time>2013-08-31T06:51:50Z</time>
      </trkpt>
      <trkpt lat="44.05883" lon="7.21304">
        <ele>1631</ele>
        <time>2013-08-31T06:52:06Z</time>
      </trkpt>
      <trkpt lat="44.05879" lon="7.21316">
        <ele>1631</ele>
        <time>2013-08-31T06:52:31Z</time>
      </trkpt>
      <trkpt lat="44.05875" lon="7.21327">
        <ele>1631</ele>
        <time>2013-08-31T06:52:50Z</time>
      </trkpt>
      <trkpt lat="44.0587" lon="7.21338">
        <ele>1631</ele>
        <time>2013-08-31T06:53:08Z</time>
      </trkpt>
      <trkpt lat="44.05868" lon="7.21351">
        <ele>1631</ele>
        <time>2013-08-31T06:53:32Z</time>
      </trkpt>
      <trkpt lat="44.05866" lon="7.21362">
        <ele>1631</ele>
        <time>2013-08-31T06:53:52Z</time>
      </trkpt>
      <trkpt lat="44.05865" lon="7.21375">
        <ele>1637</ele>
        <time>2013-08-31T06:54:11Z</time>
      </trkpt>
      <trkpt lat="44.05857" lon="7.21382">
        <ele>1644</ele>
        <time>2013-08-31T06:54:32Z</time>
      </trkpt>
      <trkpt lat="44.05853" lon="7.21393">
        <ele>1644</ele>
        <time>2013-08-31T06:54:52Z</time>
      </trkpt>
      <trkpt lat="44.05844" lon="7.21399">
        <ele>1644</ele>
        <time>2013-08-31T06:55:13Z</time>
      </trkpt>
      <trkpt lat="44.0584" lon="7.21411">
        <ele>1644</ele>
        <time>2013-08-31T06:55:33Z</time>
      </trkpt>
      <trkpt lat="44.05831" lon="7.21415">
        <ele>1644</ele>
        <time>2013-08-31T06:56:38Z</time>
      </trkpt>
      <trkpt lat="44.05822" lon="7.21417">
        <ele>1637</ele>
        <time>2013-08-31T06:56:46Z</time>
      </trkpt>
      <trkpt lat="44.05813" lon="7.21412">
        <ele>1647</ele>
        <time>2013-08-31T06:57:00Z</time>
      </trkpt>
      <trkpt lat="44.05805" lon="7.21419">
        <ele>1647</ele>
        <time>2013-08-31T06:57:14Z</time>
      </trkpt>
      <trkpt lat="44.05796" lon="7.21417">
        <ele>1655</ele>
        <time>2013-08-31T06:57:31Z</time>
      </trkpt>
      <trkpt lat="44.05788" lon="7.21426">
        <ele>1655</ele>
        <time>2013-08-31T06:57:50Z</time>
      </trkpt>
      <trkpt lat="44.0578" lon="7.21433">
        <ele>1655</ele>
        <time>2013-08-31T06:58:03Z</time>
      </trkpt>
      <trkpt lat="44.05774" lon="7.21442">
        <ele>1655</ele>
        <time>2013-08-31T06:58:23Z</time>
      </trkpt>
      <trkpt lat="44.05765" lon="7.21446">
        <ele>1663</ele>
        <time>2013-08-31T06:58:45Z</time>
      </trkpt>
      <trkpt lat="44.05763" lon="7.21458">
        <ele>1663</ele>
        <time>2013-08-31T06:59:00Z</time>
      </trkpt>
      <trkpt lat="44.05757" lon="7.21468">
        <ele>1669</ele>
        <time>2013-08-31T06:59:22Z</time>
      </trkpt>
      <trkpt lat="44.0575" lon="7.2146">
        <ele>1677</ele>
        <time>2013-08-31T06:59:37Z</time>
      </trkpt>
      <trkpt lat="44.05751" lon="7.21448">
        <ele>1688</ele>
        <time>2013-08-31T07:00:00Z</time>
      </trkpt>
      <trkpt lat="44.05742" lon="7.21452">
        <ele>1688</ele>
        <time>2013-08-31T07:00:28Z</time>
      </trkpt>
      <trkpt lat="44.05733" lon="7.21454">
        <ele>1688</ele>
        <time>2013-08-31T07:00:39Z</time>
      </trkpt>
      <trkpt lat="44.05723" lon="7.21453">
        <ele>1688</ele>
        <time>2013-08-31T07:01:08Z</time>
      </trkpt>
      <trkpt lat="44.05714" lon="7.21451">
        <ele>1688</ele>
        <time>2013-08-31T07:01:27Z</time>
      </trkpt>
      <trkpt lat="44.05705" lon="7.21451">
        <ele>1688</ele>
        <time>2013-08-31T07:02:00Z</time>
      </trkpt>
      <trkpt lat="44.05696" lon="7.2145">
        <ele>1688</ele>
        <time>2013-08-31T07:02:15Z</time>
      </trkpt>
      <trkpt lat="44.05689" lon="7.21441">
        <ele>1688</ele>
        <time>2013-08-31T07:02:31Z</time>
      </trkpt>
      <trkpt lat="44.05682" lon="7.21433">
        <ele>1688</ele>
        <time>2013-08-31T07:02:48Z</time>
      </trkpt>
      <trkpt lat="44.05673" lon="7.21429">
        <ele>1688</ele>
        <time>2013-08-31T07:03:04Z</time>
      </trkpt>
      <trkpt lat="44.05665" lon="7.21422">
        <ele>1699</ele>
        <time>2013-08-31T07:03:34Z</time>
      </trkpt>
      <trkpt lat="44.05658" lon="7.21415">
        <ele>1699</ele>
        <time>2013-08-31T07:03:54Z</time>
      </trkpt>
      <trkpt lat="44.05651" lon="7.21407">
        <ele>1699</ele>
        <time>2013-08-31T07:04:09Z</time>
      </trkpt>
      <trkpt lat="44.05648" lon="7.21395">
        <ele>1706</ele>
        <time>2013-08-31T07:04:16Z</time>
      </trkpt>
      <trkpt lat="44.05639" lon="7.21396">
        <ele>1706</ele>
        <time>2013-08-31T07:04:31Z</time>
      </trkpt>
      <trkpt lat="44.05632" lon="7.21389">
        <ele>1706</ele>
        <time>2013-08-31T07:04:47Z</time>
      </trkpt>
      <trkpt lat="44.05627" lon="7.21378">
        <ele>1706</ele>
        <time>2013-08-31T07:05:06Z</time>
      </trkpt>
      <trkpt lat="44.05619" lon="7.21371">
        <ele>1714</ele>
        <time>2013-08-31T07:05:17Z</time>
      </trkpt>
      <trkpt lat="44.05609" lon="7.21371">
        <ele>1708</ele>
        <time>2013-08-31T07:05:30Z</time>
      </trkpt>
      <trkpt lat="44.056" lon="7.21367">
        <ele>1708</ele>
        <time>2013-08-31T07:05:49Z</time>
      </trkpt>
      <trkpt lat="44.05591" lon="7.21366">
        <ele>1708</ele>
        <time>2013-08-31T07:06:02Z</time>
      </trkpt>
      <trkpt lat="44.05582" lon="7.21369">
        <ele>1708</ele>
        <time>2013-08-31T07:06:10Z</time>
      </trkpt>
      <trkpt lat="44.05574" lon="7.21375">
        <ele>1708</ele>
        <time>2013-08-31T07:06:19Z</time>
      </trkpt>
      <trkpt lat="44.05568" lon="7.21365">
        <ele>1708</ele>
        <time>2013-08-31T07:06:31Z</time>
      </trkpt>
      <trkpt lat="44.05561" lon="7.21358">
        <ele>1708</ele>
        <time>2013-08-31T07:06:41Z</time>
      </trkpt>
      <trkpt lat="44.05563" lon="7.21345">
        <ele>1718</ele>
        <time>2013-08-31T07:06:48Z</time>
      </trkpt>
      <trkpt lat="44.05562" lon="7.21333">
        <ele>1725</ele>
        <time>2013-08-31T07:06:57Z</time>
      </trkpt>
      <trkpt lat="44.05561" lon="7.21319">
        <ele>1725</ele>
        <time>2013-08-31T07:07:09Z</time>
      </trkpt>
      <trkpt lat="44.0556" lon="7.21305">
        <ele>1732</ele>
        <time>2013-08-31T07:07:16Z</time>
      </trkpt>
      <trkpt lat="44.05554" lon="7.21294">
        <ele>1732</ele>
        <time>2013-08-31T07:07:25Z</time>
      </trkpt>
      <trkpt lat="44.05549" lon="7.21284">
        <ele>1732</ele>
        <time>2013-08-31T07:07:34Z</time>
      </trkpt>
      <trkpt lat="44.05542" lon="7.21274">
        <ele>1725</ele>
        <time>2013-08-31T07:07:43Z</time>
      </trkpt>
      <trkpt lat="44.05535" lon="7.21267">
        <ele>1725</ele>
        <time>2013-08-31T07:07:51Z</time>
      </trkpt>
      <trkpt lat="44.05525" lon="7.21266">
        <ele>1716</ele>
        <time>2013-08-31T07:07:59Z</time>
      </trkpt>
      <trkpt lat="44.05516" lon="7.21266">
        <ele>1707</ele>
        <time>2013-08-31T07:08:06Z</time>
      </trkpt>
      <trkpt lat="44.05507" lon="7.21266">
        <ele>1707</ele>
        <time>2013-08-31T07:08:15Z</time>
      </trkpt>
      <trkpt lat="44.05498" lon="7.21263">
        <ele>1707</ele>
        <time>2013-08-31T07:08:27Z</time>
      </trkpt>
      <trkpt lat="44.05489" lon="7.21261">
        <ele>1715</ele>
        <time>2013-08-31T07:08:42Z</time>
      </trkpt>
      <trkpt lat="44.0548" lon="7.21259">
        <ele>1715</ele>
        <time>2013-08-31T07:08:51Z</time>
      </trkpt>
      <trkpt lat="44.05471" lon="7.21258">
        <ele>1715</ele>
        <time>2013-08-31T07:08:59Z</time>
      </trkpt>
      <trkpt lat="44.05462" lon="7.21259">
        <ele>1715</ele>
        <time>2013-08-31T07:09:08Z</time>
      </trkpt>
      <trkpt lat="44.05454" lon="7.21265">
        <ele>1715</ele>
        <time>2013-08-31T07:09:18Z</time>
      </trkpt>
      <trkpt lat="44.05446" lon="7.21261">
        <ele>1722</ele>
        <time>2013-08-31T07:09:29Z</time>
      </trkpt>
      <trkpt lat="44.05437" lon="7.21256">
        <ele>1722</ele>
        <time>2013-08-31T07:09:40Z</time>
      </trkpt>
      <trkpt lat="44.05428" lon="7.21259">
        <ele>1722</ele>
        <time>2013-08-31T07:09:59Z</time>
      </trkpt>
      <trkpt lat="44.0542" lon="7.21263">
        <ele>1722</ele>
        <time>2013-08-31T07:10:06Z</time>
      </trkpt>
      <trkpt lat="44.05412" lon="7.21266">
        <ele>1722</ele>
        <time>2013-08-31T07:10:14Z</time>
      </trkpt>
      <trkpt lat="44.05404" lon="7.21273">
        <ele>1722</ele>
        <time>2013-08-31T07:10:23Z</time>
      </trkpt>
      <trkpt lat="44.05395" lon="7.21277">
        <ele>1722</ele>
        <time>2013-08-31T07:10:32Z</time>
      </trkpt>
      <trkpt lat="44.05386" lon="7.21281">
        <ele>1722</ele>
        <time>2013-08-31T07:10:41Z</time>
      </trkpt>
      <trkpt lat="44.05377" lon="7.21279">
        <ele>1722</ele>
        <time>2013-08-31T07:10:53Z</time>
      </trkpt>
      <trkpt lat="44.05368" lon="7.21277">
        <ele>1729</ele>
        <time>2013-08-31T07:11:23Z</time>
      </trkpt>
      <trkpt lat="44.0536" lon="7.21271">
        <ele>1729</ele>
        <time>2013-08-31T07:11:46Z</time>
      </trkpt>
      <trkpt lat="44.05351" lon="7.21272">
        <ele>1723</ele>
        <time>2013-08-31T07:11:56Z</time>
      </trkpt>
      <trkpt lat="44.05343" lon="7.21265">
        <ele>1723</ele>
        <time>2013-08-31T07:12:14Z</time>
      </trkpt>
      <trkpt lat="44.05333" lon="7.21267">
        <ele>1723</ele>
        <time>2013-08-31T07:12:22Z</time>
      </trkpt>
      <trkpt lat="44.05323" lon="7.2127">
        <ele>1723</ele>
        <time>2013-08-31T07:12:30Z</time>
      </trkpt>
      <trkpt lat="44.05314" lon="7.21273">
        <ele>1723</ele>
        <time>2013-08-31T07:12:38Z</time>
      </trkpt>
      <trkpt lat="44.05305" lon="7.21277">
        <ele>1723</ele>
        <time>2013-08-31T07:12:49Z</time>
      </trkpt>
      <trkpt lat="44.05296" lon="7.21276">
        <ele>1718</ele>
        <time>2013-08-31T07:12:57Z</time>
      </trkpt>
      <trkpt lat="44.05286" lon="7.21274">
        <ele>1718</ele>
        <time>2013-08-31T07:13:21Z</time>
      </trkpt>
      <trkpt lat="44.0528" lon="7.21284">
        <ele>1711</ele>
        <time>2013-08-31T07:13:50Z</time>
      </trkpt>
      <trkpt lat="44.05283" lon="7.21273">
        <ele>1717</ele>
        <time>2013-08-31T07:15:41Z</time>
      </trkpt>
      <trkpt lat="44.05292" lon="7.21273">
        <ele>1728</ele>
        <time>2013-08-31T07:20:16Z</time>
      </trkpt>
      <trkpt lat="44.05283" lon="7.21276">
        <ele>1719</ele>
        <time>2013-08-31T07:22:19Z</time>
      </trkpt>
      <trkpt lat="44.05281" lon="7.21288">
        <ele>1741</ele>
        <time>2013-08-31T07:24:31Z</time>
      </trkpt>
      <trkpt lat="44.05275" lon="7.21298">
        <ele>1750</ele>
        <time>2013-08-31T07:24:53Z</time>
      </trkpt>
      <trkpt lat="44.0528" lon="7.21287">
        <ele>1717</ele>
        <time>2013-08-31T07:25:29Z</time>
      </trkpt>
      <trkpt lat="44.05279" lon="7.21274">
        <ele>1702</ele>
        <time>2013-08-31T07:26:31Z</time>
      </trkpt>
      <trkpt lat="44.05269" lon="7.21272">
        <ele>1711</ele>
        <time>2013-08-31T07:27:43Z</time>
      </trkpt>
      <trkpt lat="44.05261" lon="7.21263">
        <ele>1711</ele>
        <time>2013-08-31T07:27:56Z</time>
      </trkpt>
      <trkpt lat="44.05259" lon="7.21251">
        <ele>1711</ele>
        <time>2013-08-31T07:28:03Z</time>
      </trkpt>
      <trkpt lat="44.05253" lon="7.2124">
        <ele>1711</ele>
        <time>2013-08-31T07:28:13Z</time>
      </trkpt>
      <trkpt lat="44.05246" lon="7.2123">
        <ele>1718</ele>
        <time>2013-08-31T07:28:29Z</time>
      </trkpt>
      <trkpt lat="44.05237" lon="7.21221">
        <ele>1718</ele>
        <time>2013-08-31T07:28:36Z</time>
      </trkpt>
      <trkpt lat="44.05229" lon="7.21215">
        <ele>1718</ele>
        <time>2013-08-31T07:28:46Z</time>
      </trkpt>
      <trkpt lat="44.05222" lon="7.21203">
        <ele>1718</ele>
        <time>2013-08-31T07:28:58Z</time>
      </trkpt>
      <trkpt lat="44.05217" lon="7.21191">
        <ele>1718</ele>
        <time>2013-08-31T07:29:07Z</time>
      </trkpt>
      <trkpt lat="44.05213" lon="7.2118">
        <ele>1718</ele>
        <time>2013-08-31T07:29:14Z</time>
      </trkpt>
      <trkpt lat="44.05206" lon="7.21171">
        <ele>1718</ele>
        <time>2013-08-31T07:29:28Z</time>
      </trkpt>
      <trkpt lat="44.05198" lon="7.21163">
        <ele>1724</ele>
        <time>2013-08-31T07:29:42Z</time>
      </trkpt>
      <trkpt lat="44.05191" lon="7.21156">
        <ele>1729</ele>
        <time>2013-08-31T07:29:57Z</time>
      </trkpt>
      <trkpt lat="44.05185" lon="7.21146">
        <ele>1735</ele>
        <time>2013-08-31T07:30:15Z</time>
      </trkpt>
      <trkpt lat="44.05176" lon="7.21143">
        <ele>1735</ele>
        <time>2013-08-31T07:30:27Z</time>
      </trkpt>
      <trkpt lat="44.05165" lon="7.21143">
        <ele>1735</ele>
        <time>2013-08-31T07:30:42Z</time>
      </trkpt>
      <trkpt lat="44.0516" lon="7.21133">
        <ele>1735</ele>
        <time>2013-08-31T07:30:52Z</time>
      </trkpt>
      <trkpt lat="44.05152" lon="7.21126">
        <ele>1735</ele>
        <time>2013-08-31T07:31:02Z</time>
      </trkpt>
      <trkpt lat="44.05143" lon="7.21129">
        <ele>1735</ele>
        <time>2013-08-31T07:31:15Z</time>
      </trkpt>
      <trkpt lat="44.05134" lon="7.21124">
        <ele>1735</ele>
        <time>2013-08-31T07:31:28Z</time>
      </trkpt>
      <trkpt lat="44.05143" lon="7.21121">
        <ele>1741</ele>
        <time>2013-08-31T07:31:55Z</time>
      </trkpt>
      <trkpt lat="44.0515" lon="7.21114">
        <ele>1749</ele>
        <time>2013-08-31T07:32:11Z</time>
      </trkpt>
      <trkpt lat="44.05148" lon="7.211">
        <ele>1749</ele>
        <time>2013-08-31T07:32:22Z</time>
      </trkpt>
      <trkpt lat="44.05141" lon="7.21091">
        <ele>1749</ele>
        <time>2013-08-31T07:32:33Z</time>
      </trkpt>
      <trkpt lat="44.05133" lon="7.21097">
        <ele>1742</ele>
        <time>2013-08-31T07:32:51Z</time>
      </trkpt>
      <trkpt lat="44.05124" lon="7.21101">
        <ele>1742</ele>
        <time>2013-08-31T07:33:01Z</time>
      </trkpt>
      <trkpt lat="44.05115" lon="7.21102">
        <ele>1748</ele>
        <time>2013-08-31T07:33:15Z</time>
      </trkpt>
      <trkpt lat="44.05122" lon="7.21092">
        <ele>1748</ele>
        <time>2013-08-31T07:33:46Z</time>
      </trkpt>
      <trkpt lat="44.05121" lon="7.21077">
        <ele>1748</ele>
        <time>2013-08-31T07:34:09Z</time>
      </trkpt>
      <trkpt lat="44.05119" lon="7.21065">
        <ele>1748</ele>
        <time>2013-08-31T07:34:18Z</time>
      </trkpt>
      <trkpt lat="44.05112" lon="7.21057">
        <ele>1748</ele>
        <time>2013-08-31T07:34:31Z</time>
      </trkpt>
      <trkpt lat="44.05103" lon="7.21053">
        <ele>1748</ele>
        <time>2013-08-31T07:34:40Z</time>
      </trkpt>
      <trkpt lat="44.0511" lon="7.21046">
        <ele>1760</ele>
        <time>2013-08-31T07:34:58Z</time>
      </trkpt>
      <trkpt lat="44.05118" lon="7.21039">
        <ele>1767</ele>
        <time>2013-08-31T07:35:12Z</time>
      </trkpt>
      <trkpt lat="44.05124" lon="7.21029">
        <ele>1767</ele>
        <time>2013-08-31T07:35:29Z</time>
      </trkpt>
      <trkpt lat="44.05128" lon="7.21018">
        <ele>1767</ele>
        <time>2013-08-31T07:35:42Z</time>
      </trkpt>
      <trkpt lat="44.0513" lon="7.21005">
        <ele>1774</ele>
        <time>2013-08-31T07:35:52Z</time>
      </trkpt>
      <trkpt lat="44.05129" lon="7.20991">
        <ele>1774</ele>
        <time>2013-08-31T07:36:01Z</time>
      </trkpt>
      <trkpt lat="44.05126" lon="7.20979">
        <ele>1774</ele>
        <time>2013-08-31T07:36:12Z</time>
      </trkpt>
      <trkpt lat="44.05121" lon="7.20967">
        <ele>1774</ele>
        <time>2013-08-31T07:36:20Z</time>
      </trkpt>
      <trkpt lat="44.05124" lon="7.20956">
        <ele>1774</ele>
        <time>2013-08-31T07:36:29Z</time>
      </trkpt>
      <trkpt lat="44.05123" lon="7.20943">
        <ele>1768</ele>
        <time>2013-08-31T07:36:39Z</time>
      </trkpt>
      <trkpt lat="44.05132" lon="7.20937">
        <ele>1782</ele>
        <time>2013-08-31T07:36:50Z</time>
      </trkpt>
      <trkpt lat="44.05141" lon="7.20938">
        <ele>1791</ele>
        <time>2013-08-31T07:36:56Z</time>
      </trkpt>
      <trkpt lat="44.05152" lon="7.20938">
        <ele>1797</ele>
        <time>2013-08-31T07:37:01Z</time>
      </trkpt>
      <trkpt lat="44.05154" lon="7.20923">
        <ele>1791</ele>
        <time>2013-08-31T07:37:13Z</time>
      </trkpt>
      <trkpt lat="44.05154" lon="7.20911">
        <ele>1791</ele>
        <time>2013-08-31T07:37:19Z</time>
      </trkpt>
      <trkpt lat="44.05147" lon="7.20902">
        <ele>1791</ele>
        <time>2013-08-31T07:37:30Z</time>
      </trkpt>
      <trkpt lat="44.05146" lon="7.20887">
        <ele>1779</ele>
        <time>2013-08-31T07:37:41Z</time>
      </trkpt>
      <trkpt lat="44.05145" lon="7.20875">
        <ele>1779</ele>
        <time>2013-08-31T07:37:51Z</time>
      </trkpt>
      <trkpt lat="44.05153" lon="7.20867">
        <ele>1779</ele>
        <time>2013-08-31T07:38:00Z</time>
      </trkpt>
      <trkpt lat="44.05161" lon="7.20857">
        <ele>1779</ele>
        <time>2013-08-31T07:38:08Z</time>
      </trkpt>
      <trkpt lat="44.0517" lon="7.20853">
        <ele>1779</ele>
        <time>2013-08-31T07:38:13Z</time>
      </trkpt>
      <trkpt lat="44.05169" lon="7.2084">
        <ele>1779</ele>
        <time>2013-08-31T07:38:21Z</time>
      </trkpt>
      <trkpt lat="44.05166" lon="7.20828">
        <ele>1772</ele>
        <time>2013-08-31T07:38:31Z</time>
      </trkpt>
      <trkpt lat="44.05167" lon="7.20815">
        <ele>1772</ele>
        <time>2013-08-31T07:38:42Z</time>
      </trkpt>
      <trkpt lat="44.05169" lon="7.20803">
        <ele>1772</ele>
        <time>2013-08-31T07:38:56Z</time>
      </trkpt>
      <trkpt lat="44.05165" lon="7.20791">
        <ele>1772</ele>
        <time>2013-08-31T07:39:04Z</time>
      </trkpt>
      <trkpt lat="44.05163" lon="7.20778">
        <ele>1772</ele>
        <time>2013-08-31T07:39:15Z</time>
      </trkpt>
      <trkpt lat="44.05161" lon="7.20765">
        <ele>1772</ele>
        <time>2013-08-31T07:39:25Z</time>
      </trkpt>
      <trkpt lat="44.05161" lon="7.20752">
        <ele>1780</ele>
        <time>2013-08-31T07:39:35Z</time>
      </trkpt>
      <trkpt lat="44.05156" lon="7.20742">
        <ele>1780</ele>
        <time>2013-08-31T07:39:47Z</time>
      </trkpt>
      <trkpt lat="44.05153" lon="7.20729">
        <ele>1780</ele>
        <time>2013-08-31T07:39:58Z</time>
      </trkpt>
      <trkpt lat="44.05145" lon="7.20723">
        <ele>1780</ele>
        <time>2013-08-31T07:40:07Z</time>
      </trkpt>
      <trkpt lat="44.05142" lon="7.20711">
        <ele>1785</ele>
        <time>2013-08-31T07:40:22Z</time>
      </trkpt>
      <trkpt lat="44.05136" lon="7.20701">
        <ele>1785</ele>
        <time>2013-08-31T07:40:30Z</time>
      </trkpt>
      <trkpt lat="44.05132" lon="7.2069">
        <ele>1785</ele>
        <time>2013-08-31T07:40:40Z</time>
      </trkpt>
      <trkpt lat="44.05125" lon="7.2068">
        <ele>1785</ele>
        <time>2013-08-31T07:40:50Z</time>
      </trkpt>
      <trkpt lat="44.05118" lon="7.20671">
        <ele>1785</ele>
        <time>2013-08-31T07:41:01Z</time>
      </trkpt>
      <trkpt lat="44.05111" lon="7.20663">
        <ele>1785</ele>
        <time>2013-08-31T07:41:11Z</time>
      </trkpt>
      <trkpt lat="44.05104" lon="7.20654">
        <ele>1785</ele>
        <time>2013-08-31T07:41:22Z</time>
      </trkpt>
      <trkpt lat="44.051" lon="7.20643">
        <ele>1798</ele>
        <time>2013-08-31T07:41:34Z</time>
      </trkpt>
      <trkpt lat="44.05093" lon="7.20634">
        <ele>1807</ele>
        <time>2013-08-31T07:41:50Z</time>
      </trkpt>
      <trkpt lat="44.05084" lon="7.2063">
        <ele>1807</ele>
        <time>2013-08-31T07:42:00Z</time>
      </trkpt>
      <trkpt lat="44.05075" lon="7.2063">
        <ele>1807</ele>
        <time>2013-08-31T07:42:08Z</time>
      </trkpt>
      <trkpt lat="44.05068" lon="7.2062">
        <ele>1807</ele>
        <time>2013-08-31T07:42:26Z</time>
      </trkpt>
      <trkpt lat="44.05061" lon="7.20613">
        <ele>1813</ele>
        <time>2013-08-31T07:42:51Z</time>
      </trkpt>
      <trkpt lat="44.05053" lon="7.2061">
        <ele>1806</ele>
        <time>2013-08-31T07:42:57Z</time>
      </trkpt>
      <trkpt lat="44.05042" lon="7.20608">
        <ele>1806</ele>
        <time>2013-08-31T07:43:23Z</time>
      </trkpt>
      <trkpt lat="44.05035" lon="7.206">
        <ele>1812</ele>
        <time>2013-08-31T07:43:36Z</time>
      </trkpt>
      <trkpt lat="44.05027" lon="7.20594">
        <ele>1812</ele>
        <time>2013-08-31T07:43:46Z</time>
      </trkpt>
      <trkpt lat="44.0502" lon="7.20586">
        <ele>1812</ele>
        <time>2013-08-31T07:44:00Z</time>
      </trkpt>
      <trkpt lat="44.05017" lon="7.20575">
        <ele>1812</ele>
        <time>2013-08-31T07:44:11Z</time>
      </trkpt>
      <trkpt lat="44.05007" lon="7.20572">
        <ele>1812</ele>
        <time>2013-08-31T07:44:23Z</time>
      </trkpt>
      <trkpt lat="44.04998" lon="7.20568">
        <ele>1812</ele>
        <time>2013-08-31T07:44:36Z</time>
      </trkpt>
      <trkpt lat="44.0499" lon="7.2056">
        <ele>1812</ele>
        <time>2013-08-31T07:44:47Z</time>
      </trkpt>
      <trkpt lat="44.0499" lon="7.20548">
        <ele>1820</ele>
        <time>2013-08-31T07:45:03Z</time>
      </trkpt>
      <trkpt lat="44.04983" lon="7.2054">
        <ele>1820</ele>
        <time>2013-08-31T07:45:14Z</time>
      </trkpt>
      <trkpt lat="44.04977" lon="7.2053">
        <ele>1813</ele>
        <time>2013-08-31T07:45:25Z</time>
      </trkpt>
      <trkpt lat="44.04972" lon="7.20519">
        <ele>1813</ele>
        <time>2013-08-31T07:45:36Z</time>
      </trkpt>
      <trkpt lat="44.04966" lon="7.20508">
        <ele>1813</ele>
        <time>2013-08-31T07:45:51Z</time>
      </trkpt>
      <trkpt lat="44.04958" lon="7.20501">
        <ele>1813</ele>
        <time>2013-08-31T07:46:02Z</time>
      </trkpt>
      <trkpt lat="44.04965" lon="7.20494">
        <ele>1819</ele>
        <time>2013-08-31T07:47:05Z</time>
      </trkpt>
      <trkpt lat="44.04958" lon="7.20486">
        <ele>1819</ele>
        <time>2013-08-31T07:47:14Z</time>
      </trkpt>
      <trkpt lat="44.04953" lon="7.20475">
        <ele>1813</ele>
        <time>2013-08-31T07:47:24Z</time>
      </trkpt>
      <trkpt lat="44.04948" lon="7.20465">
        <ele>1820</ele>
        <time>2013-08-31T07:47:39Z</time>
      </trkpt>
      <trkpt lat="44.04941" lon="7.20456">
        <ele>1827</ele>
        <time>2013-08-31T07:47:48Z</time>
      </trkpt>
      <trkpt lat="44.04935" lon="7.20446">
        <ele>1827</ele>
        <time>2013-08-31T07:48:01Z</time>
      </trkpt>
      <trkpt lat="44.0493" lon="7.20436">
        <ele>1827</ele>
        <time>2013-08-31T07:48:18Z</time>
      </trkpt>
      <trkpt lat="44.04923" lon="7.20429">
        <ele>1827</ele>
        <time>2013-08-31T07:48:35Z</time>
      </trkpt>
      <trkpt lat="44.04917" lon="7.20417">
        <ele>1827</ele>
        <time>2013-08-31T07:48:50Z</time>
      </trkpt>
      <trkpt lat="44.04926" lon="7.20413">
        <ele>1834</ele>
        <time>2013-08-31T07:48:56Z</time>
      </trkpt>
      <trkpt lat="44.04918" lon="7.20407">
        <ele>1834</ele>
        <time>2013-08-31T07:49:06Z</time>
      </trkpt>
      <trkpt lat="44.04915" lon="7.20395">
        <ele>1834</ele>
        <time>2013-08-31T07:49:17Z</time>
      </trkpt>
      <trkpt lat="44.04908" lon="7.20388">
        <ele>1842</ele>
        <time>2013-08-31T07:49:45Z</time>
      </trkpt>
      <trkpt lat="44.04898" lon="7.20383">
        <ele>1836</ele>
        <time>2013-08-31T07:49:50Z</time>
      </trkpt>
      <trkpt lat="44.04898" lon="7.20369">
        <ele>1836</ele>
        <time>2013-08-31T07:50:08Z</time>
      </trkpt>
      <trkpt lat="44.04889" lon="7.20368">
        <ele>1836</ele>
        <time>2013-08-31T07:50:16Z</time>
      </trkpt>
      <trkpt lat="44.04886" lon="7.20355">
        <ele>1844</ele>
        <time>2013-08-31T07:50:33Z</time>
      </trkpt>
      <trkpt lat="44.04885" lon="7.20342">
        <ele>1849</ele>
        <time>2013-08-31T07:50:49Z</time>
      </trkpt>
      <trkpt lat="44.0488" lon="7.2033">
        <ele>1857</ele>
        <time>2013-08-31T07:51:20Z</time>
      </trkpt>
      <trkpt lat="44.04873" lon="7.20322">
        <ele>1852</ele>
        <time>2013-08-31T07:51:31Z</time>
      </trkpt>
      <trkpt lat="44.04865" lon="7.20315">
        <ele>1846</ele>
        <time>2013-08-31T07:51:54Z</time>
      </trkpt>
      <trkpt lat="44.04862" lon="7.20302">
        <ele>1846</ele>
        <time>2013-08-31T07:52:06Z</time>
      </trkpt>
      <trkpt lat="44.04863" lon="7.20289">
        <ele>1851</ele>
        <time>2013-08-31T07:52:18Z</time>
      </trkpt>
      <trkpt lat="44.04861" lon="7.20275">
        <ele>1851</ele>
        <time>2013-08-31T07:52:30Z</time>
      </trkpt>
      <trkpt lat="44.04855" lon="7.20264">
        <ele>1856</ele>
        <time>2013-08-31T07:52:37Z</time>
      </trkpt>
      <trkpt lat="44.04848" lon="7.20255">
        <ele>1856</ele>
        <time>2013-08-31T07:52:45Z</time>
      </trkpt>
      <trkpt lat="44.04843" lon="7.20244">
        <ele>1856</ele>
        <time>2013-08-31T07:52:55Z</time>
      </trkpt>
      <trkpt lat="44.04836" lon="7.20233">
        <ele>1849</ele>
        <time>2013-08-31T07:53:02Z</time>
      </trkpt>
      <trkpt lat="44.04828" lon="7.20226">
        <ele>1849</ele>
        <time>2013-08-31T07:53:11Z</time>
      </trkpt>
      <trkpt lat="44.04823" lon="7.20216">
        <ele>1849</ele>
        <time>2013-08-31T07:53:24Z</time>
      </trkpt>
      <trkpt lat="44.04813" lon="7.20214">
        <ele>1849</ele>
        <time>2013-08-31T07:53:34Z</time>
      </trkpt>
      <trkpt lat="44.04808" lon="7.20205">
        <ele>1859</ele>
        <time>2013-08-31T07:54:13Z</time>
      </trkpt>
      <trkpt lat="44.04799" lon="7.20205">
        <ele>1859</ele>
        <time>2013-08-31T07:54:20Z</time>
      </trkpt>
      <trkpt lat="44.04796" lon="7.20192">
        <ele>1859</ele>
        <time>2013-08-31T07:54:32Z</time>
      </trkpt>
      <trkpt lat="44.04787" lon="7.20187">
        <ele>1859</ele>
        <time>2013-08-31T07:54:45Z</time>
      </trkpt>
      <trkpt lat="44.04782" lon="7.20178">
        <ele>1869</ele>
        <time>2013-08-31T07:55:24Z</time>
      </trkpt>
      <trkpt lat="44.04771" lon="7.20175">
        <ele>1869</ele>
        <time>2013-08-31T07:56:05Z</time>
      </trkpt>
      <trkpt lat="44.04764" lon="7.20184">
        <ele>1869</ele>
        <time>2013-08-31T07:56:33Z</time>
      </trkpt>
      <trkpt lat="44.0476" lon="7.20196">
        <ele>1869</ele>
        <time>2013-08-31T07:56:44Z</time>
      </trkpt>
      <trkpt lat="44.0477" lon="7.20198">
        <ele>1891</ele>
        <time>2013-08-31T07:57:06Z</time>
      </trkpt>
      <trkpt lat="44.04763" lon="7.20191">
        <ele>1891</ele>
        <time>2013-08-31T07:57:53Z</time>
      </trkpt>
      <trkpt lat="44.04756" lon="7.20184">
        <ele>1877</ele>
        <time>2013-08-31T07:58:00Z</time>
      </trkpt>
      <trkpt lat="44.04755" lon="7.2017">
        <ele>1877</ele>
        <time>2013-08-31T07:58:13Z</time>
      </trkpt>
      <trkpt lat="44.04747" lon="7.20176">
        <ele>1899</ele>
        <time>2013-08-31T07:59:10Z</time>
      </trkpt>
      <trkpt lat="44.04739" lon="7.20181">
        <ele>1899</ele>
        <time>2013-08-31T07:59:24Z</time>
      </trkpt>
      <trkpt lat="44.04733" lon="7.20194">
        <ele>1899</ele>
        <time>2013-08-31T07:59:48Z</time>
      </trkpt>
      <trkpt lat="44.0473" lon="7.20205">
        <ele>1899</ele>
        <time>2013-08-31T08:00:01Z</time>
      </trkpt>
      <trkpt lat="44.04733" lon="7.20218">
        <ele>1904</ele>
        <time>2013-08-31T08:00:19Z</time>
      </trkpt>
      <trkpt lat="44.04742" lon="7.2021">
        <ele>1911</ele>
        <time>2013-08-31T08:00:36Z</time>
      </trkpt>
      <trkpt lat="44.04733" lon="7.20214">
        <ele>1899</ele>
        <time>2013-08-31T08:00:52Z</time>
      </trkpt>
      <trkpt lat="44.04731" lon="7.20201">
        <ele>1899</ele>
        <time>2013-08-31T08:01:10Z</time>
      </trkpt>
      <trkpt lat="44.04728" lon="7.20188">
        <ele>1899</ele>
        <time>2013-08-31T08:01:41Z</time>
      </trkpt>
      <trkpt lat="44.04728" lon="7.20176">
        <ele>1905</ele>
        <time>2013-08-31T08:02:10Z</time>
      </trkpt>
      <trkpt lat="44.04722" lon="7.20166">
        <ele>1905</ele>
        <time>2013-08-31T08:02:22Z</time>
      </trkpt>
      <trkpt lat="44.04718" lon="7.20154">
        <ele>1895</ele>
        <time>2013-08-31T08:02:29Z</time>
      </trkpt>
      <trkpt lat="44.04722" lon="7.20143">
        <ele>1905</ele>
        <time>2013-08-31T08:02:58Z</time>
      </trkpt>
      <trkpt lat="44.04713" lon="7.2015">
        <ele>1910</ele>
        <time>2013-08-31T08:03:29Z</time>
      </trkpt>
      <trkpt lat="44.04708" lon="7.2016">
        <ele>1910</ele>
        <time>2013-08-31T08:03:48Z</time>
      </trkpt>
      <trkpt lat="44.04699" lon="7.20166">
        <ele>1916</ele>
        <time>2013-08-31T08:04:02Z</time>
      </trkpt>
      <trkpt lat="44.047" lon="7.20153">
        <ele>1916</ele>
        <time>2013-08-31T08:05:59Z</time>
      </trkpt>
      <trkpt lat="44.04705" lon="7.20163">
        <ele>1905</ele>
        <time>2013-08-31T08:13:15Z</time>
      </trkpt>
      <trkpt lat="44.047" lon="7.20153">
        <ele>1905</ele>
        <time>2013-08-31T08:14:53Z</time>
      </trkpt>
      <trkpt lat="44.04691" lon="7.20159">
        <ele>1905</ele>
        <time>2013-08-31T08:15:27Z</time>
      </trkpt>
      <trkpt lat="44.04684" lon="7.20168">
        <ele>1905</ele>
        <time>2013-08-31T08:15:37Z</time>
      </trkpt>
      <trkpt lat="44.04676" lon="7.20171">
        <ele>1905</ele>
        <time>2013-08-31T08:15:47Z</time>
      </trkpt>
      <trkpt lat="44.04666" lon="7.20172">
        <ele>1905</ele>
        <time>2013-08-31T08:15:56Z</time>
      </trkpt>
      <trkpt lat="44.04656" lon="7.20173">
        <ele>1905</ele>
        <time>2013-08-31T08:16:05Z</time>
      </trkpt>
      <trkpt lat="44.04647" lon="7.20176">
        <ele>1905</ele>
        <time>2013-08-31T08:16:13Z</time>
      </trkpt>
      <trkpt lat="44.04638" lon="7.20175">
        <ele>1905</ele>
        <time>2013-08-31T08:16:21Z</time>
      </trkpt>
      <trkpt lat="44.04628" lon="7.20176">
        <ele>1905</ele>
        <time>2013-08-31T08:16:28Z</time>
      </trkpt>
      <trkpt lat="44.04619" lon="7.2018">
        <ele>1905</ele>
        <time>2013-08-31T08:16:36Z</time>
      </trkpt>
      <trkpt lat="44.04611" lon="7.20187">
        <ele>1905</ele>
        <time>2013-08-31T08:16:45Z</time>
      </trkpt>
      <trkpt lat="44.04603" lon="7.20193">
        <ele>1898</ele>
        <time>2013-08-31T08:17:04Z</time>
      </trkpt>
      <trkpt lat="44.04594" lon="7.20198">
        <ele>1898</ele>
        <time>2013-08-31T08:17:15Z</time>
      </trkpt>
      <trkpt lat="44.04585" lon="7.20204">
        <ele>1898</ele>
        <time>2013-08-31T08:17:26Z</time>
      </trkpt>
      <trkpt lat="44.04578" lon="7.20211">
        <ele>1898</ele>
        <time>2013-08-31T08:17:36Z</time>
      </trkpt>
      <trkpt lat="44.0457" lon="7.20217">
        <ele>1898</ele>
        <time>2013-08-31T08:17:45Z</time>
      </trkpt>
      <trkpt lat="44.04561" lon="7.20223">
        <ele>1898</ele>
        <time>2013-08-31T08:17:53Z</time>
      </trkpt>
      <trkpt lat="44.04552" lon="7.2023">
        <ele>1892</ele>
        <time>2013-08-31T08:18:01Z</time>
      </trkpt>
      <trkpt lat="44.04544" lon="7.20234">
        <ele>1892</ele>
        <time>2013-08-31T08:18:09Z</time>
      </trkpt>
      <trkpt lat="44.04536" lon="7.2024">
        <ele>1892</ele>
        <time>2013-08-31T08:18:16Z</time>
      </trkpt>
      <trkpt lat="44.04528" lon="7.20247">
        <ele>1892</ele>
        <time>2013-08-31T08:18:24Z</time>
      </trkpt>
      <trkpt lat="44.04521" lon="7.20256">
        <ele>1892</ele>
        <time>2013-08-31T08:18:33Z</time>
      </trkpt>
      <trkpt lat="44.04513" lon="7.20263">
        <ele>1892</ele>
        <time>2013-08-31T08:18:41Z</time>
      </trkpt>
      <trkpt lat="44.04505" lon="7.20273">
        <ele>1892</ele>
        <time>2013-08-31T08:18:51Z</time>
      </trkpt>
      <trkpt lat="44.045" lon="7.20283">
        <ele>1892</ele>
        <time>2013-08-31T08:18:58Z</time>
      </trkpt>
      <trkpt lat="44.04493" lon="7.20292">
        <ele>1892</ele>
        <time>2013-08-31T08:19:06Z</time>
      </trkpt>
      <trkpt lat="44.04489" lon="7.20304">
        <ele>1892</ele>
        <time>2013-08-31T08:19:15Z</time>
      </trkpt>
      <trkpt lat="44.04484" lon="7.20316">
        <ele>1892</ele>
        <time>2013-08-31T08:19:26Z</time>
      </trkpt>
      <trkpt lat="44.04479" lon="7.20326">
        <ele>1892</ele>
        <time>2013-08-31T08:19:40Z</time>
      </trkpt>
      <trkpt lat="44.04471" lon="7.20335">
        <ele>1892</ele>
        <time>2013-08-31T08:19:50Z</time>
      </trkpt>
      <trkpt lat="44.04465" lon="7.20344">
        <ele>1892</ele>
        <time>2013-08-31T08:20:01Z</time>
      </trkpt>
      <trkpt lat="44.04458" lon="7.20353">
        <ele>1892</ele>
        <time>2013-08-31T08:20:11Z</time>
      </trkpt>
      <trkpt lat="44.04452" lon="7.20362">
        <ele>1892</ele>
        <time>2013-08-31T08:20:23Z</time>
      </trkpt>
      <trkpt lat="44.04444" lon="7.20368">
        <ele>1892</ele>
        <time>2013-08-31T08:20:34Z</time>
      </trkpt>
      <trkpt lat="44.04437" lon="7.20377">
        <ele>1892</ele>
        <time>2013-08-31T08:20:47Z</time>
      </trkpt>
      <trkpt lat="44.04428" lon="7.20383">
        <ele>1897</ele>
        <time>2013-08-31T08:20:58Z</time>
      </trkpt>
      <trkpt lat="44.04421" lon="7.20391">
        <ele>1897</ele>
        <time>2013-08-31T08:21:07Z</time>
      </trkpt>
      <trkpt lat="44.04412" lon="7.20395">
        <ele>1903</ele>
        <time>2013-08-31T08:21:17Z</time>
      </trkpt>
      <trkpt lat="44.04403" lon="7.20401">
        <ele>1903</ele>
        <time>2013-08-31T08:21:26Z</time>
      </trkpt>
      <trkpt lat="44.04396" lon="7.20408">
        <ele>1903</ele>
        <time>2013-08-31T08:21:36Z</time>
      </trkpt>
      <trkpt lat="44.04387" lon="7.20415">
        <ele>1903</ele>
        <time>2013-08-31T08:21:46Z</time>
      </trkpt>
      <trkpt lat="44.04379" lon="7.20421">
        <ele>1903</ele>
        <time>2013-08-31T08:21:55Z</time>
      </trkpt>
      <trkpt lat="44.04371" lon="7.20428">
        <ele>1903</ele>
        <time>2013-08-31T08:22:04Z</time>
      </trkpt>
      <trkpt lat="44.04363" lon="7.20432">
        <ele>1903</ele>
        <time>2013-08-31T08:22:12Z</time>
      </trkpt>
      <trkpt lat="44.04354" lon="7.20437">
        <ele>1903</ele>
        <time>2013-08-31T08:22:25Z</time>
      </trkpt>
      <trkpt lat="44.04346" lon="7.20444">
        <ele>1903</ele>
        <time>2013-08-31T08:22:36Z</time>
      </trkpt>
      <trkpt lat="44.04337" lon="7.20444">
        <ele>1903</ele>
        <time>2013-08-31T08:22:47Z</time>
      </trkpt>
      <trkpt lat="44.04329" lon="7.20449">
        <ele>1903</ele>
        <time>2013-08-31T08:23:00Z</time>
      </trkpt>
      <trkpt lat="44.0432" lon="7.20451">
        <ele>1909</ele>
        <time>2013-08-31T08:23:13Z</time>
      </trkpt>
      <trkpt lat="44.04311" lon="7.20457">
        <ele>1909</ele>
        <time>2013-08-31T08:23:26Z</time>
      </trkpt>
      <trkpt lat="44.04304" lon="7.20463">
        <ele>1909</ele>
        <time>2013-08-31T08:23:36Z</time>
      </trkpt>
      <trkpt lat="44.04295" lon="7.20465">
        <ele>1915</ele>
        <time>2013-08-31T08:23:47Z</time>
      </trkpt>
      <trkpt lat="44.04286" lon="7.2047">
        <ele>1915</ele>
        <time>2013-08-31T08:24:02Z</time>
      </trkpt>
      <trkpt lat="44.04278" lon="7.20474">
        <ele>1915</ele>
        <time>2013-08-31T08:24:13Z</time>
      </trkpt>
      <trkpt lat="44.04269" lon="7.20479">
        <ele>1915</ele>
        <time>2013-08-31T08:24:27Z</time>
      </trkpt>
      <trkpt lat="44.0426" lon="7.2048">
        <ele>1915</ele>
        <time>2013-08-31T08:24:38Z</time>
      </trkpt>
      <trkpt lat="44.04251" lon="7.20478">
        <ele>1915</ele>
        <time>2013-08-31T08:24:51Z</time>
      </trkpt>
      <trkpt lat="44.04242" lon="7.20478">
        <ele>1915</ele>
        <time>2013-08-31T08:25:05Z</time>
      </trkpt>
      <trkpt lat="44.04233" lon="7.20478">
        <ele>1915</ele>
        <time>2013-08-31T08:25:18Z</time>
      </trkpt>
      <trkpt lat="44.04225" lon="7.20474">
        <ele>1915</ele>
        <time>2013-08-31T08:25:30Z</time>
      </trkpt>
      <trkpt lat="44.04215" lon="7.20472">
        <ele>1915</ele>
        <time>2013-08-31T08:25:41Z</time>
      </trkpt>
      <trkpt lat="44.04205" lon="7.20473">
        <ele>1915</ele>
        <time>2013-08-31T08:25:51Z</time>
      </trkpt>
      <trkpt lat="44.04196" lon="7.20472">
        <ele>1915</ele>
        <time>2013-08-31T08:26:01Z</time>
      </trkpt>
      <trkpt lat="44.04187" lon="7.20472">
        <ele>1915</ele>
        <time>2013-08-31T08:26:11Z</time>
      </trkpt>
      <trkpt lat="44.04177" lon="7.20472">
        <ele>1915</ele>
        <time>2013-08-31T08:26:21Z</time>
      </trkpt>
      <trkpt lat="44.04169" lon="7.20478">
        <ele>1921</ele>
        <time>2013-08-31T08:26:32Z</time>
      </trkpt>
      <trkpt lat="44.0416" lon="7.2048">
        <ele>1921</ele>
        <time>2013-08-31T08:26:43Z</time>
      </trkpt>
      <trkpt lat="44.04151" lon="7.20486">
        <ele>1921</ele>
        <time>2013-08-31T08:26:56Z</time>
      </trkpt>
      <trkpt lat="44.04142" lon="7.20487">
        <ele>1921</ele>
        <time>2013-08-31T08:27:07Z</time>
      </trkpt>
      <trkpt lat="44.04134" lon="7.20481">
        <ele>1928</ele>
        <time>2013-08-31T08:27:20Z</time>
      </trkpt>
      <trkpt lat="44.04125" lon="7.20479">
        <ele>1928</ele>
        <time>2013-08-31T08:27:31Z</time>
      </trkpt>
      <trkpt lat="44.04116" lon="7.20476">
        <ele>1928</ele>
        <time>2013-08-31T08:27:40Z</time>
      </trkpt>
      <trkpt lat="44.04107" lon="7.20477">
        <ele>1928</ele>
        <time>2013-08-31T08:27:51Z</time>
      </trkpt>
      <trkpt lat="44.04098" lon="7.2048">
        <ele>1928</ele>
        <time>2013-08-31T08:28:01Z</time>
      </trkpt>
      <trkpt lat="44.0409" lon="7.20485">
        <ele>1928</ele>
        <time>2013-08-31T08:28:10Z</time>
      </trkpt>
      <trkpt lat="44.04081" lon="7.20481">
        <ele>1928</ele>
        <time>2013-08-31T08:28:24Z</time>
      </trkpt>
      <trkpt lat="44.04075" lon="7.20472">
        <ele>1928</ele>
        <time>2013-08-31T08:28:33Z</time>
      </trkpt>
      <trkpt lat="44.04068" lon="7.20463">
        <ele>1936</ele>
        <time>2013-08-31T08:28:49Z</time>
      </trkpt>
      <trkpt lat="44.0406" lon="7.20459">
        <ele>1936</ele>
        <time>2013-08-31T08:29:03Z</time>
      </trkpt>
      <trkpt lat="44.04052" lon="7.20453">
        <ele>1936</ele>
        <time>2013-08-31T08:29:17Z</time>
      </trkpt>
      <trkpt lat="44.04043" lon="7.2045">
        <ele>1942</ele>
        <time>2013-08-31T08:29:40Z</time>
      </trkpt>
      <trkpt lat="44.04034" lon="7.20447">
        <ele>1942</ele>
        <time>2013-08-31T08:30:02Z</time>
      </trkpt>
      <trkpt lat="44.04026" lon="7.20443">
        <ele>1942</ele>
        <time>2013-08-31T08:30:23Z</time>
      </trkpt>
      <trkpt lat="44.04017" lon="7.20438">
        <ele>1951</ele>
        <time>2013-08-31T08:30:51Z</time>
      </trkpt>
      <trkpt lat="44.04009" lon="7.20433">
        <ele>1951</ele>
        <time>2013-08-31T08:31:09Z</time>
      </trkpt>
      <trkpt lat="44.03999" lon="7.20431">
        <ele>1951</ele>
        <time>2013-08-31T08:31:27Z</time>
      </trkpt>
      <trkpt lat="44.0399" lon="7.20429">
        <ele>1951</ele>
        <time>2013-08-31T08:31:50Z</time>
      </trkpt>
      <trkpt lat="44.03982" lon="7.20423">
        <ele>1958</ele>
        <time>2013-08-31T08:32:08Z</time>
      </trkpt>
      <trkpt lat="44.03974" lon="7.20419">
        <ele>1958</ele>
        <time>2013-08-31T08:32:27Z</time>
      </trkpt>
      <trkpt lat="44.03965" lon="7.20415">
        <ele>1965</ele>
        <time>2013-08-31T08:32:47Z</time>
      </trkpt>
      <trkpt lat="44.03957" lon="7.20408">
        <ele>1965</ele>
        <time>2013-08-31T08:33:04Z</time>
      </trkpt>
      <trkpt lat="44.03948" lon="7.2041">
        <ele>1965</ele>
        <time>2013-08-31T08:33:21Z</time>
      </trkpt>
      <trkpt lat="44.03939" lon="7.20412">
        <ele>1965</ele>
        <time>2013-08-31T08:33:37Z</time>
      </trkpt>
      <trkpt lat="44.03932" lon="7.20422">
        <ele>1965</ele>
        <time>2013-08-31T08:34:51Z</time>
      </trkpt>
      <trkpt lat="44.03929" lon="7.20434">
        <ele>1965</ele>
        <time>2013-08-31T08:35:01Z</time>
      </trkpt>
      <trkpt lat="44.03926" lon="7.20445">
        <ele>1965</ele>
        <time>2013-08-31T08:35:11Z</time>
      </trkpt>
      <trkpt lat="44.03926" lon="7.20458">
        <ele>1965</ele>
        <time>2013-08-31T08:35:21Z</time>
      </trkpt>
      <trkpt lat="44.03925" lon="7.2047">
        <ele>1965</ele>
        <time>2013-08-31T08:35:31Z</time>
      </trkpt>
      <trkpt lat="44.03925" lon="7.20483">
        <ele>1965</ele>
        <time>2013-08-31T08:35:40Z</time>
      </trkpt>
      <trkpt lat="44.03926" lon="7.20497">
        <ele>1965</ele>
        <time>2013-08-31T08:35:49Z</time>
      </trkpt>
      <trkpt lat="44.03923" lon="7.20508">
        <ele>1965</ele>
        <time>2013-08-31T08:35:58Z</time>
      </trkpt>
      <trkpt lat="44.03918" lon="7.20519">
        <ele>1965</ele>
        <time>2013-08-31T08:36:06Z</time>
      </trkpt>
      <trkpt lat="44.03913" lon="7.2053">
        <ele>1965</ele>
        <time>2013-08-31T08:36:13Z</time>
      </trkpt>
      <trkpt lat="44.03908" lon="7.2054">
        <ele>1965</ele>
        <time>2013-08-31T08:36:21Z</time>
      </trkpt>
      <trkpt lat="44.03902" lon="7.2055">
        <ele>1965</ele>
        <time>2013-08-31T08:36:29Z</time>
      </trkpt>
      <trkpt lat="44.03895" lon="7.20557">
        <ele>1965</ele>
        <time>2013-08-31T08:36:38Z</time>
      </trkpt>
      <trkpt lat="44.03891" lon="7.20568">
        <ele>1958</ele>
        <time>2013-08-31T08:36:46Z</time>
      </trkpt>
      <trkpt lat="44.03886" lon="7.20579">
        <ele>1958</ele>
        <time>2013-08-31T08:36:54Z</time>
      </trkpt>
      <trkpt lat="44.03879" lon="7.20588">
        <ele>1958</ele>
        <time>2013-08-31T08:37:01Z</time>
      </trkpt>
      <trkpt lat="44.03875" lon="7.206">
        <ele>1958</ele>
        <time>2013-08-31T08:37:11Z</time>
      </trkpt>
      <trkpt lat="44.0387" lon="7.20612">
        <ele>1964</ele>
        <time>2013-08-31T08:37:21Z</time>
      </trkpt>
      <trkpt lat="44.03867" lon="7.20623">
        <ele>1964</ele>
        <time>2013-08-31T08:37:32Z</time>
      </trkpt>
      <trkpt lat="44.03862" lon="7.20634">
        <ele>1964</ele>
        <time>2013-08-31T08:37:47Z</time>
      </trkpt>
      <trkpt lat="44.03858" lon="7.20646">
        <ele>1964</ele>
        <time>2013-08-31T08:38:03Z</time>
      </trkpt>
      <trkpt lat="44.03854" lon="7.20656">
        <ele>1969</ele>
        <time>2013-08-31T08:38:16Z</time>
      </trkpt>
      <trkpt lat="44.03849" lon="7.20666">
        <ele>1969</ele>
        <time>2013-08-31T08:38:33Z</time>
      </trkpt>
      <trkpt lat="44.03845" lon="7.20678">
        <ele>1969</ele>
        <time>2013-08-31T08:38:47Z</time>
      </trkpt>
      <trkpt lat="44.0384" lon="7.20689">
        <ele>1969</ele>
        <time>2013-08-31T08:38:58Z</time>
      </trkpt>
      <trkpt lat="44.03836" lon="7.207">
        <ele>1969</ele>
        <time>2013-08-31T08:39:11Z</time>
      </trkpt>
      <trkpt lat="44.03831" lon="7.2071">
        <ele>1976</ele>
        <time>2013-08-31T08:39:25Z</time>
      </trkpt>
      <trkpt lat="44.03829" lon="7.20723">
        <ele>1976</ele>
        <time>2013-08-31T08:39:38Z</time>
      </trkpt>
      <trkpt lat="44.03827" lon="7.20735">
        <ele>1976</ele>
        <time>2013-08-31T08:39:52Z</time>
      </trkpt>
      <trkpt lat="44.03824" lon="7.20748">
        <ele>1976</ele>
        <time>2013-08-31T08:40:03Z</time>
      </trkpt>
      <trkpt lat="44.0382" lon="7.2076">
        <ele>1976</ele>
        <time>2013-08-31T08:40:14Z</time>
      </trkpt>
      <trkpt lat="44.03814" lon="7.20771">
        <ele>1976</ele>
        <time>2013-08-31T08:40:25Z</time>
      </trkpt>
      <trkpt lat="44.0381" lon="7.20782">
        <ele>1982</ele>
        <time>2013-08-31T08:40:35Z</time>
      </trkpt>
      <trkpt lat="44.03805" lon="7.20793">
        <ele>1982</ele>
        <time>2013-08-31T08:40:45Z</time>
      </trkpt>
      <trkpt lat="44.03799" lon="7.20803">
        <ele>1982</ele>
        <time>2013-08-31T08:40:55Z</time>
      </trkpt>
      <trkpt lat="44.03794" lon="7.20813">
        <ele>1982</ele>
        <time>2013-08-31T08:41:04Z</time>
      </trkpt>
      <trkpt lat="44.03788" lon="7.20823">
        <ele>1982</ele>
        <time>2013-08-31T08:41:14Z</time>
      </trkpt>
      <trkpt lat="44.03781" lon="7.20832">
        <ele>1982</ele>
        <time>2013-08-31T08:41:24Z</time>
      </trkpt>
      <trkpt lat="44.03775" lon="7.20841">
        <ele>1982</ele>
        <time>2013-08-31T08:41:34Z</time>
      </trkpt>
      <trkpt lat="44.03769" lon="7.20851">
        <ele>1982</ele>
        <time>2013-08-31T08:41:46Z</time>
      </trkpt>
      <trkpt lat="44.03763" lon="7.20861">
        <ele>1989</ele>
        <time>2013-08-31T08:41:58Z</time>
      </trkpt>
      <trkpt lat="44.03756" lon="7.20869">
        <ele>1989</ele>
        <time>2013-08-31T08:42:11Z</time>
      </trkpt>
      <trkpt lat="44.03749" lon="7.20877">
        <ele>1989</ele>
        <time>2013-08-31T08:42:22Z</time>
      </trkpt>
      <trkpt lat="44.03742" lon="7.20887">
        <ele>1989</ele>
        <time>2013-08-31T08:42:33Z</time>
      </trkpt>
      <trkpt lat="44.03733" lon="7.20889">
        <ele>1989</ele>
        <time>2013-08-31T08:42:45Z</time>
      </trkpt>
      <trkpt lat="44.03724" lon="7.20887">
        <ele>1989</ele>
        <time>2013-08-31T08:43:00Z</time>
      </trkpt>
      <trkpt lat="44.03714" lon="7.20883">
        <ele>1994</ele>
        <time>2013-08-31T08:43:10Z</time>
      </trkpt>
      <trkpt lat="44.03704" lon="7.20884">
        <ele>1994</ele>
        <time>2013-08-31T08:43:21Z</time>
      </trkpt>
      <trkpt lat="44.03696" lon="7.20888">
        <ele>1994</ele>
        <time>2013-08-31T08:43:29Z</time>
      </trkpt>
      <trkpt lat="44.03687" lon="7.20892">
        <ele>1994</ele>
        <time>2013-08-31T08:43:37Z</time>
      </trkpt>
      <trkpt lat="44.03679" lon="7.20899">
        <ele>1988</ele>
        <time>2013-08-31T08:43:46Z</time>
      </trkpt>
      <trkpt lat="44.0367" lon="7.20903">
        <ele>1988</ele>
        <time>2013-08-31T08:43:54Z</time>
      </trkpt>
      <trkpt lat="44.03661" lon="7.20902">
        <ele>1988</ele>
        <time>2013-08-31T08:44:02Z</time>
      </trkpt>
      <trkpt lat="44.03652" lon="7.20905">
        <ele>1988</ele>
        <time>2013-08-31T08:44:12Z</time>
      </trkpt>
      <trkpt lat="44.03643" lon="7.20906">
        <ele>1988</ele>
        <time>2013-08-31T08:44:20Z</time>
      </trkpt>
      <trkpt lat="44.03633" lon="7.20907">
        <ele>1988</ele>
        <time>2013-08-31T08:44:28Z</time>
      </trkpt>
      <trkpt lat="44.03624" lon="7.20912">
        <ele>1988</ele>
        <time>2013-08-31T08:44:37Z</time>
      </trkpt>
      <trkpt lat="44.03616" lon="7.20917">
        <ele>1988</ele>
        <time>2013-08-31T08:44:46Z</time>
      </trkpt>
      <trkpt lat="44.03609" lon="7.20925">
        <ele>1988</ele>
        <time>2013-08-31T08:44:54Z</time>
      </trkpt>
      <trkpt lat="44.03607" lon="7.20938">
        <ele>1988</ele>
        <time>2013-08-31T08:45:02Z</time>
      </trkpt>
      <trkpt lat="44.03602" lon="7.20949">
        <ele>1988</ele>
        <time>2013-08-31T08:45:15Z</time>
      </trkpt>
      <trkpt lat="44.03602" lon="7.20962">
        <ele>1995</ele>
        <time>2013-08-31T08:45:23Z</time>
      </trkpt>
      <trkpt lat="44.03599" lon="7.20974">
        <ele>1995</ele>
        <time>2013-08-31T08:45:34Z</time>
      </trkpt>
      <trkpt lat="44.03592" lon="7.20981">
        <ele>1987</ele>
        <time>2013-08-31T08:45:45Z</time>
      </trkpt>
      <trkpt lat="44.03588" lon="7.20992">
        <ele>1987</ele>
        <time>2013-08-31T08:45:55Z</time>
      </trkpt>
      <trkpt lat="44.0358" lon="7.20999">
        <ele>1987</ele>
        <time>2013-08-31T08:46:08Z</time>
      </trkpt>
      <trkpt lat="44.03571" lon="7.21004">
        <ele>1987</ele>
        <time>2013-08-31T08:46:25Z</time>
      </trkpt>
      <trkpt lat="44.03564" lon="7.20998">
        <ele>1987</ele>
        <time>2013-08-31T08:46:34Z</time>
      </trkpt>
      <trkpt lat="44.03556" lon="7.21008">
        <ele>1987</ele>
        <time>2013-08-31T08:46:44Z</time>
      </trkpt>
      <trkpt lat="44.0355" lon="7.21017">
        <ele>1993</ele>
        <time>2013-08-31T08:46:55Z</time>
      </trkpt>
      <trkpt lat="44.03542" lon="7.21025">
        <ele>1993</ele>
        <time>2013-08-31T08:47:04Z</time>
      </trkpt>
      <trkpt lat="44.03533" lon="7.21024">
        <ele>1993</ele>
        <time>2013-08-31T08:47:14Z</time>
      </trkpt>
      <trkpt lat="44.03525" lon="7.21028">
        <ele>1993</ele>
        <time>2013-08-31T08:47:26Z</time>
      </trkpt>
      <trkpt lat="44.03516" lon="7.21035">
        <ele>1993</ele>
        <time>2013-08-31T08:47:36Z</time>
      </trkpt>
      <trkpt lat="44.03507" lon="7.21039">
        <ele>1999</ele>
        <time>2013-08-31T08:47:47Z</time>
      </trkpt>
      <trkpt lat="44.03499" lon="7.21045">
        <ele>1999</ele>
        <time>2013-08-31T08:47:55Z</time>
      </trkpt>
      <trkpt lat="44.0349" lon="7.21051">
        <ele>1999</ele>
        <time>2013-08-31T08:48:05Z</time>
      </trkpt>
      <trkpt lat="44.03482" lon="7.21055">
        <ele>1999</ele>
        <time>2013-08-31T08:48:17Z</time>
      </trkpt>
      <trkpt lat="44.03473" lon="7.2106">
        <ele>1999</ele>
        <time>2013-08-31T08:48:27Z</time>
      </trkpt>
      <trkpt lat="44.03464" lon="7.21062">
        <ele>1999</ele>
        <time>2013-08-31T08:48:42Z</time>
      </trkpt>
      <trkpt lat="44.03455" lon="7.21068">
        <ele>2006</ele>
        <time>2013-08-31T08:48:56Z</time>
      </trkpt>
      <trkpt lat="44.03447" lon="7.21072">
        <ele>2006</ele>
        <time>2013-08-31T08:49:10Z</time>
      </trkpt>
      <trkpt lat="44.03438" lon="7.21078">
        <ele>2006</ele>
        <time>2013-08-31T08:49:24Z</time>
      </trkpt>
      <trkpt lat="44.03429" lon="7.2108">
        <ele>2006</ele>
        <time>2013-08-31T08:49:35Z</time>
      </trkpt>
      <trkpt lat="44.03422" lon="7.21087">
        <ele>2006</ele>
        <time>2013-08-31T08:49:46Z</time>
      </trkpt>
      <trkpt lat="44.03414" lon="7.21093">
        <ele>2006</ele>
        <time>2013-08-31T08:49:58Z</time>
      </trkpt>
      <trkpt lat="44.03405" lon="7.21096">
        <ele>2006</ele>
        <time>2013-08-31T08:50:09Z</time>
      </trkpt>
      <trkpt lat="44.03396" lon="7.21101">
        <ele>2006</ele>
        <time>2013-08-31T08:50:26Z</time>
      </trkpt>
      <trkpt lat="44.03387" lon="7.21104">
        <ele>2011</ele>
        <time>2013-08-31T08:50:42Z</time>
      </trkpt>
      <trkpt lat="44.0338" lon="7.21111">
        <ele>2011</ele>
        <time>2013-08-31T08:50:57Z</time>
      </trkpt>
      <trkpt lat="44.03372" lon="7.21115">
        <ele>2016</ele>
        <time>2013-08-31T08:51:09Z</time>
      </trkpt>
      <trkpt lat="44.03363" lon="7.2112">
        <ele>2016</ele>
        <time>2013-08-31T08:51:20Z</time>
      </trkpt>
      <trkpt lat="44.03354" lon="7.21119">
        <ele>2016</ele>
        <time>2013-08-31T08:51:29Z</time>
      </trkpt>
      <trkpt lat="44.03345" lon="7.21118">
        <ele>2016</ele>
        <time>2013-08-31T08:51:38Z</time>
      </trkpt>
      <trkpt lat="44.03337" lon="7.21111">
        <ele>2016</ele>
        <time>2013-08-31T08:51:46Z</time>
      </trkpt>
      <trkpt lat="44.03328" lon="7.21108">
        <ele>2016</ele>
        <time>2013-08-31T08:51:59Z</time>
      </trkpt>
      <trkpt lat="44.03322" lon="7.21099">
        <ele>2016</ele>
        <time>2013-08-31T08:52:14Z</time>
      </trkpt>
      <trkpt lat="44.03313" lon="7.21096">
        <ele>2016</ele>
        <time>2013-08-31T08:52:33Z</time>
      </trkpt>
      <trkpt lat="44.03304" lon="7.21096">
        <ele>2016</ele>
        <time>2013-08-31T08:52:42Z</time>
      </trkpt>
      <trkpt lat="44.03295" lon="7.21098">
        <ele>2016</ele>
        <time>2013-08-31T08:52:50Z</time>
      </trkpt>
      <trkpt lat="44.03286" lon="7.21102">
        <ele>2016</ele>
        <time>2013-08-31T08:52:58Z</time>
      </trkpt>
      <trkpt lat="44.03278" lon="7.21108">
        <ele>2016</ele>
        <time>2013-08-31T08:53:07Z</time>
      </trkpt>
      <trkpt lat="44.0327" lon="7.21115">
        <ele>2016</ele>
        <time>2013-08-31T08:53:39Z</time>
      </trkpt>
      <trkpt lat="44.0326" lon="7.21118">
        <ele>2016</ele>
        <time>2013-08-31T08:53:47Z</time>
      </trkpt>
      <trkpt lat="44.03253" lon="7.21125">
        <ele>2016</ele>
        <time>2013-08-31T08:53:59Z</time>
      </trkpt>
      <trkpt lat="44.03248" lon="7.21136">
        <ele>2016</ele>
        <time>2013-08-31T08:54:08Z</time>
      </trkpt>
      <trkpt lat="44.03243" lon="7.21147">
        <ele>2016</ele>
        <time>2013-08-31T08:54:16Z</time>
      </trkpt>
      <trkpt lat="44.03236" lon="7.21154">
        <ele>2016</ele>
        <time>2013-08-31T08:54:24Z</time>
      </trkpt>
      <trkpt lat="44.0323" lon="7.21166">
        <ele>2011</ele>
        <time>2013-08-31T08:54:33Z</time>
      </trkpt>
      <trkpt lat="44.03223" lon="7.21176">
        <ele>2011</ele>
        <time>2013-08-31T08:54:42Z</time>
      </trkpt>
      <trkpt lat="44.03217" lon="7.21186">
        <ele>2011</ele>
        <time>2013-08-31T08:54:50Z</time>
      </trkpt>
      <trkpt lat="44.03214" lon="7.21198">
        <ele>2011</ele>
        <time>2013-08-31T08:54:59Z</time>
      </trkpt>
      <trkpt lat="44.03208" lon="7.21208">
        <ele>2011</ele>
        <time>2013-08-31T08:55:08Z</time>
      </trkpt>
      <trkpt lat="44.03204" lon="7.2122">
        <ele>2004</ele>
        <time>2013-08-31T08:56:20Z</time>
      </trkpt>
      <trkpt lat="44.03203" lon="7.21232">
        <ele>2004</ele>
        <time>2013-08-31T08:56:33Z</time>
      </trkpt>
      <trkpt lat="44.03202" lon="7.21246">
        <ele>2004</ele>
        <time>2013-08-31T08:56:42Z</time>
      </trkpt>
      <trkpt lat="44.03205" lon="7.21257">
        <ele>1998</ele>
        <time>2013-08-31T08:56:55Z</time>
      </trkpt>
      <trkpt lat="44.03206" lon="7.2127">
        <ele>1998</ele>
        <time>2013-08-31T08:57:05Z</time>
      </trkpt>
      <trkpt lat="44.03209" lon="7.21283">
        <ele>1988</ele>
        <time>2013-08-31T08:57:16Z</time>
      </trkpt>
      <trkpt lat="44.03212" lon="7.21296">
        <ele>1988</ele>
        <time>2013-08-31T08:57:25Z</time>
      </trkpt>
      <trkpt lat="44.03211" lon="7.21309">
        <ele>1982</ele>
        <time>2013-08-31T08:57:34Z</time>
      </trkpt>
      <trkpt lat="44.03211" lon="7.21322">
        <ele>1982</ele>
        <time>2013-08-31T08:57:43Z</time>
      </trkpt>
      <trkpt lat="44.03214" lon="7.21334">
        <ele>1982</ele>
        <time>2013-08-31T08:57:51Z</time>
      </trkpt>
      <trkpt lat="44.03214" lon="7.21347">
        <ele>1982</ele>
        <time>2013-08-31T08:58:01Z</time>
      </trkpt>
      <trkpt lat="44.03214" lon="7.2136">
        <ele>1976</ele>
        <time>2013-08-31T08:58:10Z</time>
      </trkpt>
      <trkpt lat="44.03213" lon="7.21374">
        <ele>1976</ele>
        <time>2013-08-31T08:58:19Z</time>
      </trkpt>
      <trkpt lat="44.03214" lon="7.21387">
        <ele>1976</ele>
        <time>2013-08-31T08:58:28Z</time>
      </trkpt>
      <trkpt lat="44.03212" lon="7.21399">
        <ele>1976</ele>
        <time>2013-08-31T08:58:37Z</time>
      </trkpt>
      <trkpt lat="44.0321" lon="7.21413">
        <ele>1976</ele>
        <time>2013-08-31T08:58:47Z</time>
      </trkpt>
      <trkpt lat="44.03208" lon="7.21424">
        <ele>1976</ele>
        <time>2013-08-31T08:58:56Z</time>
      </trkpt>
      <trkpt lat="44.03206" lon="7.21437">
        <ele>1976</ele>
        <time>2013-08-31T08:59:05Z</time>
      </trkpt>
      <trkpt lat="44.03207" lon="7.2145">
        <ele>1968</ele>
        <time>2013-08-31T08:59:12Z</time>
      </trkpt>
      <trkpt lat="44.0321" lon="7.21461">
        <ele>1968</ele>
        <time>2013-08-31T08:59:20Z</time>
      </trkpt>
      <trkpt lat="44.03211" lon="7.21474">
        <ele>1968</ele>
        <time>2013-08-31T08:59:28Z</time>
      </trkpt>
      <trkpt lat="44.03209" lon="7.21486">
        <ele>1968</ele>
        <time>2013-08-31T08:59:40Z</time>
      </trkpt>
      <trkpt lat="44.03205" lon="7.21498">
        <ele>1962</ele>
        <time>2013-08-31T08:59:49Z</time>
      </trkpt>
      <trkpt lat="44.03199" lon="7.21508">
        <ele>1962</ele>
        <time>2013-08-31T08:59:57Z</time>
      </trkpt>
      <trkpt lat="44.0319" lon="7.21514">
        <ele>1962</ele>
        <time>2013-08-31T09:00:06Z</time>
      </trkpt>
      <trkpt lat="44.03183" lon="7.21521">
        <ele>1969</ele>
        <time>2013-08-31T09:00:15Z</time>
      </trkpt>
      <trkpt lat="44.03184" lon="7.21534">
        <ele>1969</ele>
        <time>2013-08-31T09:00:23Z</time>
      </trkpt>
      <trkpt lat="44.03177" lon="7.21541">
        <ele>1969</ele>
        <time>2013-08-31T09:00:33Z</time>
      </trkpt>
      <trkpt lat="44.03168" lon="7.21547">
        <ele>1969</ele>
        <time>2013-08-31T09:00:42Z</time>
      </trkpt>
      <trkpt lat="44.03161" lon="7.21555">
        <ele>1969</ele>
        <time>2013-08-31T09:00:51Z</time>
      </trkpt>
      <trkpt lat="44.03156" lon="7.21565">
        <ele>1960</ele>
        <time>2013-08-31T09:01:00Z</time>
      </trkpt>
      <trkpt lat="44.03151" lon="7.21574">
        <ele>1960</ele>
        <time>2013-08-31T09:01:09Z</time>
      </trkpt>
      <trkpt lat="44.03143" lon="7.21581">
        <ele>1960</ele>
        <time>2013-08-31T09:01:52Z</time>
      </trkpt>
      <trkpt lat="44.03136" lon="7.21588">
        <ele>1960</ele>
        <time>2013-08-31T09:02:02Z</time>
      </trkpt>
      <trkpt lat="44.03127" lon="7.21596">
        <ele>1960</ele>
        <time>2013-08-31T09:02:13Z</time>
      </trkpt>
      <trkpt lat="44.03118" lon="7.21601">
        <ele>1947</ele>
        <time>2013-08-31T09:03:01Z</time>
      </trkpt>
      <trkpt lat="44.03111" lon="7.2161">
        <ele>1957</ele>
        <time>2013-08-31T09:03:10Z</time>
      </trkpt>
      <trkpt lat="44.03104" lon="7.21619">
        <ele>1957</ele>
        <time>2013-08-31T09:03:19Z</time>
      </trkpt>
      <trkpt lat="44.03098" lon="7.21628">
        <ele>1957</ele>
        <time>2013-08-31T09:03:28Z</time>
      </trkpt>
      <trkpt lat="44.0309" lon="7.21636">
        <ele>1957</ele>
        <time>2013-08-31T09:03:39Z</time>
      </trkpt>
      <trkpt lat="44.03081" lon="7.21641">
        <ele>1950</ele>
        <time>2013-08-31T09:03:49Z</time>
      </trkpt>
      <trkpt lat="44.03072" lon="7.21643">
        <ele>1950</ele>
        <time>2013-08-31T09:03:58Z</time>
      </trkpt>
      <trkpt lat="44.03063" lon="7.21645">
        <ele>1950</ele>
        <time>2013-08-31T09:04:08Z</time>
      </trkpt>
      <trkpt lat="44.03055" lon="7.21649">
        <ele>1950</ele>
        <time>2013-08-31T09:04:18Z</time>
      </trkpt>
      <trkpt lat="44.03046" lon="7.21646">
        <ele>1950</ele>
        <time>2013-08-31T09:04:26Z</time>
      </trkpt>
      <trkpt lat="44.03038" lon="7.21653">
        <ele>1950</ele>
        <time>2013-08-31T09:04:34Z</time>
      </trkpt>
      <trkpt lat="44.03031" lon="7.21662">
        <ele>1942</ele>
        <time>2013-08-31T09:04:42Z</time>
      </trkpt>
      <trkpt lat="44.03027" lon="7.21673">
        <ele>1942</ele>
        <time>2013-08-31T09:04:50Z</time>
      </trkpt>
      <trkpt lat="44.03024" lon="7.21685">
        <ele>1942</ele>
        <time>2013-08-31T09:04:57Z</time>
      </trkpt>
      <trkpt lat="44.0302" lon="7.21697">
        <ele>1942</ele>
        <time>2013-08-31T09:05:05Z</time>
      </trkpt>
      <trkpt lat="44.03014" lon="7.21706">
        <ele>1942</ele>
        <time>2013-08-31T09:05:15Z</time>
      </trkpt>
      <trkpt lat="44.03006" lon="7.21712">
        <ele>1942</ele>
        <time>2013-08-31T09:05:25Z</time>
      </trkpt>
      <trkpt lat="44.03002" lon="7.21724">
        <ele>1942</ele>
        <time>2013-08-31T09:05:37Z</time>
      </trkpt>
      <trkpt lat="44.02993" lon="7.21725">
        <ele>1942</ele>
        <time>2013-08-31T09:05:57Z</time>
      </trkpt>
      <trkpt lat="44.02985" lon="7.21718">
        <ele>1950</ele>
        <time>2013-08-31T09:06:12Z</time>
      </trkpt>
      <trkpt lat="44.02976" lon="7.2172">
        <ele>1950</ele>
        <time>2013-08-31T09:06:22Z</time>
      </trkpt>
      <trkpt lat="44.02969" lon="7.21729">
        <ele>1950</ele>
        <time>2013-08-31T09:06:34Z</time>
      </trkpt>
      <trkpt lat="44.02962" lon="7.21738">
        <ele>1939</ele>
        <time>2013-08-31T09:06:44Z</time>
      </trkpt>
      <trkpt lat="44.02955" lon="7.21747">
        <ele>1939</ele>
        <time>2013-08-31T09:06:54Z</time>
      </trkpt>
      <trkpt lat="44.02947" lon="7.21753">
        <ele>1939</ele>
        <time>2013-08-31T09:07:03Z</time>
      </trkpt>
      <trkpt lat="44.02936" lon="7.21754">
        <ele>1939</ele>
        <time>2013-08-31T09:07:13Z</time>
      </trkpt>
      <trkpt lat="44.02927" lon="7.21754">
        <ele>1939</ele>
        <time>2013-08-31T09:07:20Z</time>
      </trkpt>
      <trkpt lat="44.02918" lon="7.21751">
        <ele>1947</ele>
        <time>2013-08-31T09:07:40Z</time>
      </trkpt>
      <trkpt lat="44.02908" lon="7.21751">
        <ele>1947</ele>
        <time>2013-08-31T09:07:56Z</time>
      </trkpt>
      <trkpt lat="44.02899" lon="7.21751">
        <ele>1947</ele>
        <time>2013-08-31T09:08:48Z</time>
      </trkpt>
      <trkpt lat="44.02897" lon="7.21765">
        <ele>1947</ele>
        <time>2013-08-31T09:08:58Z</time>
      </trkpt>
      <trkpt lat="44.02894" lon="7.21777">
        <ele>1942</ele>
        <time>2013-08-31T09:09:08Z</time>
      </trkpt>
      <trkpt lat="44.02893" lon="7.21789">
        <ele>1942</ele>
        <time>2013-08-31T09:09:18Z</time>
      </trkpt>
      <trkpt lat="44.02893" lon="7.21802">
        <ele>1942</ele>
        <time>2013-08-31T09:09:27Z</time>
      </trkpt>
      <trkpt lat="44.02888" lon="7.21813">
        <ele>1942</ele>
        <time>2013-08-31T09:09:35Z</time>
      </trkpt>
      <trkpt lat="44.02882" lon="7.21822">
        <ele>1942</ele>
        <time>2013-08-31T09:09:43Z</time>
      </trkpt>
      <trkpt lat="44.02875" lon="7.21831">
        <ele>1942</ele>
        <time>2013-08-31T09:09:52Z</time>
      </trkpt>
      <trkpt lat="44.02868" lon="7.21839">
        <ele>1942</ele>
        <time>2013-08-31T09:10:00Z</time>
      </trkpt>
      <trkpt lat="44.02859" lon="7.21845">
        <ele>1936</ele>
        <time>2013-08-31T09:10:08Z</time>
      </trkpt>
      <trkpt lat="44.02851" lon="7.21849">
        <ele>1936</ele>
        <time>2013-08-31T09:10:15Z</time>
      </trkpt>
      <trkpt lat="44.02842" lon="7.21853">
        <ele>1936</ele>
        <time>2013-08-31T09:10:23Z</time>
      </trkpt>
      <trkpt lat="44.02832" lon="7.21856">
        <ele>1936</ele>
        <time>2013-08-31T09:10:32Z</time>
      </trkpt>
      <trkpt lat="44.02825" lon="7.21863">
        <ele>1936</ele>
        <time>2013-08-31T09:10:40Z</time>
      </trkpt>
      <trkpt lat="44.02818" lon="7.21872">
        <ele>1936</ele>
        <time>2013-08-31T09:10:48Z</time>
      </trkpt>
      <trkpt lat="44.02814" lon="7.21884">
        <ele>1936</ele>
        <time>2013-08-31T09:10:56Z</time>
      </trkpt>
      <trkpt lat="44.0281" lon="7.21895">
        <ele>1931</ele>
        <time>2013-08-31T09:11:05Z</time>
      </trkpt>
      <trkpt lat="44.02805" lon="7.21906">
        <ele>1931</ele>
        <time>2013-08-31T09:11:13Z</time>
      </trkpt>
      <trkpt lat="44.02803" lon="7.21918">
        <ele>1931</ele>
        <time>2013-08-31T09:11:20Z</time>
      </trkpt>
      <trkpt lat="44.02798" lon="7.21928">
        <ele>1931</ele>
        <time>2013-08-31T09:11:28Z</time>
      </trkpt>
      <trkpt lat="44.02793" lon="7.21938">
        <ele>1931</ele>
        <time>2013-08-31T09:11:35Z</time>
      </trkpt>
      <trkpt lat="44.02788" lon="7.21949">
        <ele>1931</ele>
        <time>2013-08-31T09:11:43Z</time>
      </trkpt>
      <trkpt lat="44.02783" lon="7.21959">
        <ele>1931</ele>
        <time>2013-08-31T09:11:51Z</time>
      </trkpt>
      <trkpt lat="44.02775" lon="7.21965">
        <ele>1931</ele>
        <time>2013-08-31T09:12:01Z</time>
      </trkpt>
      <trkpt lat="44.0277" lon="7.2198">
        <ele>1931</ele>
        <time>2013-08-31T09:12:14Z</time>
      </trkpt>
      <trkpt lat="44.02764" lon="7.2199">
        <ele>1931</ele>
        <time>2013-08-31T09:12:22Z</time>
      </trkpt>
      <trkpt lat="44.02757" lon="7.21998">
        <ele>1931</ele>
        <time>2013-08-31T09:12:30Z</time>
      </trkpt>
      <trkpt lat="44.0275" lon="7.22007">
        <ele>1924</ele>
        <time>2013-08-31T09:12:38Z</time>
      </trkpt>
      <trkpt lat="44.02742" lon="7.22013">
        <ele>1924</ele>
        <time>2013-08-31T09:12:45Z</time>
      </trkpt>
      <trkpt lat="44.02735" lon="7.22021">
        <ele>1924</ele>
        <time>2013-08-31T09:12:53Z</time>
      </trkpt>
      <trkpt lat="44.02727" lon="7.22029">
        <ele>1924</ele>
        <time>2013-08-31T09:13:02Z</time>
      </trkpt>
      <trkpt lat="44.0272" lon="7.22036">
        <ele>1924</ele>
        <time>2013-08-31T09:13:10Z</time>
      </trkpt>
      <trkpt lat="44.02713" lon="7.22046">
        <ele>1924</ele>
        <time>2013-08-31T09:13:19Z</time>
      </trkpt>
      <trkpt lat="44.02705" lon="7.22056">
        <ele>1924</ele>
        <time>2013-08-31T09:13:28Z</time>
      </trkpt>
      <trkpt lat="44.027" lon="7.22066">
        <ele>1924</ele>
        <time>2013-08-31T09:13:36Z</time>
      </trkpt>
      <trkpt lat="44.02695" lon="7.22078">
        <ele>1924</ele>
        <time>2013-08-31T09:13:44Z</time>
      </trkpt>
      <trkpt lat="44.02693" lon="7.2209">
        <ele>1924</ele>
        <time>2013-08-31T09:13:52Z</time>
      </trkpt>
      <trkpt lat="44.02693" lon="7.22104">
        <ele>1924</ele>
        <time>2013-08-31T09:14:00Z</time>
      </trkpt>
      <trkpt lat="44.02693" lon="7.22116">
        <ele>1924</ele>
        <time>2013-08-31T09:14:08Z</time>
      </trkpt>
      <trkpt lat="44.02691" lon="7.2213">
        <ele>1924</ele>
        <time>2013-08-31T09:14:16Z</time>
      </trkpt>
      <trkpt lat="44.02686" lon="7.22141">
        <ele>1918</ele>
        <time>2013-08-31T09:14:25Z</time>
      </trkpt>
      <trkpt lat="44.02682" lon="7.22154">
        <ele>1918</ele>
        <time>2013-08-31T09:14:34Z</time>
      </trkpt>
      <trkpt lat="44.0268" lon="7.22166">
        <ele>1918</ele>
        <time>2013-08-31T09:14:42Z</time>
      </trkpt>
      <trkpt lat="44.02681" lon="7.22178">
        <ele>1918</ele>
        <time>2013-08-31T09:14:51Z</time>
      </trkpt>
      <trkpt lat="44.02682" lon="7.22191">
        <ele>1918</ele>
        <time>2013-08-31T09:14:59Z</time>
      </trkpt>
      <trkpt lat="44.02684" lon="7.22204">
        <ele>1918</ele>
        <time>2013-08-31T09:15:09Z</time>
      </trkpt>
      <trkpt lat="44.02685" lon="7.22217">
        <ele>1918</ele>
        <time>2013-08-31T09:15:16Z</time>
      </trkpt>
      <trkpt lat="44.02684" lon="7.22229">
        <ele>1918</ele>
        <time>2013-08-31T09:15:24Z</time>
      </trkpt>
      <trkpt lat="44.0268" lon="7.22242">
        <ele>1912</ele>
        <time>2013-08-31T09:15:37Z</time>
      </trkpt>
      <trkpt lat="44.02676" lon="7.22254">
        <ele>1912</ele>
        <time>2013-08-31T09:15:45Z</time>
      </trkpt>
      <trkpt lat="44.02672" lon="7.22264">
        <ele>1912</ele>
        <time>2013-08-31T09:15:53Z</time>
      </trkpt>
      <trkpt lat="44.02666" lon="7.22274">
        <ele>1912</ele>
        <time>2013-08-31T09:16:02Z</time>
      </trkpt>
      <trkpt lat="44.02661" lon="7.22286">
        <ele>1912</ele>
        <time>2013-08-31T09:16:12Z</time>
      </trkpt>
      <trkpt lat="44.02656" lon="7.22296">
        <ele>1912</ele>
        <time>2013-08-31T09:16:32Z</time>
      </trkpt>
      <trkpt lat="44.0265" lon="7.22306">
        <ele>1920</ele>
        <time>2013-08-31T09:21:46Z</time>
      </trkpt>
      <trkpt lat="44.02642" lon="7.2231">
        <ele>1914</ele>
        <time>2013-08-31T09:22:33Z</time>
      </trkpt>
      <trkpt lat="44.02634" lon="7.22317">
        <ele>1914</ele>
        <time>2013-08-31T09:22:44Z</time>
      </trkpt>
      <trkpt lat="44.02624" lon="7.22322">
        <ele>1920</ele>
        <time>2013-08-31T09:22:56Z</time>
      </trkpt>
      <trkpt lat="44.02618" lon="7.22331">
        <ele>1920</ele>
        <time>2013-08-31T09:23:08Z</time>
      </trkpt>
      <trkpt lat="44.02609" lon="7.22336">
        <ele>1920</ele>
        <time>2013-08-31T09:23:21Z</time>
      </trkpt>
      <trkpt lat="44.02599" lon="7.22336">
        <ele>1929</ele>
        <time>2013-08-31T09:23:35Z</time>
      </trkpt>
      <trkpt lat="44.02591" lon="7.22343">
        <ele>1929</ele>
        <time>2013-08-31T09:23:46Z</time>
      </trkpt>
      <trkpt lat="44.02586" lon="7.22353">
        <ele>1929</ele>
        <time>2013-08-31T09:23:55Z</time>
      </trkpt>
      <trkpt lat="44.02578" lon="7.2236">
        <ele>1929</ele>
        <time>2013-08-31T09:24:08Z</time>
      </trkpt>
      <trkpt lat="44.02567" lon="7.22364">
        <ele>1943</ele>
        <time>2013-08-31T09:24:28Z</time>
      </trkpt>
      <trkpt lat="44.02558" lon="7.22367">
        <ele>1943</ele>
        <time>2013-08-31T09:24:45Z</time>
      </trkpt>
      <trkpt lat="44.0255" lon="7.22376">
        <ele>1936</ele>
        <time>2013-08-31T09:24:53Z</time>
      </trkpt>
      <trkpt lat="44.02541" lon="7.2238">
        <ele>1929</ele>
        <time>2013-08-31T09:25:01Z</time>
      </trkpt>
      <trkpt lat="44.02536" lon="7.22391">
        <ele>1929</ele>
        <time>2013-08-31T09:25:16Z</time>
      </trkpt>
      <trkpt lat="44.02534" lon="7.22404">
        <ele>1929</ele>
        <time>2013-08-31T09:26:22Z</time>
      </trkpt>
      <trkpt lat="44.02526" lon="7.22408">
        <ele>1929</ele>
        <time>2013-08-31T09:26:50Z</time>
      </trkpt>
      <trkpt lat="44.02518" lon="7.22412">
        <ele>1929</ele>
        <time>2013-08-31T09:27:07Z</time>
      </trkpt>
      <trkpt lat="44.0251" lon="7.2242">
        <ele>1929</ele>
        <time>2013-08-31T09:27:17Z</time>
      </trkpt>
      <trkpt lat="44.02504" lon="7.2243">
        <ele>1929</ele>
        <time>2013-08-31T09:27:29Z</time>
      </trkpt>
      <trkpt lat="44.02503" lon="7.22443">
        <ele>1937</ele>
        <time>2013-08-31T09:27:40Z</time>
      </trkpt>
      <trkpt lat="44.02501" lon="7.22457">
        <ele>1937</ele>
        <time>2013-08-31T09:27:52Z</time>
      </trkpt>
      <trkpt lat="44.02501" lon="7.2247">
        <ele>1937</ele>
        <time>2013-08-31T09:28:02Z</time>
      </trkpt>
      <trkpt lat="44.02502" lon="7.22483">
        <ele>1937</ele>
        <time>2013-08-31T09:28:15Z</time>
      </trkpt>
      <trkpt lat="44.02503" lon="7.22495">
        <ele>1937</ele>
        <time>2013-08-31T09:28:28Z</time>
      </trkpt>
      <trkpt lat="44.02502" lon="7.22508">
        <ele>1937</ele>
        <time>2013-08-31T09:28:39Z</time>
      </trkpt>
      <trkpt lat="44.025" lon="7.22521">
        <ele>1937</ele>
        <time>2013-08-31T09:28:51Z</time>
      </trkpt>
      <trkpt lat="44.02497" lon="7.22533">
        <ele>1937</ele>
        <time>2013-08-31T09:29:02Z</time>
      </trkpt>
      <trkpt lat="44.02497" lon="7.22546">
        <ele>1944</ele>
        <time>2013-08-31T09:29:13Z</time>
      </trkpt>
      <trkpt lat="44.02495" lon="7.22558">
        <ele>1944</ele>
        <time>2013-08-31T09:29:27Z</time>
      </trkpt>
      <trkpt lat="44.02494" lon="7.22571">
        <ele>1939</ele>
        <time>2013-08-31T09:29:41Z</time>
      </trkpt>
      <trkpt lat="44.02491" lon="7.22582">
        <ele>1939</ele>
        <time>2013-08-31T09:29:52Z</time>
      </trkpt>
      <trkpt lat="44.02489" lon="7.22596">
        <ele>1948</ele>
        <time>2013-08-31T09:30:06Z</time>
      </trkpt>
      <trkpt lat="44.02484" lon="7.22606">
        <ele>1948</ele>
        <time>2013-08-31T09:30:19Z</time>
      </trkpt>
      <trkpt lat="44.02479" lon="7.22616">
        <ele>1948</ele>
        <time>2013-08-31T09:30:28Z</time>
      </trkpt>
      <trkpt lat="44.02477" lon="7.22628">
        <ele>1948</ele>
        <time>2013-08-31T09:30:43Z</time>
      </trkpt>
      <trkpt lat="44.02473" lon="7.2264">
        <ele>1948</ele>
        <time>2013-08-31T09:30:56Z</time>
      </trkpt>
      <trkpt lat="44.02471" lon="7.22652">
        <ele>1948</ele>
        <time>2013-08-31T09:31:06Z</time>
      </trkpt>
      <trkpt lat="44.0247" lon="7.22664">
        <ele>1948</ele>
        <time>2013-08-31T09:31:14Z</time>
      </trkpt>
      <trkpt lat="44.02467" lon="7.22678">
        <ele>1954</ele>
        <time>2013-08-31T09:31:24Z</time>
      </trkpt>
      <trkpt lat="44.02464" lon="7.2269">
        <ele>1954</ele>
        <time>2013-08-31T09:31:34Z</time>
      </trkpt>
      <trkpt lat="44.02461" lon="7.22702">
        <ele>1954</ele>
        <time>2013-08-31T09:31:44Z</time>
      </trkpt>
      <trkpt lat="44.02456" lon="7.22712">
        <ele>1954</ele>
        <time>2013-08-31T09:31:54Z</time>
      </trkpt>
      <trkpt lat="44.02451" lon="7.22722">
        <ele>1954</ele>
        <time>2013-08-31T09:32:02Z</time>
      </trkpt>
      <trkpt lat="44.02447" lon="7.22733">
        <ele>1946</ele>
        <time>2013-08-31T09:32:11Z</time>
      </trkpt>
      <trkpt lat="44.02441" lon="7.22743">
        <ele>1946</ele>
        <time>2013-08-31T09:32:19Z</time>
      </trkpt>
      <trkpt lat="44.02436" lon="7.22754">
        <ele>1946</ele>
        <time>2013-08-31T09:32:29Z</time>
      </trkpt>
      <trkpt lat="44.02429" lon="7.22763">
        <ele>1941</ele>
        <time>2013-08-31T09:32:36Z</time>
      </trkpt>
      <trkpt lat="44.02421" lon="7.22769">
        <ele>1941</ele>
        <time>2013-08-31T09:32:45Z</time>
      </trkpt>
      <trkpt lat="44.02413" lon="7.22776">
        <ele>1948</ele>
        <time>2013-08-31T09:32:55Z</time>
      </trkpt>
      <trkpt lat="44.02406" lon="7.22785">
        <ele>1948</ele>
        <time>2013-08-31T09:33:02Z</time>
      </trkpt>
      <trkpt lat="44.02398" lon="7.22791">
        <ele>1948</ele>
        <time>2013-08-31T09:33:10Z</time>
      </trkpt>
      <trkpt lat="44.02393" lon="7.22802">
        <ele>1953</ele>
        <time>2013-08-31T09:33:19Z</time>
      </trkpt>
      <trkpt lat="44.0239" lon="7.22818">
        <ele>1953</ele>
        <time>2013-08-31T09:33:29Z</time>
      </trkpt>
      <trkpt lat="44.0239" lon="7.22834">
        <ele>1948</ele>
        <time>2013-08-31T09:33:38Z</time>
      </trkpt>
      <trkpt lat="44.02389" lon="7.22847">
        <ele>1948</ele>
        <time>2013-08-31T09:33:51Z</time>
      </trkpt>
      <trkpt lat="44.02385" lon="7.22858">
        <ele>1948</ele>
        <time>2013-08-31T09:34:01Z</time>
      </trkpt>
      <trkpt lat="44.02382" lon="7.22871">
        <ele>1948</ele>
        <time>2013-08-31T09:34:11Z</time>
      </trkpt>
      <trkpt lat="44.02375" lon="7.22878">
        <ele>1948</ele>
        <time>2013-08-31T09:34:22Z</time>
      </trkpt>
      <trkpt lat="44.02368" lon="7.22889">
        <ele>1948</ele>
        <time>2013-08-31T09:34:32Z</time>
      </trkpt>
      <trkpt lat="44.02362" lon="7.22899">
        <ele>1948</ele>
        <time>2013-08-31T09:34:42Z</time>
      </trkpt>
      <trkpt lat="44.02355" lon="7.22907">
        <ele>1959</ele>
        <time>2013-08-31T09:34:52Z</time>
      </trkpt>
      <trkpt lat="44.02347" lon="7.22915">
        <ele>1959</ele>
        <time>2013-08-31T09:35:01Z</time>
      </trkpt>
      <trkpt lat="44.0234" lon="7.22924">
        <ele>1959</ele>
        <time>2013-08-31T09:35:10Z</time>
      </trkpt>
      <trkpt lat="44.02333" lon="7.22934">
        <ele>1954</ele>
        <time>2013-08-31T09:35:18Z</time>
      </trkpt>
      <trkpt lat="44.02325" lon="7.22941">
        <ele>1954</ele>
        <time>2013-08-31T09:35:28Z</time>
      </trkpt>
      <trkpt lat="44.02317" lon="7.22945">
        <ele>1954</ele>
        <time>2013-08-31T09:35:36Z</time>
      </trkpt>
      <trkpt lat="44.02309" lon="7.22953">
        <ele>1954</ele>
        <time>2013-08-31T09:35:43Z</time>
      </trkpt>
      <trkpt lat="44.02305" lon="7.22963">
        <ele>1954</ele>
        <time>2013-08-31T09:35:50Z</time>
      </trkpt>
      <trkpt lat="44.02302" lon="7.22977">
        <ele>1954</ele>
        <time>2013-08-31T09:35:58Z</time>
      </trkpt>
      <trkpt lat="44.02298" lon="7.22988">
        <ele>1954</ele>
        <time>2013-08-31T09:36:06Z</time>
      </trkpt>
      <trkpt lat="44.02295" lon="7.23">
        <ele>1954</ele>
        <time>2013-08-31T09:36:13Z</time>
      </trkpt>
      <trkpt lat="44.02289" lon="7.2301">
        <ele>1954</ele>
        <time>2013-08-31T09:36:20Z</time>
      </trkpt>
      <trkpt lat="44.02286" lon="7.23023">
        <ele>1954</ele>
        <time>2013-08-31T09:36:27Z</time>
      </trkpt>
      <trkpt lat="44.0228" lon="7.23032">
        <ele>1954</ele>
        <time>2013-08-31T09:36:36Z</time>
      </trkpt>
      <trkpt lat="44.02272" lon="7.23041">
        <ele>1954</ele>
        <time>2013-08-31T09:36:45Z</time>
      </trkpt>
      <trkpt lat="44.02265" lon="7.23049">
        <ele>1954</ele>
        <time>2013-08-31T09:36:54Z</time>
      </trkpt>
      <trkpt lat="44.02256" lon="7.23053">
        <ele>1954</ele>
        <time>2013-08-31T09:37:03Z</time>
      </trkpt>
      <trkpt lat="44.02248" lon="7.23059">
        <ele>1954</ele>
        <time>2013-08-31T09:37:12Z</time>
      </trkpt>
      <trkpt lat="44.02239" lon="7.23062">
        <ele>1954</ele>
        <time>2013-08-31T09:37:21Z</time>
      </trkpt>
      <trkpt lat="44.02232" lon="7.23068">
        <ele>1954</ele>
        <time>2013-08-31T09:37:36Z</time>
      </trkpt>
      <trkpt lat="44.02223" lon="7.2307">
        <ele>1954</ele>
        <time>2013-08-31T09:37:43Z</time>
      </trkpt>
      <trkpt lat="44.02214" lon="7.23076">
        <ele>1954</ele>
        <time>2013-08-31T09:37:52Z</time>
      </trkpt>
      <trkpt lat="44.02205" lon="7.2308">
        <ele>1954</ele>
        <time>2013-08-31T09:37:59Z</time>
      </trkpt>
      <trkpt lat="44.02196" lon="7.23083">
        <ele>1948</ele>
        <time>2013-08-31T09:38:06Z</time>
      </trkpt>
      <trkpt lat="44.02187" lon="7.23084">
        <ele>1948</ele>
        <time>2013-08-31T09:38:17Z</time>
      </trkpt>
      <trkpt lat="44.02178" lon="7.23083">
        <ele>1960</ele>
        <time>2013-08-31T09:38:26Z</time>
      </trkpt>
      <trkpt lat="44.02169" lon="7.2309">
        <ele>1960</ele>
        <time>2013-08-31T09:38:37Z</time>
      </trkpt>
      <trkpt lat="44.02161" lon="7.231">
        <ele>1950</ele>
        <time>2013-08-31T09:38:46Z</time>
      </trkpt>
      <trkpt lat="44.02155" lon="7.23109">
        <ele>1942</ele>
        <time>2013-08-31T09:38:57Z</time>
      </trkpt>
      <trkpt lat="44.02145" lon="7.23106">
        <ele>1942</ele>
        <time>2013-08-31T09:39:08Z</time>
      </trkpt>
      <trkpt lat="44.02136" lon="7.23103">
        <ele>1957</ele>
        <time>2013-08-31T09:39:18Z</time>
      </trkpt>
      <trkpt lat="44.02127" lon="7.23103">
        <ele>1957</ele>
        <time>2013-08-31T09:39:27Z</time>
      </trkpt>
      <trkpt lat="44.02118" lon="7.23103">
        <ele>1957</ele>
        <time>2013-08-31T09:39:34Z</time>
      </trkpt>
      <trkpt lat="44.0211" lon="7.23111">
        <ele>1957</ele>
        <time>2013-08-31T09:39:40Z</time>
      </trkpt>
      <trkpt lat="44.02101" lon="7.23116">
        <ele>1949</ele>
        <time>2013-08-31T09:39:47Z</time>
      </trkpt>
      <trkpt lat="44.02093" lon="7.2312">
        <ele>1949</ele>
        <time>2013-08-31T09:39:58Z</time>
      </trkpt>
      <trkpt lat="44.02084" lon="7.23125">
        <ele>1949</ele>
        <time>2013-08-31T09:40:04Z</time>
      </trkpt>
      <trkpt lat="44.02073" lon="7.23123">
        <ele>1949</ele>
        <time>2013-08-31T09:40:14Z</time>
      </trkpt>
      <trkpt lat="44.02065" lon="7.23129">
        <ele>1949</ele>
        <time>2013-08-31T09:40:23Z</time>
      </trkpt>
      <trkpt lat="44.02057" lon="7.23136">
        <ele>1949</ele>
        <time>2013-08-31T09:40:34Z</time>
      </trkpt>
      <trkpt lat="44.02047" lon="7.23139">
        <ele>1949</ele>
        <time>2013-08-31T09:40:44Z</time>
      </trkpt>
      <trkpt lat="44.0204" lon="7.23149">
        <ele>1941</ele>
        <time>2013-08-31T09:40:50Z</time>
      </trkpt>
      <trkpt lat="44.02031" lon="7.23156">
        <ele>1941</ele>
        <time>2013-08-31T09:40:57Z</time>
      </trkpt>
      <trkpt lat="44.02024" lon="7.23167">
        <ele>1935</ele>
        <time>2013-08-31T09:41:05Z</time>
      </trkpt>
      <trkpt lat="44.02016" lon="7.23175">
        <ele>1935</ele>
        <time>2013-08-31T09:41:21Z</time>
      </trkpt>
      <trkpt lat="44.02009" lon="7.23182">
        <ele>1955</ele>
        <time>2013-08-31T09:42:53Z</time>
      </trkpt>
      <trkpt lat="44.02004" lon="7.23193">
        <ele>1947</ele>
        <time>2013-08-31T09:43:40Z</time>
      </trkpt>
      <trkpt lat="44.02008" lon="7.23205">
        <ele>1947</ele>
        <time>2013-08-31T09:44:00Z</time>
      </trkpt>
      <trkpt lat="44.01999" lon="7.23203">
        <ele>1959</ele>
        <time>2013-08-31T09:44:52Z</time>
      </trkpt>
      <trkpt lat="44.01989" lon="7.23205">
        <ele>1959</ele>
        <time>2013-08-31T09:45:12Z</time>
      </trkpt>
      <trkpt lat="44.01981" lon="7.23214">
        <ele>1953</ele>
        <time>2013-08-31T09:45:30Z</time>
      </trkpt>
      <trkpt lat="44.01988" lon="7.23223">
        <ele>1959</ele>
        <time>2013-08-31T09:45:51Z</time>
      </trkpt>
      <trkpt lat="44.0198" lon="7.23217">
        <ele>1974</ele>
        <time>2013-08-31T09:46:41Z</time>
      </trkpt>
      <trkpt lat="44.0197" lon="7.23218">
        <ele>1974</ele>
        <time>2013-08-31T09:46:59Z</time>
      </trkpt>
      <trkpt lat="44.01976" lon="7.23227">
        <ele>1981</ele>
        <time>2013-08-31T09:47:21Z</time>
      </trkpt>
      <trkpt lat="44.0198" lon="7.23239">
        <ele>1966</ele>
        <time>2013-08-31T09:47:39Z</time>
      </trkpt>
      <trkpt lat="44.01972" lon="7.23248">
        <ele>1966</ele>
        <time>2013-08-31T09:48:18Z</time>
      </trkpt>
      <trkpt lat="44.01965" lon="7.23255">
        <ele>1973</ele>
        <time>2013-08-31T09:48:41Z</time>
      </trkpt>
      <trkpt lat="44.01959" lon="7.23265">
        <ele>1973</ele>
        <time>2013-08-31T09:49:01Z</time>
      </trkpt>
      <trkpt lat="44.01951" lon="7.2327">
        <ele>1973</ele>
        <time>2013-08-31T09:49:12Z</time>
      </trkpt>
      <trkpt lat="44.01941" lon="7.23273">
        <ele>1980</ele>
        <time>2013-08-31T09:49:24Z</time>
      </trkpt>
      <trkpt lat="44.01932" lon="7.23279">
        <ele>1980</ele>
        <time>2013-08-31T09:49:34Z</time>
      </trkpt>
      <trkpt lat="44.01922" lon="7.23285">
        <ele>1980</ele>
        <time>2013-08-31T09:49:47Z</time>
      </trkpt>
      <trkpt lat="44.01913" lon="7.23288">
        <ele>1980</ele>
        <time>2013-08-31T09:49:56Z</time>
      </trkpt>
      <trkpt lat="44.01906" lon="7.23296">
        <ele>1980</ele>
        <time>2013-08-31T09:50:04Z</time>
      </trkpt>
      <trkpt lat="44.01899" lon="7.23306">
        <ele>1974</ele>
        <time>2013-08-31T09:50:11Z</time>
      </trkpt>
      <trkpt lat="44.01895" lon="7.23319">
        <ele>1974</ele>
        <time>2013-08-31T09:50:19Z</time>
      </trkpt>
      <trkpt lat="44.01889" lon="7.23329">
        <ele>1974</ele>
        <time>2013-08-31T09:50:31Z</time>
      </trkpt>
      <trkpt lat="44.01884" lon="7.2334">
        <ele>1974</ele>
        <time>2013-08-31T09:50:44Z</time>
      </trkpt>
      <trkpt lat="44.01878" lon="7.2335">
        <ele>1974</ele>
        <time>2013-08-31T09:51:06Z</time>
      </trkpt>
      <trkpt lat="44.01871" lon="7.23362">
        <ele>1974</ele>
        <time>2013-08-31T09:51:17Z</time>
      </trkpt>
      <trkpt lat="44.01863" lon="7.23373">
        <ele>1963</ele>
        <time>2013-08-31T09:51:27Z</time>
      </trkpt>
      <trkpt lat="44.01858" lon="7.23383">
        <ele>1963</ele>
        <time>2013-08-31T09:51:37Z</time>
      </trkpt>
      <trkpt lat="44.01851" lon="7.23394">
        <ele>1963</ele>
        <time>2013-08-31T09:51:47Z</time>
      </trkpt>
      <trkpt lat="44.01849" lon="7.23405">
        <ele>1976</ele>
        <time>2013-08-31T09:52:04Z</time>
      </trkpt>
      <trkpt lat="44.01845" lon="7.23419">
        <ele>1976</ele>
        <time>2013-08-31T09:52:13Z</time>
      </trkpt>
      <trkpt lat="44.01836" lon="7.23426">
        <ele>1976</ele>
        <time>2013-08-31T09:52:22Z</time>
      </trkpt>
      <trkpt lat="44.01828" lon="7.23434">
        <ele>1976</ele>
        <time>2013-08-31T09:52:32Z</time>
      </trkpt>
      <trkpt lat="44.01819" lon="7.2344">
        <ele>1976</ele>
        <time>2013-08-31T09:52:38Z</time>
      </trkpt>
      <trkpt lat="44.01813" lon="7.2345">
        <ele>1983</ele>
        <time>2013-08-31T09:53:03Z</time>
      </trkpt>
      <trkpt lat="44.01806" lon="7.23457">
        <ele>1983</ele>
        <time>2013-08-31T09:53:34Z</time>
      </trkpt>
      <trkpt lat="44.01797" lon="7.23463">
        <ele>1983</ele>
        <time>2013-08-31T09:53:51Z</time>
      </trkpt>
      <trkpt lat="44.01789" lon="7.23466">
        <ele>1993</ele>
        <time>2013-08-31T09:54:15Z</time>
      </trkpt>
      <trkpt lat="44.01784" lon="7.23478">
        <ele>1982</ele>
        <time>2013-08-31T09:54:22Z</time>
      </trkpt>
      <trkpt lat="44.01777" lon="7.23484">
        <ele>1989</ele>
        <time>2013-08-31T09:54:32Z</time>
      </trkpt>
      <trkpt lat="44.01769" lon="7.23492">
        <ele>1989</ele>
        <time>2013-08-31T09:54:37Z</time>
      </trkpt>
      <trkpt lat="44.01769" lon="7.23504">
        <ele>1989</ele>
        <time>2013-08-31T09:54:48Z</time>
      </trkpt>
      <trkpt lat="44.01762" lon="7.23512">
        <ele>1989</ele>
        <time>2013-08-31T09:54:56Z</time>
      </trkpt>
      <trkpt lat="44.01756" lon="7.23524">
        <ele>1983</ele>
        <time>2013-08-31T09:55:07Z</time>
      </trkpt>
      <trkpt lat="44.01758" lon="7.23536">
        <ele>1983</ele>
        <time>2013-08-31T09:55:12Z</time>
      </trkpt>
      <trkpt lat="44.01754" lon="7.23547">
        <ele>1983</ele>
        <time>2013-08-31T09:55:28Z</time>
      </trkpt>
      <trkpt lat="44.01747" lon="7.23555">
        <ele>1983</ele>
        <time>2013-08-31T09:55:33Z</time>
      </trkpt>
      <trkpt lat="44.01747" lon="7.23568">
        <ele>1983</ele>
        <time>2013-08-31T09:55:39Z</time>
      </trkpt>
      <trkpt lat="44.01744" lon="7.2358">
        <ele>1983</ele>
        <time>2013-08-31T09:55:50Z</time>
      </trkpt>
      <trkpt lat="44.01746" lon="7.23591">
        <ele>1995</ele>
        <time>2013-08-31T09:55:58Z</time>
      </trkpt>
      <trkpt lat="44.01739" lon="7.236">
        <ele>1986</ele>
        <time>2013-08-31T09:56:09Z</time>
      </trkpt>
      <trkpt lat="44.01737" lon="7.23613">
        <ele>1991</ele>
        <time>2013-08-31T09:56:17Z</time>
      </trkpt>
      <trkpt lat="44.01734" lon="7.23624">
        <ele>1991</ele>
        <time>2013-08-31T09:56:23Z</time>
      </trkpt>
      <trkpt lat="44.01725" lon="7.23625">
        <ele>1991</ele>
        <time>2013-08-31T09:56:39Z</time>
      </trkpt>
      <trkpt lat="44.01718" lon="7.23635">
        <ele>1991</ele>
        <time>2013-08-31T09:58:02Z</time>
      </trkpt>
      <trkpt lat="44.01726" lon="7.2364">
        <ele>1991</ele>
        <time>2013-08-31T09:58:42Z</time>
      </trkpt>
      <trkpt lat="44.01725" lon="7.23627">
        <ele>1976</ele>
        <time>2013-08-31T09:59:08Z</time>
      </trkpt>
      <trkpt lat="44.01734" lon="7.23627">
        <ele>1996</ele>
        <time>2013-08-31T10:00:56Z</time>
      </trkpt>
      <trkpt lat="44.01727" lon="7.2362">
        <ele>1989</ele>
        <time>2013-08-31T10:01:30Z</time>
      </trkpt>
      <trkpt lat="44.01723" lon="7.23633">
        <ele>1984</ele>
        <time>2013-08-31T10:01:57Z</time>
      </trkpt>
      <trkpt lat="44.01724" lon="7.23646">
        <ele>1984</ele>
        <time>2013-08-31T10:02:04Z</time>
      </trkpt>
      <trkpt lat="44.01724" lon="7.23659">
        <ele>1984</ele>
        <time>2013-08-31T10:02:11Z</time>
      </trkpt>
      <trkpt lat="44.01728" lon="7.23672">
        <ele>1984</ele>
        <time>2013-08-31T10:02:21Z</time>
      </trkpt>
      <trkpt lat="44.0173" lon="7.23685">
        <ele>1984</ele>
        <time>2013-08-31T10:02:30Z</time>
      </trkpt>
      <trkpt lat="44.01734" lon="7.23695">
        <ele>1984</ele>
        <time>2013-08-31T10:02:45Z</time>
      </trkpt>
      <trkpt lat="44.0174" lon="7.23707">
        <ele>1984</ele>
        <time>2013-08-31T10:02:56Z</time>
      </trkpt>
      <trkpt lat="44.01742" lon="7.23719">
        <ele>1984</ele>
        <time>2013-08-31T10:03:05Z</time>
      </trkpt>
      <trkpt lat="44.01744" lon="7.23731">
        <ele>1984</ele>
        <time>2013-08-31T10:03:16Z</time>
      </trkpt>
      <trkpt lat="44.01743" lon="7.23744">
        <ele>1984</ele>
        <time>2013-08-31T10:03:26Z</time>
      </trkpt>
      <trkpt lat="44.01748" lon="7.23754">
        <ele>1984</ele>
        <time>2013-08-31T10:03:34Z</time>
      </trkpt>
      <trkpt lat="44.01753" lon="7.23764">
        <ele>1984</ele>
        <time>2013-08-31T10:03:43Z</time>
      </trkpt>
      <trkpt lat="44.01756" lon="7.23777">
        <ele>1984</ele>
        <time>2013-08-31T10:03:52Z</time>
      </trkpt>
      <trkpt lat="44.01755" lon="7.23791">
        <ele>1984</ele>
        <time>2013-08-31T10:04:00Z</time>
      </trkpt>
      <trkpt lat="44.01749" lon="7.23801">
        <ele>1984</ele>
        <time>2013-08-31T10:04:06Z</time>
      </trkpt>
      <trkpt lat="44.01747" lon="7.23813">
        <ele>1991</ele>
        <time>2013-08-31T10:04:15Z</time>
      </trkpt>
      <trkpt lat="44.01749" lon="7.23826">
        <ele>1991</ele>
        <time>2013-08-31T10:04:23Z</time>
      </trkpt>
      <trkpt lat="44.0175" lon="7.23839">
        <ele>1991</ele>
        <time>2013-08-31T10:04:31Z</time>
      </trkpt>
      <trkpt lat="44.0175" lon="7.23852">
        <ele>1991</ele>
        <time>2013-08-31T10:04:42Z</time>
      </trkpt>
      <trkpt lat="44.01749" lon="7.2387">
        <ele>1991</ele>
        <time>2013-08-31T10:04:51Z</time>
      </trkpt>
      <trkpt lat="44.01744" lon="7.2388">
        <ele>1991</ele>
        <time>2013-08-31T10:04:57Z</time>
      </trkpt>
      <trkpt lat="44.01741" lon="7.23894">
        <ele>1991</ele>
        <time>2013-08-31T10:05:02Z</time>
      </trkpt>
      <trkpt lat="44.01749" lon="7.239">
        <ele>1991</ele>
        <time>2013-08-31T10:05:09Z</time>
      </trkpt>
      <trkpt lat="44.0175" lon="7.23913">
        <ele>1991</ele>
        <time>2013-08-31T10:05:16Z</time>
      </trkpt>
      <trkpt lat="44.01746" lon="7.23925">
        <ele>1991</ele>
        <time>2013-08-31T10:05:22Z</time>
      </trkpt>
      <trkpt lat="44.01738" lon="7.23933">
        <ele>1991</ele>
        <time>2013-08-31T10:05:27Z</time>
      </trkpt>
      <trkpt lat="44.01741" lon="7.23945">
        <ele>1991</ele>
        <time>2013-08-31T10:05:35Z</time>
      </trkpt>
      <trkpt lat="44.01741" lon="7.23959">
        <ele>1991</ele>
        <time>2013-08-31T10:05:44Z</time>
      </trkpt>
      <trkpt lat="44.01744" lon="7.2397">
        <ele>1991</ele>
        <time>2013-08-31T10:05:52Z</time>
      </trkpt>
      <trkpt lat="44.01744" lon="7.23983">
        <ele>1985</ele>
        <time>2013-08-31T10:06:02Z</time>
      </trkpt>
      <trkpt lat="44.0174" lon="7.23995">
        <ele>1985</ele>
        <time>2013-08-31T10:06:09Z</time>
      </trkpt>
      <trkpt lat="44.0174" lon="7.24008">
        <ele>1985</ele>
        <time>2013-08-31T10:06:16Z</time>
      </trkpt>
      <trkpt lat="44.0174" lon="7.24021">
        <ele>1985</ele>
        <time>2013-08-31T10:06:24Z</time>
      </trkpt>
      <trkpt lat="44.01738" lon="7.24035">
        <ele>1985</ele>
        <time>2013-08-31T10:06:34Z</time>
      </trkpt>
      <trkpt lat="44.01742" lon="7.24046">
        <ele>1985</ele>
        <time>2013-08-31T10:06:46Z</time>
      </trkpt>
      <trkpt lat="44.0174" lon="7.24059">
        <ele>1985</ele>
        <time>2013-08-31T10:07:09Z</time>
      </trkpt>
      <trkpt lat="44.01739" lon="7.24073">
        <ele>1985</ele>
        <time>2013-08-31T10:07:16Z</time>
      </trkpt>
      <trkpt lat="44.01736" lon="7.24084">
        <ele>1985</ele>
        <time>2013-08-31T10:07:25Z</time>
      </trkpt>
      <trkpt lat="44.01734" lon="7.24097">
        <ele>1985</ele>
        <time>2013-08-31T10:07:32Z</time>
      </trkpt>
      <trkpt lat="44.01733" lon="7.2411">
        <ele>1985</ele>
        <time>2013-08-31T10:07:40Z</time>
      </trkpt>
      <trkpt lat="44.01736" lon="7.24123">
        <ele>1976</ele>
        <time>2013-08-31T10:07:48Z</time>
      </trkpt>
      <trkpt lat="44.01733" lon="7.24135">
        <ele>1976</ele>
        <time>2013-08-31T10:07:55Z</time>
      </trkpt>
      <trkpt lat="44.01733" lon="7.24148">
        <ele>1971</ele>
        <time>2013-08-31T10:08:02Z</time>
      </trkpt>
      <trkpt lat="44.01731" lon="7.2416">
        <ele>1971</ele>
        <time>2013-08-31T10:08:10Z</time>
      </trkpt>
      <trkpt lat="44.01731" lon="7.24173">
        <ele>1971</ele>
        <time>2013-08-31T10:08:18Z</time>
      </trkpt>
      <trkpt lat="44.01731" lon="7.24186">
        <ele>1971</ele>
        <time>2013-08-31T10:08:25Z</time>
      </trkpt>
      <trkpt lat="44.01732" lon="7.24198">
        <ele>1965</ele>
        <time>2013-08-31T10:08:33Z</time>
      </trkpt>
      <trkpt lat="44.01732" lon="7.24212">
        <ele>1965</ele>
        <time>2013-08-31T10:08:48Z</time>
      </trkpt>
      <trkpt lat="44.01723" lon="7.24219">
        <ele>1965</ele>
        <time>2013-08-31T10:08:56Z</time>
      </trkpt>
      <trkpt lat="44.01718" lon="7.24229">
        <ele>1965</ele>
        <time>2013-08-31T10:09:06Z</time>
      </trkpt>
      <trkpt lat="44.01716" lon="7.24242">
        <ele>1965</ele>
        <time>2013-08-31T10:09:15Z</time>
      </trkpt>
      <trkpt lat="44.01714" lon="7.24254">
        <ele>1965</ele>
        <time>2013-08-31T10:09:24Z</time>
      </trkpt>
      <trkpt lat="44.01711" lon="7.24267">
        <ele>1965</ele>
        <time>2013-08-31T10:09:33Z</time>
      </trkpt>
      <trkpt lat="44.01711" lon="7.24279">
        <ele>1957</ele>
        <time>2013-08-31T10:09:48Z</time>
      </trkpt>
      <trkpt lat="44.01707" lon="7.2429">
        <ele>1951</ele>
        <time>2013-08-31T10:10:00Z</time>
      </trkpt>
      <trkpt lat="44.01698" lon="7.24296">
        <ele>1951</ele>
        <time>2013-08-31T10:10:13Z</time>
      </trkpt>
      <trkpt lat="44.01691" lon="7.24306">
        <ele>1951</ele>
        <time>2013-08-31T10:10:19Z</time>
      </trkpt>
      <trkpt lat="44.01686" lon="7.24318">
        <ele>1951</ele>
        <time>2013-08-31T10:10:32Z</time>
      </trkpt>
      <trkpt lat="44.01678" lon="7.24322">
        <ele>1951</ele>
        <time>2013-08-31T10:10:41Z</time>
      </trkpt>
      <trkpt lat="44.01674" lon="7.24334">
        <ele>1951</ele>
        <time>2013-08-31T10:10:50Z</time>
      </trkpt>
      <trkpt lat="44.0167" lon="7.24345">
        <ele>1951</ele>
        <time>2013-08-31T10:10:56Z</time>
      </trkpt>
      <trkpt lat="44.01669" lon="7.24357">
        <ele>1943</ele>
        <time>2013-08-31T10:11:02Z</time>
      </trkpt>
      <trkpt lat="44.0167" lon="7.24371">
        <ele>1937</ele>
        <time>2013-08-31T10:11:16Z</time>
      </trkpt>
      <trkpt lat="44.01665" lon="7.24382">
        <ele>1937</ele>
        <time>2013-08-31T10:11:23Z</time>
      </trkpt>
      <trkpt lat="44.01659" lon="7.24392">
        <ele>1937</ele>
        <time>2013-08-31T10:11:33Z</time>
      </trkpt>
      <trkpt lat="44.01652" lon="7.24402">
        <ele>1937</ele>
        <time>2013-08-31T10:11:39Z</time>
      </trkpt>
      <trkpt lat="44.01646" lon="7.24412">
        <ele>1942</ele>
        <time>2013-08-31T10:11:45Z</time>
      </trkpt>
      <trkpt lat="44.01644" lon="7.24426">
        <ele>1942</ele>
        <time>2013-08-31T10:11:53Z</time>
      </trkpt>
      <trkpt lat="44.01645" lon="7.24438">
        <ele>1936</ele>
        <time>2013-08-31T10:12:03Z</time>
      </trkpt>
      <trkpt lat="44.01647" lon="7.24452">
        <ele>1930</ele>
        <time>2013-08-31T10:12:13Z</time>
      </trkpt>
      <trkpt lat="44.01642" lon="7.24462">
        <ele>1930</ele>
        <time>2013-08-31T10:12:21Z</time>
      </trkpt>
      <trkpt lat="44.01633" lon="7.24466">
        <ele>1930</ele>
        <time>2013-08-31T10:12:29Z</time>
      </trkpt>
      <trkpt lat="44.01628" lon="7.24476">
        <ele>1930</ele>
        <time>2013-08-31T10:12:36Z</time>
      </trkpt>
      <trkpt lat="44.0162" lon="7.24483">
        <ele>1930</ele>
        <time>2013-08-31T10:12:44Z</time>
      </trkpt>
      <trkpt lat="44.01629" lon="7.24479">
        <ele>1930</ele>
        <time>2013-08-31T10:13:23Z</time>
      </trkpt>
      <trkpt lat="44.01624" lon="7.2449">
        <ele>1930</ele>
        <time>2013-08-31T10:14:00Z</time>
      </trkpt>
      <trkpt lat="44.0162" lon="7.24502">
        <ele>1930</ele>
        <time>2013-08-31T10:14:09Z</time>
      </trkpt>
      <trkpt lat="44.01619" lon="7.24515">
        <ele>1923</ele>
        <time>2013-08-31T10:14:19Z</time>
      </trkpt>
      <trkpt lat="44.01617" lon="7.24527">
        <ele>1923</ele>
        <time>2013-08-31T10:14:27Z</time>
      </trkpt>
      <trkpt lat="44.01611" lon="7.24538">
        <ele>1923</ele>
        <time>2013-08-31T10:14:37Z</time>
      </trkpt>
      <trkpt lat="44.01607" lon="7.2455">
        <ele>1923</ele>
        <time>2013-08-31T10:14:45Z</time>
      </trkpt>
      <trkpt lat="44.01602" lon="7.2456">
        <ele>1923</ele>
        <time>2013-08-31T10:14:53Z</time>
      </trkpt>
      <trkpt lat="44.01598" lon="7.24572">
        <ele>1923</ele>
        <time>2013-08-31T10:15:01Z</time>
      </trkpt>
      <trkpt lat="44.01596" lon="7.24584">
        <ele>1923</ele>
        <time>2013-08-31T10:15:11Z</time>
      </trkpt>
      <trkpt lat="44.01591" lon="7.24596">
        <ele>1923</ele>
        <time>2013-08-31T10:15:19Z</time>
      </trkpt>
      <trkpt lat="44.01589" lon="7.24611">
        <ele>1915</ele>
        <time>2013-08-31T10:15:32Z</time>
      </trkpt>
      <trkpt lat="44.01581" lon="7.24617">
        <ele>1915</ele>
        <time>2013-08-31T10:15:36Z</time>
      </trkpt>
      <trkpt lat="44.01578" lon="7.24631">
        <ele>1915</ele>
        <time>2013-08-31T10:15:43Z</time>
      </trkpt>
      <trkpt lat="44.01571" lon="7.24639">
        <ele>1915</ele>
        <time>2013-08-31T10:16:24Z</time>
      </trkpt>
      <trkpt lat="44.01566" lon="7.24649">
        <ele>1915</ele>
        <time>2013-08-31T10:16:38Z</time>
      </trkpt>
      <trkpt lat="44.01558" lon="7.24658">
        <ele>1915</ele>
        <time>2013-08-31T10:16:43Z</time>
      </trkpt>
      <trkpt lat="44.0155" lon="7.24665">
        <ele>1915</ele>
        <time>2013-08-31T10:16:56Z</time>
      </trkpt>
      <trkpt lat="44.0155" lon="7.24677">
        <ele>1910</ele>
        <time>2013-08-31T10:17:27Z</time>
      </trkpt>
      <trkpt lat="44.01544" lon="7.24686">
        <ele>1902</ele>
        <time>2013-08-31T10:17:38Z</time>
      </trkpt>
      <trkpt lat="44.01537" lon="7.24695">
        <ele>1902</ele>
        <time>2013-08-31T10:17:50Z</time>
      </trkpt>
      <trkpt lat="44.01528" lon="7.24702">
        <ele>1902</ele>
        <time>2013-08-31T10:18:02Z</time>
      </trkpt>
      <trkpt lat="44.01522" lon="7.24713">
        <ele>1902</ele>
        <time>2013-08-31T10:18:10Z</time>
      </trkpt>
      <trkpt lat="44.01514" lon="7.24717">
        <ele>1902</ele>
        <time>2013-08-31T10:18:22Z</time>
      </trkpt>
      <trkpt lat="44.01507" lon="7.24724">
        <ele>1902</ele>
        <time>2013-08-31T10:18:34Z</time>
      </trkpt>
      <trkpt lat="44.01504" lon="7.24737">
        <ele>1892</ele>
        <time>2013-08-31T10:18:42Z</time>
      </trkpt>
      <trkpt lat="44.01504" lon="7.24751">
        <ele>1885</ele>
        <time>2013-08-31T10:18:54Z</time>
      </trkpt>
      <trkpt lat="44.015" lon="7.24763">
        <ele>1885</ele>
        <time>2013-08-31T10:19:04Z</time>
      </trkpt>
      <trkpt lat="44.01493" lon="7.24771">
        <ele>1885</ele>
        <time>2013-08-31T10:19:13Z</time>
      </trkpt>
      <trkpt lat="44.01486" lon="7.24778">
        <ele>1885</ele>
        <time>2013-08-31T10:19:24Z</time>
      </trkpt>
      <trkpt lat="44.01482" lon="7.2479">
        <ele>1875</ele>
        <time>2013-08-31T10:19:46Z</time>
      </trkpt>
      <trkpt lat="44.01473" lon="7.24796">
        <ele>1875</ele>
        <time>2013-08-31T10:20:01Z</time>
      </trkpt>
      <trkpt lat="44.01465" lon="7.24801">
        <ele>1875</ele>
        <time>2013-08-31T10:20:23Z</time>
      </trkpt>
      <trkpt lat="44.01458" lon="7.2481">
        <ele>1875</ele>
        <time>2013-08-31T10:20:39Z</time>
      </trkpt>
      <trkpt lat="44.01449" lon="7.24811">
        <ele>1866</ele>
        <time>2013-08-31T10:20:59Z</time>
      </trkpt>
      <trkpt lat="44.01444" lon="7.24823">
        <ele>1859</ele>
        <time>2013-08-31T10:21:13Z</time>
      </trkpt>
      <trkpt lat="44.01436" lon="7.24826">
        <ele>1859</ele>
        <time>2013-08-31T10:21:20Z</time>
      </trkpt>
      <trkpt lat="44.01425" lon="7.24825">
        <ele>1867</ele>
        <time>2013-08-31T10:21:39Z</time>
      </trkpt>
      <trkpt lat="44.01425" lon="7.24838">
        <ele>1867</ele>
        <time>2013-08-31T10:21:51Z</time>
      </trkpt>
      <trkpt lat="44.01416" lon="7.24848">
        <ele>1856</ele>
        <time>2013-08-31T10:22:20Z</time>
      </trkpt>
      <trkpt lat="44.01414" lon="7.24861">
        <ele>1844</ele>
        <time>2013-08-31T10:22:39Z</time>
      </trkpt>
      <trkpt lat="44.01411" lon="7.24873">
        <ele>1844</ele>
        <time>2013-08-31T10:22:47Z</time>
      </trkpt>
      <trkpt lat="44.01404" lon="7.24883">
        <ele>1844</ele>
        <time>2013-08-31T10:23:03Z</time>
      </trkpt>
      <trkpt lat="44.01397" lon="7.2489">
        <ele>1844</ele>
        <time>2013-08-31T10:23:12Z</time>
      </trkpt>
      <trkpt lat="44.01387" lon="7.24893">
        <ele>1844</ele>
        <time>2013-08-31T10:23:24Z</time>
      </trkpt>
      <trkpt lat="44.01377" lon="7.24892">
        <ele>1844</ele>
        <time>2013-08-31T10:23:34Z</time>
      </trkpt>
      <trkpt lat="44.01368" lon="7.24895">
        <ele>1844</ele>
        <time>2013-08-31T10:23:43Z</time>
      </trkpt>
      <trkpt lat="44.0136" lon="7.24887">
        <ele>1844</ele>
        <time>2013-08-31T10:24:00Z</time>
      </trkpt>
      <trkpt lat="44.0136" lon="7.24872">
        <ele>1827</ele>
        <time>2013-08-31T10:24:24Z</time>
      </trkpt>
      <trkpt lat="44.01354" lon="7.24862">
        <ele>1827</ele>
        <time>2013-08-31T10:24:36Z</time>
      </trkpt>
      <trkpt lat="44.01347" lon="7.24853">
        <ele>1827</ele>
        <time>2013-08-31T10:24:48Z</time>
      </trkpt>
      <trkpt lat="44.01342" lon="7.24841">
        <ele>1827</ele>
        <time>2013-08-31T10:24:59Z</time>
      </trkpt>
      <trkpt lat="44.01332" lon="7.24836">
        <ele>1820</ele>
        <time>2013-08-31T10:25:13Z</time>
      </trkpt>
      <trkpt lat="44.01325" lon="7.24827">
        <ele>1820</ele>
        <time>2013-08-31T10:25:27Z</time>
      </trkpt>
      <trkpt lat="44.01317" lon="7.24819">
        <ele>1820</ele>
        <time>2013-08-31T10:25:34Z</time>
      </trkpt>
      <trkpt lat="44.01312" lon="7.24809">
        <ele>1820</ele>
        <time>2013-08-31T10:25:43Z</time>
      </trkpt>
      <trkpt lat="44.01305" lon="7.24799">
        <ele>1820</ele>
        <time>2013-08-31T10:25:56Z</time>
      </trkpt>
      <trkpt lat="44.01299" lon="7.2479">
        <ele>1810</ele>
        <time>2013-08-31T10:26:16Z</time>
      </trkpt>
      <trkpt lat="44.0129" lon="7.24781">
        <ele>1810</ele>
        <time>2013-08-31T10:26:31Z</time>
      </trkpt>
      <trkpt lat="44.0129" lon="7.24767">
        <ele>1801</ele>
        <time>2013-08-31T10:26:47Z</time>
      </trkpt>
      <trkpt lat="44.01294" lon="7.24755">
        <ele>1795</ele>
        <time>2013-08-31T10:26:56Z</time>
      </trkpt>
      <trkpt lat="44.01292" lon="7.24742">
        <ele>1795</ele>
        <time>2013-08-31T10:27:06Z</time>
      </trkpt>
      <trkpt lat="44.01292" lon="7.24729">
        <ele>1795</ele>
        <time>2013-08-31T10:27:15Z</time>
      </trkpt>
      <trkpt lat="44.01287" lon="7.24719">
        <ele>1795</ele>
        <time>2013-08-31T10:27:21Z</time>
      </trkpt>
      <trkpt lat="44.01288" lon="7.24703">
        <ele>1789</ele>
        <time>2013-08-31T10:27:30Z</time>
      </trkpt>
      <trkpt lat="44.01287" lon="7.24691">
        <ele>1784</ele>
        <time>2013-08-31T10:27:37Z</time>
      </trkpt>
      <trkpt lat="44.01287" lon="7.24677">
        <ele>1784</ele>
        <time>2013-08-31T10:27:44Z</time>
      </trkpt>
      <trkpt lat="44.0128" lon="7.24669">
        <ele>1784</ele>
        <time>2013-08-31T10:27:52Z</time>
      </trkpt>
      <trkpt lat="44.01279" lon="7.24655">
        <ele>1784</ele>
        <time>2013-08-31T10:27:59Z</time>
      </trkpt>
      <trkpt lat="44.01283" lon="7.24643">
        <ele>1784</ele>
        <time>2013-08-31T10:28:06Z</time>
      </trkpt>
      <trkpt lat="44.01283" lon="7.2463">
        <ele>1790</ele>
        <time>2013-08-31T10:28:17Z</time>
      </trkpt>
      <trkpt lat="44.01281" lon="7.24615">
        <ele>1790</ele>
        <time>2013-08-31T10:28:25Z</time>
      </trkpt>
      <trkpt lat="44.01279" lon="7.24603">
        <ele>1790</ele>
        <time>2013-08-31T10:28:35Z</time>
      </trkpt>
      <trkpt lat="44.01279" lon="7.2459">
        <ele>1782</ele>
        <time>2013-08-31T10:28:44Z</time>
      </trkpt>
      <trkpt lat="44.01274" lon="7.24578">
        <ele>1776</ele>
        <time>2013-08-31T10:28:52Z</time>
      </trkpt>
      <trkpt lat="44.0127" lon="7.24564">
        <ele>1776</ele>
        <time>2013-08-31T10:29:00Z</time>
      </trkpt>
      <trkpt lat="44.01262" lon="7.24559">
        <ele>1776</ele>
        <time>2013-08-31T10:29:06Z</time>
      </trkpt>
      <trkpt lat="44.01253" lon="7.24554">
        <ele>1776</ele>
        <time>2013-08-31T10:29:13Z</time>
      </trkpt>
      <trkpt lat="44.01244" lon="7.24555">
        <ele>1776</ele>
        <time>2013-08-31T10:29:21Z</time>
      </trkpt>
      <trkpt lat="44.01237" lon="7.24561">
        <ele>1776</ele>
        <time>2013-08-31T10:29:29Z</time>
      </trkpt>
      <trkpt lat="44.01231" lon="7.24571">
        <ele>1768</ele>
        <time>2013-08-31T10:29:37Z</time>
      </trkpt>
      <trkpt lat="44.01229" lon="7.24584">
        <ele>1768</ele>
        <time>2013-08-31T10:29:45Z</time>
      </trkpt>
      <trkpt lat="44.01228" lon="7.24596">
        <ele>1775</ele>
        <time>2013-08-31T10:30:06Z</time>
      </trkpt>
      <trkpt lat="44.01228" lon="7.24584">
        <ele>1775</ele>
        <time>2013-08-31T10:30:34Z</time>
      </trkpt>
      <trkpt lat="44.01229" lon="7.24571">
        <ele>1775</ele>
        <time>2013-08-31T10:30:47Z</time>
      </trkpt>
      <trkpt lat="44.01237" lon="7.24564">
        <ele>1781</ele>
        <time>2013-08-31T10:31:05Z</time>
      </trkpt>
      <trkpt lat="44.01246" lon="7.24564">
        <ele>1781</ele>
        <time>2013-08-31T10:31:18Z</time>
      </trkpt>
      <trkpt lat="44.01251" lon="7.24551">
        <ele>1781</ele>
        <time>2013-08-31T10:31:27Z</time>
      </trkpt>
      <trkpt lat="44.01242" lon="7.24543">
        <ele>1781</ele>
        <time>2013-08-31T10:31:39Z</time>
      </trkpt>
      <trkpt lat="44.01251" lon="7.24543">
        <ele>1781</ele>
        <time>2013-08-31T10:33:31Z</time>
      </trkpt>
      <trkpt lat="44.01249" lon="7.24554">
        <ele>1793</ele>
        <time>2013-08-31T10:35:38Z</time>
      </trkpt>
      <trkpt lat="44.01245" lon="7.24566">
        <ele>1793</ele>
        <time>2013-08-31T10:35:51Z</time>
      </trkpt>
      <trkpt lat="44.01255" lon="7.24565">
        <ele>1799</ele>
        <time>2013-08-31T10:36:13Z</time>
      </trkpt>
      <trkpt lat="44.01264" lon="7.24562">
        <ele>1799</ele>
        <time>2013-08-31T10:36:21Z</time>
      </trkpt>
      <trkpt lat="44.01255" lon="7.24559">
        <ele>1799</ele>
        <time>2013-08-31T10:36:55Z</time>
      </trkpt>
      <trkpt lat="44.01248" lon="7.24567">
        <ele>1799</ele>
        <time>2013-08-31T10:37:46Z</time>
      </trkpt>
      <trkpt lat="44.01248" lon="7.24554">
        <ele>1793</ele>
        <time>2013-08-31T10:39:37Z</time>
      </trkpt>
      <trkpt lat="44.01255" lon="7.24547">
        <ele>1793</ele>
        <time>2013-08-31T10:40:14Z</time>
      </trkpt>
      <trkpt lat="44.01262" lon="7.24538">
        <ele>1781</ele>
        <time>2013-08-31T10:40:25Z</time>
      </trkpt>
      <trkpt lat="44.01253" lon="7.24537">
        <ele>1787</ele>
        <time>2013-08-31T10:40:42Z</time>
      </trkpt>
      <trkpt lat="44.01244" lon="7.24541">
        <ele>1787</ele>
        <time>2013-08-31T10:41:36Z</time>
      </trkpt>
      <trkpt lat="44.01255" lon="7.24539">
        <ele>1787</ele>
        <time>2013-08-31T10:41:54Z</time>
      </trkpt>
      <trkpt lat="44.01249" lon="7.24549">
        <ele>1801</ele>
        <time>2013-08-31T10:42:12Z</time>
      </trkpt>
      <trkpt lat="44.01258" lon="7.24553">
        <ele>1809</ele>
        <time>2013-08-31T10:42:22Z</time>
      </trkpt>
      <trkpt lat="44.01252" lon="7.24564">
        <ele>1809</ele>
        <time>2013-08-31T10:42:48Z</time>
      </trkpt>
      <trkpt lat="44.01247" lon="7.24553">
        <ele>1797</ele>
        <time>2013-08-31T10:43:27Z</time>
      </trkpt>
      <trkpt lat="44.01237" lon="7.24552">
        <ele>1792</ele>
        <time>2013-08-31T10:47:16Z</time>
      </trkpt>
      <trkpt lat="44.01242" lon="7.24543">
        <ele>1805</ele>
        <time>2013-08-31T10:48:44Z</time>
      </trkpt>
      <trkpt lat="44.01249" lon="7.24534">
        <ele>1797</ele>
        <time>2013-08-31T10:49:00Z</time>
      </trkpt>
      <trkpt lat="44.01257" lon="7.24529">
        <ele>1781</ele>
        <time>2013-08-31T10:49:07Z</time>
      </trkpt>
      <trkpt lat="44.01247" lon="7.24532">
        <ele>1788</ele>
        <time>2013-08-31T10:49:15Z</time>
      </trkpt>
      <trkpt lat="44.01239" lon="7.24537">
        <ele>1799</ele>
        <time>2013-08-31T10:49:22Z</time>
      </trkpt>
      <trkpt lat="44.01229" lon="7.24539">
        <ele>1811</ele>
        <time>2013-08-31T10:49:57Z</time>
      </trkpt>
      <trkpt lat="44.01224" lon="7.2455">
        <ele>1811</ele>
        <time>2013-08-31T10:51:08Z</time>
      </trkpt>
      <trkpt lat="44.01234" lon="7.24552">
        <ele>1799</ele>
        <time>2013-08-31T10:51:14Z</time>
      </trkpt>
      <trkpt lat="44.01243" lon="7.24551">
        <ele>1790</ele>
        <time>2013-08-31T10:51:19Z</time>
      </trkpt>
      <trkpt lat="44.01233" lon="7.24559">
        <ele>1797</ele>
        <time>2013-08-31T10:52:38Z</time>
      </trkpt>
      <trkpt lat="44.01231" lon="7.2457">
        <ele>1816</ele>
        <time>2013-08-31T10:52:50Z</time>
      </trkpt>
      <trkpt lat="44.01242" lon="7.24567">
        <ele>1828</ele>
        <time>2013-08-31T10:53:16Z</time>
      </trkpt>
      <trkpt lat="44.01251" lon="7.24561">
        <ele>1821</ele>
        <time>2013-08-31T10:53:20Z</time>
      </trkpt>
      <trkpt lat="44.01262" lon="7.24555">
        <ele>1812</ele>
        <time>2013-08-31T10:53:23Z</time>
      </trkpt>
      <trkpt lat="44.0127" lon="7.24552">
        <ele>1801</ele>
        <time>2013-08-31T10:53:27Z</time>
      </trkpt>
      <trkpt lat="44.01281" lon="7.24547">
        <ele>1788</ele>
        <time>2013-08-31T10:53:32Z</time>
      </trkpt>
      <trkpt lat="44.01292" lon="7.24547">
        <ele>1769</ele>
        <time>2013-08-31T10:53:37Z</time>
      </trkpt>
      <trkpt lat="44.01302" lon="7.24548">
        <ele>1754</ele>
        <time>2013-08-31T10:53:40Z</time>
      </trkpt>
      <trkpt lat="44.01312" lon="7.2455">
        <ele>1737</ele>
        <time>2013-08-31T10:53:45Z</time>
      </trkpt>
      <trkpt lat="44.01304" lon="7.24557">
        <ele>1737</ele>
        <time>2013-08-31T10:53:52Z</time>
      </trkpt>
      <trkpt lat="44.01295" lon="7.24558">
        <ele>1737</ele>
        <time>2013-08-31T10:53:58Z</time>
      </trkpt>
      <trkpt lat="44.01285" lon="7.24556">
        <ele>1746</ele>
        <time>2013-08-31T10:54:02Z</time>
      </trkpt>
      <trkpt lat="44.01275" lon="7.24552">
        <ele>1757</ele>
        <time>2013-08-31T10:54:07Z</time>
      </trkpt>
      <trkpt lat="44.01268" lon="7.24544">
        <ele>1769</ele>
        <time>2013-08-31T10:54:23Z</time>
      </trkpt>
      <trkpt lat="44.01258" lon="7.24545">
        <ele>1782</ele>
        <time>2013-08-31T10:54:46Z</time>
      </trkpt>
      <trkpt lat="44.01249" lon="7.24546">
        <ele>1787</ele>
        <time>2013-08-31T10:54:53Z</time>
      </trkpt>
      <trkpt lat="44.0124" lon="7.24545">
        <ele>1793</ele>
        <time>2013-08-31T10:55:03Z</time>
      </trkpt>
      <trkpt lat="44.01231" lon="7.24549">
        <ele>1793</ele>
        <time>2013-08-31T10:55:09Z</time>
      </trkpt>
      <trkpt lat="44.01239" lon="7.24555">
        <ele>1793</ele>
        <time>2013-08-31T10:55:26Z</time>
      </trkpt>
      <trkpt lat="44.01231" lon="7.24561">
        <ele>1801</ele>
        <time>2013-08-31T10:55:47Z</time>
      </trkpt>
      <trkpt lat="44.01225" lon="7.24552">
        <ele>1812</ele>
        <time>2013-08-31T10:56:01Z</time>
      </trkpt>
      <trkpt lat="44.01233" lon="7.24547">
        <ele>1812</ele>
        <time>2013-08-31T10:56:10Z</time>
      </trkpt>
      <trkpt lat="44.01242" lon="7.24541">
        <ele>1798</ele>
        <time>2013-08-31T10:56:34Z</time>
      </trkpt>
      <trkpt lat="44.01252" lon="7.24536">
        <ele>1786</ele>
        <time>2013-08-31T10:56:41Z</time>
      </trkpt>
      <trkpt lat="44.01244" lon="7.24543">
        <ele>1792</ele>
        <time>2013-08-31T10:57:02Z</time>
      </trkpt>
      <trkpt lat="44.01235" lon="7.24544">
        <ele>1800</ele>
        <time>2013-08-31T10:57:06Z</time>
      </trkpt>
      <trkpt lat="44.01225" lon="7.24549">
        <ele>1809</ele>
        <time>2013-08-31T10:57:11Z</time>
      </trkpt>
      <trkpt lat="44.01233" lon="7.24553">
        <ele>1809</ele>
        <time>2013-08-31T10:57:33Z</time>
      </trkpt>
      <trkpt lat="44.0124" lon="7.24545">
        <ele>1795</ele>
        <time>2013-08-31T10:57:39Z</time>
      </trkpt>
      <trkpt lat="44.01246" lon="7.24535">
        <ele>1783</ele>
        <time>2013-08-31T10:57:52Z</time>
      </trkpt>
      <trkpt lat="44.01242" lon="7.24548">
        <ele>1783</ele>
        <time>2013-08-31T10:58:11Z</time>
      </trkpt>
      <trkpt lat="44.01239" lon="7.2456">
        <ele>1783</ele>
        <time>2013-08-31T10:58:18Z</time>
      </trkpt>
      <trkpt lat="44.01238" lon="7.24572">
        <ele>1796</ele>
        <time>2013-08-31T10:58:26Z</time>
      </trkpt>
      <trkpt lat="44.01233" lon="7.24584">
        <ele>1811</ele>
        <time>2013-08-31T10:58:34Z</time>
      </trkpt>
      <trkpt lat="44.01239" lon="7.24572">
        <ele>1803</ele>
        <time>2013-08-31T10:58:53Z</time>
      </trkpt>
      <trkpt lat="44.01236" lon="7.24559">
        <ele>1803</ele>
        <time>2013-08-31T10:59:05Z</time>
      </trkpt>
      <trkpt lat="44.01227" lon="7.2456">
        <ele>1803</ele>
        <time>2013-08-31T10:59:13Z</time>
      </trkpt>
      <trkpt lat="44.01236" lon="7.24555">
        <ele>1795</ele>
        <time>2013-08-31T10:59:36Z</time>
      </trkpt>
      <trkpt lat="44.01245" lon="7.24552">
        <ele>1786</ele>
        <time>2013-08-31T10:59:46Z</time>
      </trkpt>
      <trkpt lat="44.01237" lon="7.24559">
        <ele>1796</ele>
        <time>2013-08-31T11:00:38Z</time>
      </trkpt>
      <trkpt lat="44.0123" lon="7.24566">
        <ele>1803</ele>
        <time>2013-08-31T11:00:50Z</time>
      </trkpt>
      <trkpt lat="44.01224" lon="7.24577">
        <ele>1816</ele>
        <time>2013-08-31T11:01:00Z</time>
      </trkpt>
      <trkpt lat="44.01235" lon="7.2457">
        <ele>1816</ele>
        <time>2013-08-31T11:01:27Z</time>
      </trkpt>
      <trkpt lat="44.01244" lon="7.24567">
        <ele>1809</ele>
        <time>2013-08-31T11:01:33Z</time>
      </trkpt>
      <trkpt lat="44.01252" lon="7.2456">
        <ele>1795</ele>
        <time>2013-08-31T11:01:44Z</time>
      </trkpt>
      <trkpt lat="44.01257" lon="7.24549">
        <ele>1781</ele>
        <time>2013-08-31T11:02:00Z</time>
      </trkpt>
      <trkpt lat="44.01266" lon="7.24543">
        <ele>1766</ele>
        <time>2013-08-31T11:02:04Z</time>
      </trkpt>
      <trkpt lat="44.01277" lon="7.24542">
        <ele>1758</ele>
        <time>2013-08-31T11:02:09Z</time>
      </trkpt>
      <trkpt lat="44.01287" lon="7.24542">
        <ele>1749</ele>
        <time>2013-08-31T11:02:17Z</time>
      </trkpt>
      <trkpt lat="44.01294" lon="7.24534">
        <ele>1743</ele>
        <time>2013-08-31T11:02:30Z</time>
      </trkpt>
      <trkpt lat="44.01303" lon="7.24534">
        <ele>1743</ele>
        <time>2013-08-31T11:02:34Z</time>
      </trkpt>
      <trkpt lat="44.01294" lon="7.24539">
        <ele>1755</ele>
        <time>2013-08-31T11:03:08Z</time>
      </trkpt>
      <trkpt lat="44.01284" lon="7.24541">
        <ele>1764</ele>
        <time>2013-08-31T11:03:21Z</time>
      </trkpt>
      <trkpt lat="44.01274" lon="7.24542">
        <ele>1772</ele>
        <time>2013-08-31T11:03:33Z</time>
      </trkpt>
      <trkpt lat="44.01264" lon="7.24543">
        <ele>1772</ele>
        <time>2013-08-31T11:03:54Z</time>
      </trkpt>
      <trkpt lat="44.01256" lon="7.24548">
        <ele>1772</ele>
        <time>2013-08-31T11:04:06Z</time>
      </trkpt>
      <trkpt lat="44.01246" lon="7.24547">
        <ele>1778</ele>
        <time>2013-08-31T11:04:19Z</time>
      </trkpt>
      <trkpt lat="44.01237" lon="7.24552">
        <ele>1786</ele>
        <time>2013-08-31T11:04:33Z</time>
      </trkpt>
      <trkpt lat="44.0124" lon="7.24541">
        <ele>1768</ele>
        <time>2013-08-31T11:04:51Z</time>
      </trkpt>
      <trkpt lat="44.01233" lon="7.2455">
        <ele>1793</ele>
        <time>2013-08-31T11:05:11Z</time>
      </trkpt>
      <trkpt lat="44.01233" lon="7.24562">
        <ele>1805</ele>
        <time>2013-08-31T11:05:16Z</time>
      </trkpt>
      <trkpt lat="44.01228" lon="7.24573">
        <ele>1822</ele>
        <time>2013-08-31T11:05:23Z</time>
      </trkpt>
      <trkpt lat="44.01235" lon="7.24566">
        <ele>1799</ele>
        <time>2013-08-31T11:05:56Z</time>
      </trkpt>
      <trkpt lat="44.01242" lon="7.24556">
        <ele>1784</ele>
        <time>2013-08-31T11:06:04Z</time>
      </trkpt>
      <trkpt lat="44.01234" lon="7.2456">
        <ele>1804</ele>
        <time>2013-08-31T11:06:35Z</time>
      </trkpt>
      <trkpt lat="44.01228" lon="7.24569">
        <ele>1811</ele>
        <time>2013-08-31T11:07:06Z</time>
      </trkpt>
      <trkpt lat="44.01221" lon="7.24578">
        <ele>1821</ele>
        <time>2013-08-31T11:07:19Z</time>
      </trkpt>
      <trkpt lat="44.01228" lon="7.24569">
        <ele>1833</ele>
        <time>2013-08-31T11:07:45Z</time>
      </trkpt>
      <trkpt lat="44.01235" lon="7.24562">
        <ele>1820</ele>
        <time>2013-08-31T11:07:50Z</time>
      </trkpt>
      <trkpt lat="44.01242" lon="7.24555">
        <ele>1803</ele>
        <time>2013-08-31T11:07:56Z</time>
      </trkpt>
      <trkpt lat="44.01251" lon="7.24547">
        <ele>1787</ele>
        <time>2013-08-31T11:08:06Z</time>
      </trkpt>
      <trkpt lat="44.01244" lon="7.24555">
        <ele>1794</ele>
        <time>2013-08-31T11:08:16Z</time>
      </trkpt>
      <trkpt lat="44.01237" lon="7.24563">
        <ele>1807</ele>
        <time>2013-08-31T11:08:22Z</time>
      </trkpt>
      <trkpt lat="44.01229" lon="7.24571">
        <ele>1822</ele>
        <time>2013-08-31T11:08:31Z</time>
      </trkpt>
      <trkpt lat="44.0123" lon="7.24559">
        <ele>1813</ele>
        <time>2013-08-31T11:08:38Z</time>
      </trkpt>
      <trkpt lat="44.01222" lon="7.24563">
        <ele>1813</ele>
        <time>2013-08-31T11:08:58Z</time>
      </trkpt>
      <trkpt lat="44.01214" lon="7.24574">
        <ele>1834</ele>
        <time>2013-08-31T11:09:46Z</time>
      </trkpt>
      <trkpt lat="44.01222" lon="7.24569">
        <ele>1823</ele>
        <time>2013-08-31T11:09:54Z</time>
      </trkpt>
      <trkpt lat="44.01231" lon="7.24565">
        <ele>1812</ele>
        <time>2013-08-31T11:09:59Z</time>
      </trkpt>
      <trkpt lat="44.0124" lon="7.2456">
        <ele>1800</ele>
        <time>2013-08-31T11:10:07Z</time>
      </trkpt>
      <trkpt lat="44.0125" lon="7.24559">
        <ele>1791</ele>
        <time>2013-08-31T11:10:13Z</time>
      </trkpt>
      <trkpt lat="44.01261" lon="7.24558">
        <ele>1781</ele>
        <time>2013-08-31T11:10:27Z</time>
      </trkpt>
      <trkpt lat="44.01265" lon="7.24546">
        <ele>1769</ele>
        <time>2013-08-31T11:10:40Z</time>
      </trkpt>
      <trkpt lat="44.01258" lon="7.24553">
        <ele>1778</ele>
        <time>2013-08-31T11:10:52Z</time>
      </trkpt>
      <trkpt lat="44.01265" lon="7.2456">
        <ele>1778</ele>
        <time>2013-08-31T11:11:05Z</time>
      </trkpt>
      <trkpt lat="44.01255" lon="7.2456">
        <ele>1786</ele>
        <time>2013-08-31T11:11:23Z</time>
      </trkpt>
      <trkpt lat="44.01246" lon="7.24561">
        <ele>1792</ele>
        <time>2013-08-31T11:12:12Z</time>
      </trkpt>
      <trkpt lat="44.01242" lon="7.2455">
        <ele>1782</ele>
        <time>2013-08-31T11:12:24Z</time>
      </trkpt>
      <trkpt lat="44.01249" lon="7.24541">
        <ele>1773</ele>
        <time>2013-08-31T11:12:29Z</time>
      </trkpt>
      <trkpt lat="44.01255" lon="7.24529">
        <ele>1760</ele>
        <time>2013-08-31T11:12:35Z</time>
      </trkpt>
      <trkpt lat="44.01247" lon="7.24533">
        <ele>1778</ele>
        <time>2013-08-31T11:12:49Z</time>
      </trkpt>
      <trkpt lat="44.01239" lon="7.24527">
        <ele>1798</ele>
        <time>2013-08-31T11:13:05Z</time>
      </trkpt>
      <trkpt lat="44.01247" lon="7.24533">
        <ele>1798</ele>
        <time>2013-08-31T11:13:12Z</time>
      </trkpt>
      <trkpt lat="44.01255" lon="7.24528">
        <ele>1785</ele>
        <time>2013-08-31T11:13:16Z</time>
      </trkpt>
      <trkpt lat="44.01249" lon="7.24537">
        <ele>1780</ele>
        <time>2013-08-31T11:13:26Z</time>
      </trkpt>
      <trkpt lat="44.01244" lon="7.24549">
        <ele>1780</ele>
        <time>2013-08-31T11:13:33Z</time>
      </trkpt>
      <trkpt lat="44.0124" lon="7.2456">
        <ele>1780</ele>
        <time>2013-08-31T11:13:49Z</time>
      </trkpt>
      <trkpt lat="44.01247" lon="7.24569">
        <ele>1786</ele>
        <time>2013-08-31T11:14:50Z</time>
      </trkpt>
      <trkpt lat="44.01248" lon="7.24557">
        <ele>1771</ele>
        <time>2013-08-31T11:14:59Z</time>
      </trkpt>
      <trkpt lat="44.01237" lon="7.24555">
        <ele>1757</ele>
        <time>2013-08-31T11:15:19Z</time>
      </trkpt>
      <trkpt lat="44.01228" lon="7.2456">
        <ele>1757</ele>
        <time>2013-08-31T11:15:23Z</time>
      </trkpt>
      <trkpt lat="44.01224" lon="7.24574">
        <ele>1767</ele>
        <time>2013-08-31T11:15:30Z</time>
      </trkpt>
      <trkpt lat="44.01228" lon="7.24587">
        <ele>1767</ele>
        <time>2013-08-31T11:15:38Z</time>
      </trkpt>
      <trkpt lat="44.01231" lon="7.24599">
        <ele>1773</ele>
        <time>2013-08-31T11:15:55Z</time>
      </trkpt>
      <trkpt lat="44.01236" lon="7.24611">
        <ele>1773</ele>
        <time>2013-08-31T11:16:05Z</time>
      </trkpt>
      <trkpt lat="44.01241" lon="7.24621">
        <ele>1773</ele>
        <time>2013-08-31T11:16:13Z</time>
      </trkpt>
      <trkpt lat="44.0124" lon="7.24633">
        <ele>1779</ele>
        <time>2013-08-31T11:16:20Z</time>
      </trkpt>
      <trkpt lat="44.01234" lon="7.24642">
        <ele>1779</ele>
        <time>2013-08-31T11:16:29Z</time>
      </trkpt>
      <trkpt lat="44.01229" lon="7.24654">
        <ele>1768</ele>
        <time>2013-08-31T11:16:40Z</time>
      </trkpt>
      <trkpt lat="44.01231" lon="7.24666">
        <ele>1768</ele>
        <time>2013-08-31T11:16:46Z</time>
      </trkpt>
      <trkpt lat="44.01228" lon="7.24677">
        <ele>1768</ele>
        <time>2013-08-31T11:16:51Z</time>
      </trkpt>
      <trkpt lat="44.01221" lon="7.24687">
        <ele>1756</ele>
        <time>2013-08-31T11:17:03Z</time>
      </trkpt>
      <trkpt lat="44.0122" lon="7.247">
        <ele>1756</ele>
        <time>2013-08-31T11:17:10Z</time>
      </trkpt>
      <trkpt lat="44.01218" lon="7.24715">
        <ele>1756</ele>
        <time>2013-08-31T11:17:18Z</time>
      </trkpt>
      <trkpt lat="44.01215" lon="7.24727">
        <ele>1756</ele>
        <time>2013-08-31T11:17:25Z</time>
      </trkpt>
      <trkpt lat="44.01211" lon="7.24738">
        <ele>1773</ele>
        <time>2013-08-31T11:17:30Z</time>
      </trkpt>
      <trkpt lat="44.01206" lon="7.24749">
        <ele>1781</ele>
        <time>2013-08-31T11:17:36Z</time>
      </trkpt>
      <trkpt lat="44.01201" lon="7.24759">
        <ele>1781</ele>
        <time>2013-08-31T11:17:42Z</time>
      </trkpt>
      <trkpt lat="44.01197" lon="7.24772">
        <ele>1781</ele>
        <time>2013-08-31T11:17:50Z</time>
      </trkpt>
      <trkpt lat="44.01192" lon="7.24781">
        <ele>1781</ele>
        <time>2013-08-31T11:17:57Z</time>
      </trkpt>
      <trkpt lat="44.01183" lon="7.24777">
        <ele>1798</ele>
        <time>2013-08-31T11:18:08Z</time>
      </trkpt>
      <trkpt lat="44.01184" lon="7.24763">
        <ele>1805</ele>
        <time>2013-08-31T11:18:19Z</time>
      </trkpt>
      <trkpt lat="44.01189" lon="7.24751">
        <ele>1789</ele>
        <time>2013-08-31T11:18:27Z</time>
      </trkpt>
      <trkpt lat="44.01194" lon="7.24739">
        <ele>1773</ele>
        <time>2013-08-31T11:18:32Z</time>
      </trkpt>
      <trkpt lat="44.01188" lon="7.24729">
        <ele>1773</ele>
        <time>2013-08-31T11:18:40Z</time>
      </trkpt>
      <trkpt lat="44.01177" lon="7.24728">
        <ele>1761</ele>
        <time>2013-08-31T11:18:48Z</time>
      </trkpt>
      <trkpt lat="44.01172" lon="7.24739">
        <ele>1766</ele>
        <time>2013-08-31T11:18:55Z</time>
      </trkpt>
      <trkpt lat="44.01172" lon="7.24753">
        <ele>1772</ele>
        <time>2013-08-31T11:19:01Z</time>
      </trkpt>
      <trkpt lat="44.01169" lon="7.24766">
        <ele>1772</ele>
        <time>2013-08-31T11:19:08Z</time>
      </trkpt>
      <trkpt lat="44.01169" lon="7.24779">
        <ele>1778</ele>
        <time>2013-08-31T11:19:14Z</time>
      </trkpt>
      <trkpt lat="44.01164" lon="7.2479">
        <ele>1778</ele>
        <time>2013-08-31T11:19:20Z</time>
      </trkpt>
      <trkpt lat="44.01162" lon="7.24802">
        <ele>1778</ele>
        <time>2013-08-31T11:19:29Z</time>
      </trkpt>
      <trkpt lat="44.01154" lon="7.24808">
        <ele>1768</ele>
        <time>2013-08-31T11:19:40Z</time>
      </trkpt>
      <trkpt lat="44.01147" lon="7.24817">
        <ele>1774</ele>
        <time>2013-08-31T11:19:47Z</time>
      </trkpt>
      <trkpt lat="44.0114" lon="7.24825">
        <ele>1774</ele>
        <time>2013-08-31T11:19:53Z</time>
      </trkpt>
      <trkpt lat="44.01133" lon="7.24837">
        <ele>1774</ele>
        <time>2013-08-31T11:20:01Z</time>
      </trkpt>
      <trkpt lat="44.01124" lon="7.24842">
        <ele>1748</ele>
        <time>2013-08-31T11:20:24Z</time>
      </trkpt>
      <trkpt lat="44.01116" lon="7.24834">
        <ele>1748</ele>
        <time>2013-08-31T11:20:32Z</time>
      </trkpt>
      <trkpt lat="44.01108" lon="7.2484">
        <ele>1748</ele>
        <time>2013-08-31T11:20:44Z</time>
      </trkpt>
      <trkpt lat="44.01097" lon="7.24843">
        <ele>1759</ele>
        <time>2013-08-31T11:20:52Z</time>
      </trkpt>
      <trkpt lat="44.01089" lon="7.24837">
        <ele>1765</ele>
        <time>2013-08-31T11:21:03Z</time>
      </trkpt>
      <trkpt lat="44.01079" lon="7.24841">
        <ele>1765</ele>
        <time>2013-08-31T11:21:13Z</time>
      </trkpt>
      <trkpt lat="44.0107" lon="7.24844">
        <ele>1745</ele>
        <time>2013-08-31T11:21:23Z</time>
      </trkpt>
      <trkpt lat="44.01067" lon="7.24858">
        <ele>1745</ele>
        <time>2013-08-31T11:21:29Z</time>
      </trkpt>
      <trkpt lat="44.01067" lon="7.24871">
        <ele>1731</ele>
        <time>2013-08-31T11:21:42Z</time>
      </trkpt>
      <trkpt lat="44.0106" lon="7.24878">
        <ele>1723</ele>
        <time>2013-08-31T11:21:52Z</time>
      </trkpt>
      <trkpt lat="44.01059" lon="7.2489">
        <ele>1723</ele>
        <time>2013-08-31T11:22:02Z</time>
      </trkpt>
      <trkpt lat="44.01051" lon="7.24897">
        <ele>1712</ele>
        <time>2013-08-31T11:22:13Z</time>
      </trkpt>
      <trkpt lat="44.01048" lon="7.24909">
        <ele>1712</ele>
        <time>2013-08-31T11:22:25Z</time>
      </trkpt>
      <trkpt lat="44.01039" lon="7.24918">
        <ele>1712</ele>
        <time>2013-08-31T11:22:29Z</time>
      </trkpt>
      <trkpt lat="44.01032" lon="7.24926">
        <ele>1718</ele>
        <time>2013-08-31T11:22:34Z</time>
      </trkpt>
      <trkpt lat="44.01028" lon="7.24938">
        <ele>1718</ele>
        <time>2013-08-31T11:22:44Z</time>
      </trkpt>
      <trkpt lat="44.0102" lon="7.24943">
        <ele>1718</ele>
        <time>2013-08-31T11:22:55Z</time>
      </trkpt>
      <trkpt lat="44.01014" lon="7.24952">
        <ele>1725</ele>
        <time>2013-08-31T11:23:14Z</time>
      </trkpt>
      <trkpt lat="44.01007" lon="7.24961">
        <ele>1725</ele>
        <time>2013-08-31T11:23:22Z</time>
      </trkpt>
      <trkpt lat="44.00999" lon="7.24967">
        <ele>1725</ele>
        <time>2013-08-31T11:23:29Z</time>
      </trkpt>
      <trkpt lat="44.00992" lon="7.24975">
        <ele>1715</ele>
        <time>2013-08-31T11:23:37Z</time>
      </trkpt>
      <trkpt lat="44.0099" lon="7.24989">
        <ele>1715</ele>
        <time>2013-08-31T11:23:45Z</time>
      </trkpt>
      <trkpt lat="44.00989" lon="7.25002">
        <ele>1715</ele>
        <time>2013-08-31T11:23:52Z</time>
      </trkpt>
      <trkpt lat="44.00986" lon="7.25013">
        <ele>1715</ele>
        <time>2013-08-31T11:23:59Z</time>
      </trkpt>
      <trkpt lat="44.00988" lon="7.25027">
        <ele>1710</ele>
        <time>2013-08-31T11:24:10Z</time>
      </trkpt>
      <trkpt lat="44.00988" lon="7.2504">
        <ele>1710</ele>
        <time>2013-08-31T11:24:17Z</time>
      </trkpt>
      <trkpt lat="44.00986" lon="7.25055">
        <ele>1717</ele>
        <time>2013-08-31T11:24:24Z</time>
      </trkpt>
      <trkpt lat="44.00982" lon="7.25067">
        <ele>1723</ele>
        <time>2013-08-31T11:24:32Z</time>
      </trkpt>
      <trkpt lat="44.00974" lon="7.25074">
        <ele>1723</ele>
        <time>2013-08-31T11:24:52Z</time>
      </trkpt>
      <trkpt lat="44.00967" lon="7.25067">
        <ele>1734</ele>
        <time>2013-08-31T11:24:59Z</time>
      </trkpt>
      <trkpt lat="44.00958" lon="7.25062">
        <ele>1734</ele>
        <time>2013-08-31T11:25:12Z</time>
      </trkpt>
      <trkpt lat="44.0095" lon="7.25057">
        <ele>1708</ele>
        <time>2013-08-31T11:25:43Z</time>
      </trkpt>
      <trkpt lat="44.00941" lon="7.25059">
        <ele>1708</ele>
        <time>2013-08-31T11:25:52Z</time>
      </trkpt>
      <trkpt lat="44.00931" lon="7.2506">
        <ele>1699</ele>
        <time>2013-08-31T11:26:07Z</time>
      </trkpt>
      <trkpt lat="44.00939" lon="7.25065">
        <ele>1699</ele>
        <time>2013-08-31T11:26:18Z</time>
      </trkpt>
      <trkpt lat="44.0093" lon="7.25068">
        <ele>1707</ele>
        <time>2013-08-31T11:26:32Z</time>
      </trkpt>
      <trkpt lat="44.00921" lon="7.25073">
        <ele>1697</ele>
        <time>2013-08-31T11:26:42Z</time>
      </trkpt>
      <trkpt lat="44.00925" lon="7.25087">
        <ele>1690</ele>
        <time>2013-08-31T11:26:56Z</time>
      </trkpt>
      <trkpt lat="44.00928" lon="7.25099">
        <ele>1690</ele>
        <time>2013-08-31T11:26:59Z</time>
      </trkpt>
      <trkpt lat="44.00925" lon="7.25084">
        <ele>1690</ele>
        <time>2013-08-31T11:27:26Z</time>
      </trkpt>
      <trkpt lat="44.00927" lon="7.25071">
        <ele>1690</ele>
        <time>2013-08-31T11:28:00Z</time>
      </trkpt>
      <trkpt lat="44.00927" lon="7.25057">
        <ele>1690</ele>
        <time>2013-08-31T11:28:08Z</time>
      </trkpt>
      <trkpt lat="44.00919" lon="7.2505">
        <ele>1690</ele>
        <time>2013-08-31T11:28:16Z</time>
      </trkpt>
      <trkpt lat="44.0091" lon="7.25044">
        <ele>1704</ele>
        <time>2013-08-31T11:28:26Z</time>
      </trkpt>
      <trkpt lat="44.00912" lon="7.25031">
        <ele>1699</ele>
        <time>2013-08-31T11:28:34Z</time>
      </trkpt>
      <trkpt lat="44.00917" lon="7.2502">
        <ele>1694</ele>
        <time>2013-08-31T11:28:41Z</time>
      </trkpt>
      <trkpt lat="44.00916" lon="7.25007">
        <ele>1694</ele>
        <time>2013-08-31T11:28:46Z</time>
      </trkpt>
      <trkpt lat="44.00916" lon="7.24994">
        <ele>1694</ele>
        <time>2013-08-31T11:28:53Z</time>
      </trkpt>
      <trkpt lat="44.00912" lon="7.24983">
        <ele>1709</ele>
        <time>2013-08-31T11:29:01Z</time>
      </trkpt>
      <trkpt lat="44.00905" lon="7.24973">
        <ele>1721</ele>
        <time>2013-08-31T11:29:07Z</time>
      </trkpt>
      <trkpt lat="44.00906" lon="7.24958">
        <ele>1721</ele>
        <time>2013-08-31T11:29:15Z</time>
      </trkpt>
      <trkpt lat="44.00905" lon="7.24946">
        <ele>1721</ele>
        <time>2013-08-31T11:29:22Z</time>
      </trkpt>
      <trkpt lat="44.00907" lon="7.24932">
        <ele>1701</ele>
        <time>2013-08-31T11:29:34Z</time>
      </trkpt>
      <trkpt lat="44.00911" lon="7.2492">
        <ele>1695</ele>
        <time>2013-08-31T11:29:39Z</time>
      </trkpt>
      <trkpt lat="44.0091" lon="7.24907">
        <ele>1687</ele>
        <time>2013-08-31T11:29:45Z</time>
      </trkpt>
      <trkpt lat="44.00912" lon="7.24893">
        <ele>1674</ele>
        <time>2013-08-31T11:29:51Z</time>
      </trkpt>
      <trkpt lat="44.00917" lon="7.24881">
        <ele>1674</ele>
        <time>2013-08-31T11:29:58Z</time>
      </trkpt>
      <trkpt lat="44.00916" lon="7.24868">
        <ele>1674</ele>
        <time>2013-08-31T11:30:05Z</time>
      </trkpt>
      <trkpt lat="44.00917" lon="7.24855">
        <ele>1680</ele>
        <time>2013-08-31T11:30:12Z</time>
      </trkpt>
      <trkpt lat="44.00916" lon="7.24842">
        <ele>1680</ele>
        <time>2013-08-31T11:30:21Z</time>
      </trkpt>
      <trkpt lat="44.0091" lon="7.2483">
        <ele>1698</ele>
        <time>2013-08-31T11:30:36Z</time>
      </trkpt>
      <trkpt lat="44.00912" lon="7.24815">
        <ele>1698</ele>
        <time>2013-08-31T11:30:41Z</time>
      </trkpt>
      <trkpt lat="44.00914" lon="7.24803">
        <ele>1687</ele>
        <time>2013-08-31T11:30:45Z</time>
      </trkpt>
      <trkpt lat="44.00918" lon="7.2479">
        <ele>1679</ele>
        <time>2013-08-31T11:30:52Z</time>
      </trkpt>
      <trkpt lat="44.00917" lon="7.24777">
        <ele>1689</ele>
        <time>2013-08-31T11:31:01Z</time>
      </trkpt>
      <trkpt lat="44.00921" lon="7.24764">
        <ele>1689</ele>
        <time>2013-08-31T11:31:09Z</time>
      </trkpt>
      <trkpt lat="44.00927" lon="7.24754">
        <ele>1689</ele>
        <time>2013-08-31T11:31:15Z</time>
      </trkpt>
      <trkpt lat="44.00926" lon="7.24738">
        <ele>1716</ele>
        <time>2013-08-31T11:31:32Z</time>
      </trkpt>
      <trkpt lat="44.00928" lon="7.24725">
        <ele>1716</ele>
        <time>2013-08-31T11:31:36Z</time>
      </trkpt>
      <trkpt lat="44.00932" lon="7.24713">
        <ele>1708</ele>
        <time>2013-08-31T11:31:42Z</time>
      </trkpt>
      <trkpt lat="44.00934" lon="7.24701">
        <ele>1708</ele>
        <time>2013-08-31T11:31:51Z</time>
      </trkpt>
      <trkpt lat="44.00934" lon="7.24688">
        <ele>1708</ele>
        <time>2013-08-31T11:31:58Z</time>
      </trkpt>
      <trkpt lat="44.00937" lon="7.24675">
        <ele>1697</ele>
        <time>2013-08-31T11:32:02Z</time>
      </trkpt>
      <trkpt lat="44.00934" lon="7.24661">
        <ele>1697</ele>
        <time>2013-08-31T11:32:07Z</time>
      </trkpt>
      <trkpt lat="44.00934" lon="7.24648">
        <ele>1691</ele>
        <time>2013-08-31T11:32:11Z</time>
      </trkpt>
      <trkpt lat="44.00932" lon="7.24635">
        <ele>1691</ele>
        <time>2013-08-31T11:32:16Z</time>
      </trkpt>
      <trkpt lat="44.00927" lon="7.24625">
        <ele>1698</ele>
        <time>2013-08-31T11:32:20Z</time>
      </trkpt>
      <trkpt lat="44.00927" lon="7.24612">
        <ele>1698</ele>
        <time>2013-08-31T11:32:35Z</time>
      </trkpt>
      <trkpt lat="44.00921" lon="7.24599">
        <ele>1708</ele>
        <time>2013-08-31T11:32:40Z</time>
      </trkpt>
      <trkpt lat="44.00914" lon="7.2459">
        <ele>1708</ele>
        <time>2013-08-31T11:32:46Z</time>
      </trkpt>
      <trkpt lat="44.00914" lon="7.24577">
        <ele>1708</ele>
        <time>2013-08-31T11:32:55Z</time>
      </trkpt>
      <trkpt lat="44.00915" lon="7.24564">
        <ele>1708</ele>
        <time>2013-08-31T11:33:03Z</time>
      </trkpt>
      <trkpt lat="44.00918" lon="7.24551">
        <ele>1700</ele>
        <time>2013-08-31T11:33:06Z</time>
      </trkpt>
      <trkpt lat="44.00917" lon="7.24536">
        <ele>1700</ele>
        <time>2013-08-31T11:33:11Z</time>
      </trkpt>
      <trkpt lat="44.00909" lon="7.2453">
        <ele>1700</ele>
        <time>2013-08-31T11:33:16Z</time>
      </trkpt>
      <trkpt lat="44.00903" lon="7.24519">
        <ele>1700</ele>
        <time>2013-08-31T11:33:25Z</time>
      </trkpt>
      <trkpt lat="44.00901" lon="7.24505">
        <ele>1700</ele>
        <time>2013-08-31T11:33:35Z</time>
      </trkpt>
      <trkpt lat="44.00907" lon="7.24494">
        <ele>1700</ele>
        <time>2013-08-31T11:33:41Z</time>
      </trkpt>
      <trkpt lat="44.00912" lon="7.24483">
        <ele>1700</ele>
        <time>2013-08-31T11:33:46Z</time>
      </trkpt>
      <trkpt lat="44.00912" lon="7.24471">
        <ele>1693</ele>
        <time>2013-08-31T11:33:58Z</time>
      </trkpt>
      <trkpt lat="44.00908" lon="7.24459">
        <ele>1693</ele>
        <time>2013-08-31T11:34:01Z</time>
      </trkpt>
      <trkpt lat="44.00909" lon="7.24445">
        <ele>1687</ele>
        <time>2013-08-31T11:34:06Z</time>
      </trkpt>
      <trkpt lat="44.00908" lon="7.24432">
        <ele>1687</ele>
        <time>2013-08-31T11:34:16Z</time>
      </trkpt>
      <trkpt lat="44.00906" lon="7.24419">
        <ele>1687</ele>
        <time>2013-08-31T11:34:23Z</time>
      </trkpt>
      <trkpt lat="44.0091" lon="7.24407">
        <ele>1687</ele>
        <time>2013-08-31T11:34:27Z</time>
      </trkpt>
      <trkpt lat="44.0091" lon="7.2439">
        <ele>1687</ele>
        <time>2013-08-31T11:34:35Z</time>
      </trkpt>
      <trkpt lat="44.00912" lon="7.24377">
        <ele>1687</ele>
        <time>2013-08-31T11:34:47Z</time>
      </trkpt>
      <trkpt lat="44.00917" lon="7.24365">
        <ele>1682</ele>
        <time>2013-08-31T11:34:52Z</time>
      </trkpt>
      <trkpt lat="44.00923" lon="7.24353">
        <ele>1682</ele>
        <time>2013-08-31T11:34:57Z</time>
      </trkpt>
      <trkpt lat="44.00924" lon="7.2434">
        <ele>1682</ele>
        <time>2013-08-31T11:35:04Z</time>
      </trkpt>
      <trkpt lat="44.00929" lon="7.24329">
        <ele>1676</ele>
        <time>2013-08-31T11:35:10Z</time>
      </trkpt>
      <trkpt lat="44.00934" lon="7.24318">
        <ele>1671</ele>
        <time>2013-08-31T11:35:16Z</time>
      </trkpt>
      <trkpt lat="44.0094" lon="7.24309">
        <ele>1671</ele>
        <time>2013-08-31T11:35:20Z</time>
      </trkpt>
      <trkpt lat="44.00938" lon="7.24296">
        <ele>1665</ele>
        <time>2013-08-31T11:35:27Z</time>
      </trkpt>
      <trkpt lat="44.00938" lon="7.24283">
        <ele>1665</ele>
        <time>2013-08-31T11:35:36Z</time>
      </trkpt>
      <trkpt lat="44.00944" lon="7.2427">
        <ele>1665</ele>
        <time>2013-08-31T11:35:41Z</time>
      </trkpt>
      <trkpt lat="44.00941" lon="7.24257">
        <ele>1665</ele>
        <time>2013-08-31T11:35:48Z</time>
      </trkpt>
      <trkpt lat="44.00942" lon="7.24244">
        <ele>1665</ele>
        <time>2013-08-31T11:35:56Z</time>
      </trkpt>
      <trkpt lat="44.00946" lon="7.24232">
        <ele>1665</ele>
        <time>2013-08-31T11:36:03Z</time>
      </trkpt>
      <trkpt lat="44.00953" lon="7.24221">
        <ele>1665</ele>
        <time>2013-08-31T11:36:09Z</time>
      </trkpt>
      <trkpt lat="44.00956" lon="7.24209">
        <ele>1665</ele>
        <time>2013-08-31T11:36:17Z</time>
      </trkpt>
      <trkpt lat="44.00957" lon="7.24197">
        <ele>1665</ele>
        <time>2013-08-31T11:36:25Z</time>
      </trkpt>
      <trkpt lat="44.0096" lon="7.24184">
        <ele>1665</ele>
        <time>2013-08-31T11:36:34Z</time>
      </trkpt>
      <trkpt lat="44.00964" lon="7.24171">
        <ele>1665</ele>
        <time>2013-08-31T11:36:41Z</time>
      </trkpt>
      <trkpt lat="44.00966" lon="7.24157">
        <ele>1672</ele>
        <time>2013-08-31T11:36:50Z</time>
      </trkpt>
      <trkpt lat="44.00974" lon="7.24146">
        <ele>1672</ele>
        <time>2013-08-31T11:36:58Z</time>
      </trkpt>
      <trkpt lat="44.00979" lon="7.24136">
        <ele>1672</ele>
        <time>2013-08-31T11:37:03Z</time>
      </trkpt>
      <trkpt lat="44.00982" lon="7.24124">
        <ele>1667</ele>
        <time>2013-08-31T11:37:11Z</time>
      </trkpt>
      <trkpt lat="44.00988" lon="7.24113">
        <ele>1667</ele>
        <time>2013-08-31T11:37:16Z</time>
      </trkpt>
      <trkpt lat="44.00995" lon="7.24106">
        <ele>1661</ele>
        <time>2013-08-31T11:37:20Z</time>
      </trkpt>
      <trkpt lat="44.00997" lon="7.24093">
        <ele>1661</ele>
        <time>2013-08-31T11:37:31Z</time>
      </trkpt>
      <trkpt lat="44.01001" lon="7.24081">
        <ele>1661</ele>
        <time>2013-08-31T11:37:37Z</time>
      </trkpt>
      <trkpt lat="44.01001" lon="7.24068">
        <ele>1661</ele>
        <time>2013-08-31T11:37:43Z</time>
      </trkpt>
      <trkpt lat="44.01008" lon="7.2406">
        <ele>1661</ele>
        <time>2013-08-31T11:37:52Z</time>
      </trkpt>
      <trkpt lat="44.0101" lon="7.24048">
        <ele>1666</ele>
        <time>2013-08-31T11:37:58Z</time>
      </trkpt>
      <trkpt lat="44.01013" lon="7.24032">
        <ele>1666</ele>
        <time>2013-08-31T11:38:06Z</time>
      </trkpt>
      <trkpt lat="44.01012" lon="7.24019">
        <ele>1666</ele>
        <time>2013-08-31T11:38:11Z</time>
      </trkpt>
      <trkpt lat="44.01019" lon="7.24011">
        <ele>1666</ele>
        <time>2013-08-31T11:38:15Z</time>
      </trkpt>
      <trkpt lat="44.01023" lon="7.23998">
        <ele>1658</ele>
        <time>2013-08-31T11:38:24Z</time>
      </trkpt>
      <trkpt lat="44.01023" lon="7.23986">
        <ele>1658</ele>
        <time>2013-08-31T11:38:31Z</time>
      </trkpt>
      <trkpt lat="44.01028" lon="7.23976">
        <ele>1651</ele>
        <time>2013-08-31T11:38:38Z</time>
      </trkpt>
      <trkpt lat="44.01027" lon="7.23962">
        <ele>1651</ele>
        <time>2013-08-31T11:38:45Z</time>
      </trkpt>
      <trkpt lat="44.01027" lon="7.2395">
        <ele>1657</ele>
        <time>2013-08-31T11:38:52Z</time>
      </trkpt>
      <trkpt lat="44.0103" lon="7.23936">
        <ele>1657</ele>
        <time>2013-08-31T11:38:59Z</time>
      </trkpt>
      <trkpt lat="44.01032" lon="7.23922">
        <ele>1657</ele>
        <time>2013-08-31T11:39:07Z</time>
      </trkpt>
      <trkpt lat="44.0103" lon="7.23909">
        <ele>1649</ele>
        <time>2013-08-31T11:39:15Z</time>
      </trkpt>
      <trkpt lat="44.01024" lon="7.23898">
        <ele>1649</ele>
        <time>2013-08-31T11:39:25Z</time>
      </trkpt>
      <trkpt lat="44.01022" lon="7.23885">
        <ele>1654</ele>
        <time>2013-08-31T11:39:30Z</time>
      </trkpt>
      <trkpt lat="44.01025" lon="7.23871">
        <ele>1654</ele>
        <time>2013-08-31T11:39:37Z</time>
      </trkpt>
      <trkpt lat="44.0103" lon="7.2386">
        <ele>1654</ele>
        <time>2013-08-31T11:39:43Z</time>
      </trkpt>
      <trkpt lat="44.01031" lon="7.23846">
        <ele>1649</ele>
        <time>2013-08-31T11:39:50Z</time>
      </trkpt>
      <trkpt lat="44.01033" lon="7.23833">
        <ele>1649</ele>
        <time>2013-08-31T11:39:58Z</time>
      </trkpt>
      <trkpt lat="44.01034" lon="7.23818">
        <ele>1640</ele>
        <time>2013-08-31T11:40:04Z</time>
      </trkpt>
      <trkpt lat="44.01036" lon="7.23804">
        <ele>1640</ele>
        <time>2013-08-31T11:40:09Z</time>
      </trkpt>
      <trkpt lat="44.01031" lon="7.23793">
        <ele>1640</ele>
        <time>2013-08-31T11:40:16Z</time>
      </trkpt>
      <trkpt lat="44.01025" lon="7.23783">
        <ele>1640</ele>
        <time>2013-08-31T11:40:22Z</time>
      </trkpt>
      <trkpt lat="44.01021" lon="7.23767">
        <ele>1640</ele>
        <time>2013-08-31T11:40:31Z</time>
      </trkpt>
      <trkpt lat="44.01016" lon="7.23757">
        <ele>1647</ele>
        <time>2013-08-31T11:40:38Z</time>
      </trkpt>
      <trkpt lat="44.01012" lon="7.23747">
        <ele>1647</ele>
        <time>2013-08-31T11:40:45Z</time>
      </trkpt>
      <trkpt lat="44.01006" lon="7.23735">
        <ele>1659</ele>
        <time>2013-08-31T11:40:52Z</time>
      </trkpt>
      <trkpt lat="44.00998" lon="7.23726">
        <ele>1667</ele>
        <time>2013-08-31T11:40:59Z</time>
      </trkpt>
      <trkpt lat="44.00991" lon="7.23716">
        <ele>1667</ele>
        <time>2013-08-31T11:41:08Z</time>
      </trkpt>
      <trkpt lat="44.00985" lon="7.23705">
        <ele>1681</ele>
        <time>2013-08-31T11:41:13Z</time>
      </trkpt>
      <trkpt lat="44.00976" lon="7.23703">
        <ele>1687</ele>
        <time>2013-08-31T11:41:18Z</time>
      </trkpt>
      <trkpt lat="44.00966" lon="7.23703">
        <ele>1698</ele>
        <time>2013-08-31T11:41:23Z</time>
      </trkpt>
      <trkpt lat="44.00955" lon="7.237">
        <ele>1707</ele>
        <time>2013-08-31T11:41:32Z</time>
      </trkpt>
      <trkpt lat="44.00945" lon="7.23693">
        <ele>1707</ele>
        <time>2013-08-31T11:41:38Z</time>
      </trkpt>
      <trkpt lat="44.00941" lon="7.23681">
        <ele>1717</ele>
        <time>2013-08-31T11:41:44Z</time>
      </trkpt>
      <trkpt lat="44.00934" lon="7.23674">
        <ele>1717</ele>
        <time>2013-08-31T11:41:52Z</time>
      </trkpt>
      <trkpt lat="44.00924" lon="7.23667">
        <ele>1728</ele>
        <time>2013-08-31T11:41:59Z</time>
      </trkpt>
      <trkpt lat="44.00923" lon="7.23654">
        <ele>1728</ele>
        <time>2013-08-31T11:42:10Z</time>
      </trkpt>
      <trkpt lat="44.00912" lon="7.2365">
        <ele>1716</ele>
        <time>2013-08-31T11:42:16Z</time>
      </trkpt>
      <trkpt lat="44.00903" lon="7.23648">
        <ele>1716</ele>
        <time>2013-08-31T11:42:20Z</time>
      </trkpt>
      <trkpt lat="44.00894" lon="7.23647">
        <ele>1716</ele>
        <time>2013-08-31T11:42:23Z</time>
      </trkpt>
      <trkpt lat="44.00887" lon="7.23638">
        <ele>1716</ele>
        <time>2013-08-31T11:42:32Z</time>
      </trkpt>
      <trkpt lat="44.00878" lon="7.23638">
        <ele>1711</ele>
        <time>2013-08-31T11:42:38Z</time>
      </trkpt>
      <trkpt lat="44.0087" lon="7.23633">
        <ele>1711</ele>
        <time>2013-08-31T11:42:45Z</time>
      </trkpt>
      <trkpt lat="44.00861" lon="7.23629">
        <ele>1711</ele>
        <time>2013-08-31T11:42:52Z</time>
      </trkpt>
      <trkpt lat="44.00851" lon="7.23629">
        <ele>1721</ele>
        <time>2013-08-31T11:42:58Z</time>
      </trkpt>
      <trkpt lat="44.00841" lon="7.23629">
        <ele>1721</ele>
        <time>2013-08-31T11:43:01Z</time>
      </trkpt>
      <trkpt lat="44.00833" lon="7.23636">
        <ele>1715</ele>
        <time>2013-08-31T11:43:09Z</time>
      </trkpt>
      <trkpt lat="44.00826" lon="7.23643">
        <ele>1715</ele>
        <time>2013-08-31T11:43:13Z</time>
      </trkpt>
      <trkpt lat="44.00818" lon="7.23634">
        <ele>1721</ele>
        <time>2013-08-31T11:43:21Z</time>
      </trkpt>
      <trkpt lat="44.00805" lon="7.23632">
        <ele>1721</ele>
        <time>2013-08-31T11:43:29Z</time>
      </trkpt>
      <trkpt lat="44.00796" lon="7.23633">
        <ele>1728</ele>
        <time>2013-08-31T11:43:33Z</time>
      </trkpt>
      <trkpt lat="44.00788" lon="7.23639">
        <ele>1728</ele>
        <time>2013-08-31T11:43:38Z</time>
      </trkpt>
      <trkpt lat="44.0078" lon="7.23646">
        <ele>1728</ele>
        <time>2013-08-31T11:43:46Z</time>
      </trkpt>
      <trkpt lat="44.00772" lon="7.23653">
        <ele>1728</ele>
        <time>2013-08-31T11:43:54Z</time>
      </trkpt>
      <trkpt lat="44.00759" lon="7.23656">
        <ele>1728</ele>
        <time>2013-08-31T11:44:04Z</time>
      </trkpt>
      <trkpt lat="44.00748" lon="7.23653">
        <ele>1728</ele>
        <time>2013-08-31T11:44:14Z</time>
      </trkpt>
      <trkpt lat="44.00739" lon="7.23656">
        <ele>1728</ele>
        <time>2013-08-31T11:44:19Z</time>
      </trkpt>
      <trkpt lat="44.00728" lon="7.23657">
        <ele>1734</ele>
        <time>2013-08-31T11:44:29Z</time>
      </trkpt>
      <trkpt lat="44.00719" lon="7.23658">
        <ele>1734</ele>
        <time>2013-08-31T11:44:33Z</time>
      </trkpt>
      <trkpt lat="44.0071" lon="7.23659">
        <ele>1734</ele>
        <time>2013-08-31T11:44:39Z</time>
      </trkpt>
      <trkpt lat="44.00711" lon="7.23644">
        <ele>1734</ele>
        <time>2013-08-31T11:44:43Z</time>
      </trkpt>
      <trkpt lat="44.00702" lon="7.23652">
        <ele>1734</ele>
        <time>2013-08-31T11:44:49Z</time>
      </trkpt>
      <trkpt lat="44.00692" lon="7.23658">
        <ele>1734</ele>
        <time>2013-08-31T11:44:53Z</time>
      </trkpt>
      <trkpt lat="44.00685" lon="7.23647">
        <ele>1742</ele>
        <time>2013-08-31T11:45:03Z</time>
      </trkpt>
      <trkpt lat="44.00676" lon="7.23645">
        <ele>1742</ele>
        <time>2013-08-31T11:45:09Z</time>
      </trkpt>
      <trkpt lat="44.00667" lon="7.23651">
        <ele>1742</ele>
        <time>2013-08-31T11:45:15Z</time>
      </trkpt>
      <trkpt lat="44.00658" lon="7.23659">
        <ele>1742</ele>
        <time>2013-08-31T11:45:22Z</time>
      </trkpt>
      <trkpt lat="44.00656" lon="7.23647">
        <ele>1729</ele>
        <time>2013-08-31T11:45:31Z</time>
      </trkpt>
      <trkpt lat="44.00647" lon="7.23643">
        <ele>1722</ele>
        <time>2013-08-31T11:45:37Z</time>
      </trkpt>
      <trkpt lat="44.00636" lon="7.23648">
        <ele>1722</ele>
        <time>2013-08-31T11:45:44Z</time>
      </trkpt>
      <trkpt lat="44.00626" lon="7.23646">
        <ele>1722</ele>
        <time>2013-08-31T11:45:53Z</time>
      </trkpt>
      <trkpt lat="44.00619" lon="7.23639">
        <ele>1722</ele>
        <time>2013-08-31T11:46:03Z</time>
      </trkpt>
      <trkpt lat="44.00608" lon="7.23641">
        <ele>1722</ele>
        <time>2013-08-31T11:46:09Z</time>
      </trkpt>
      <trkpt lat="44.00596" lon="7.23636">
        <ele>1722</ele>
        <time>2013-08-31T11:46:16Z</time>
      </trkpt>
      <trkpt lat="44.00588" lon="7.2363">
        <ele>1722</ele>
        <time>2013-08-31T11:46:26Z</time>
      </trkpt>
      <trkpt lat="44.00578" lon="7.23633">
        <ele>1728</ele>
        <time>2013-08-31T11:46:34Z</time>
      </trkpt>
      <trkpt lat="44.00569" lon="7.23626">
        <ele>1728</ele>
        <time>2013-08-31T11:46:41Z</time>
      </trkpt>
      <trkpt lat="44.00559" lon="7.23621">
        <ele>1721</ele>
        <time>2013-08-31T11:46:47Z</time>
      </trkpt>
      <trkpt lat="44.00549" lon="7.23617">
        <ele>1721</ele>
        <time>2013-08-31T11:46:53Z</time>
      </trkpt>
      <trkpt lat="44.0054" lon="7.2361">
        <ele>1707</ele>
        <time>2013-08-31T11:47:06Z</time>
      </trkpt>
      <trkpt lat="44.00538" lon="7.23597">
        <ele>1701</ele>
        <time>2013-08-31T11:47:14Z</time>
      </trkpt>
      <trkpt lat="44.00531" lon="7.23589">
        <ele>1701</ele>
        <time>2013-08-31T11:47:20Z</time>
      </trkpt>
      <trkpt lat="44.00521" lon="7.23583">
        <ele>1701</ele>
        <time>2013-08-31T11:47:26Z</time>
      </trkpt>
      <trkpt lat="44.00516" lon="7.23572">
        <ele>1701</ele>
        <time>2013-08-31T11:47:32Z</time>
      </trkpt>
      <trkpt lat="44.00511" lon="7.23562">
        <ele>1701</ele>
        <time>2013-08-31T11:47:39Z</time>
      </trkpt>
      <trkpt lat="44.00503" lon="7.23555">
        <ele>1701</ele>
        <time>2013-08-31T11:47:46Z</time>
      </trkpt>
      <trkpt lat="44.00499" lon="7.23545">
        <ele>1701</ele>
        <time>2013-08-31T11:47:53Z</time>
      </trkpt>
      <trkpt lat="44.00489" lon="7.23545">
        <ele>1690</ele>
        <time>2013-08-31T11:48:02Z</time>
      </trkpt>
      <trkpt lat="44.00481" lon="7.23536">
        <ele>1690</ele>
        <time>2013-08-31T11:48:09Z</time>
      </trkpt>
      <trkpt lat="44.00472" lon="7.23539">
        <ele>1690</ele>
        <time>2013-08-31T11:48:15Z</time>
      </trkpt>
      <trkpt lat="44.00465" lon="7.23528">
        <ele>1685</ele>
        <time>2013-08-31T11:48:20Z</time>
      </trkpt>
      <trkpt lat="44.00456" lon="7.23523">
        <ele>1692</ele>
        <time>2013-08-31T11:48:26Z</time>
      </trkpt>
      <trkpt lat="44.00446" lon="7.23527">
        <ele>1692</ele>
        <time>2013-08-31T11:48:32Z</time>
      </trkpt>
      <trkpt lat="44.00438" lon="7.23523">
        <ele>1692</ele>
        <time>2013-08-31T11:48:41Z</time>
      </trkpt>
      <trkpt lat="44.00429" lon="7.23517">
        <ele>1707</ele>
        <time>2013-08-31T11:48:48Z</time>
      </trkpt>
      <trkpt lat="44.00418" lon="7.23518">
        <ele>1712</ele>
        <time>2013-08-31T11:48:56Z</time>
      </trkpt>
      <trkpt lat="44.00407" lon="7.23522">
        <ele>1712</ele>
        <time>2013-08-31T11:49:03Z</time>
      </trkpt>
      <trkpt lat="44.00396" lon="7.2352">
        <ele>1712</ele>
        <time>2013-08-31T11:49:08Z</time>
      </trkpt>
      <trkpt lat="44.00394" lon="7.23506">
        <ele>1712</ele>
        <time>2013-08-31T11:49:15Z</time>
      </trkpt>
      <trkpt lat="44.00385" lon="7.23509">
        <ele>1721</ele>
        <time>2013-08-31T11:49:20Z</time>
      </trkpt>
      <trkpt lat="44.00376" lon="7.23514">
        <ele>1721</ele>
        <time>2013-08-31T11:49:24Z</time>
      </trkpt>
      <trkpt lat="44.00363" lon="7.23526">
        <ele>1721</ele>
        <time>2013-08-31T11:49:30Z</time>
      </trkpt>
      <trkpt lat="44.00357" lon="7.23516">
        <ele>1721</ele>
        <time>2013-08-31T11:49:37Z</time>
      </trkpt>
      <trkpt lat="44.00352" lon="7.23506">
        <ele>1721</ele>
        <time>2013-08-31T11:49:46Z</time>
      </trkpt>
      <trkpt lat="44.00342" lon="7.23506">
        <ele>1714</ele>
        <time>2013-08-31T11:49:53Z</time>
      </trkpt>
      <trkpt lat="44.00332" lon="7.23506">
        <ele>1714</ele>
        <time>2013-08-31T11:50:01Z</time>
      </trkpt>
      <trkpt lat="44.00322" lon="7.23502">
        <ele>1721</ele>
        <time>2013-08-31T11:50:09Z</time>
      </trkpt>
      <trkpt lat="44.00313" lon="7.23502">
        <ele>1721</ele>
        <time>2013-08-31T11:50:16Z</time>
      </trkpt>
      <trkpt lat="44.00303" lon="7.23499">
        <ele>1721</ele>
        <time>2013-08-31T11:50:24Z</time>
      </trkpt>
      <trkpt lat="44.00294" lon="7.23502">
        <ele>1721</ele>
        <time>2013-08-31T11:50:28Z</time>
      </trkpt>
      <trkpt lat="44.00286" lon="7.23509">
        <ele>1721</ele>
        <time>2013-08-31T11:50:35Z</time>
      </trkpt>
      <trkpt lat="44.00277" lon="7.23514">
        <ele>1721</ele>
        <time>2013-08-31T11:50:40Z</time>
      </trkpt>
      <trkpt lat="44.00266" lon="7.23513">
        <ele>1721</ele>
        <time>2013-08-31T11:50:44Z</time>
      </trkpt>
      <trkpt lat="44.00257" lon="7.23516">
        <ele>1713</ele>
        <time>2013-08-31T11:50:57Z</time>
      </trkpt>
      <trkpt lat="44.00247" lon="7.23517">
        <ele>1704</ele>
        <time>2013-08-31T11:51:04Z</time>
      </trkpt>
      <trkpt lat="44.00238" lon="7.23513">
        <ele>1712</ele>
        <time>2013-08-31T11:51:11Z</time>
      </trkpt>
      <trkpt lat="44.0023" lon="7.23517">
        <ele>1721</ele>
        <time>2013-08-31T11:51:19Z</time>
      </trkpt>
      <trkpt lat="44.00221" lon="7.2352">
        <ele>1714</ele>
        <time>2013-08-31T11:51:23Z</time>
      </trkpt>
      <trkpt lat="44.00213" lon="7.23524">
        <ele>1728</ele>
        <time>2013-08-31T11:51:33Z</time>
      </trkpt>
      <trkpt lat="44.00204" lon="7.23529">
        <ele>1728</ele>
        <time>2013-08-31T11:51:39Z</time>
      </trkpt>
      <trkpt lat="44.00192" lon="7.23527">
        <ele>1737</ele>
        <time>2013-08-31T11:51:49Z</time>
      </trkpt>
      <trkpt lat="44.00182" lon="7.23535">
        <ele>1737</ele>
        <time>2013-08-31T11:51:53Z</time>
      </trkpt>
      <trkpt lat="44.00173" lon="7.23534">
        <ele>1719</ele>
        <time>2013-08-31T11:52:04Z</time>
      </trkpt>
      <trkpt lat="44.00165" lon="7.23544">
        <ele>1691</ele>
        <time>2013-08-31T11:52:24Z</time>
      </trkpt>
      <trkpt lat="44.00156" lon="7.23549">
        <ele>1691</ele>
        <time>2013-08-31T11:52:33Z</time>
      </trkpt>
      <trkpt lat="44.00148" lon="7.23555">
        <ele>1691</ele>
        <time>2013-08-31T11:52:39Z</time>
      </trkpt>
      <trkpt lat="44.0014" lon="7.23562">
        <ele>1700</ele>
        <time>2013-08-31T11:52:45Z</time>
      </trkpt>
      <trkpt lat="44.00135" lon="7.23575">
        <ele>1715</ele>
        <time>2013-08-31T11:52:51Z</time>
      </trkpt>
      <trkpt lat="44.00125" lon="7.23581">
        <ele>1715</ele>
        <time>2013-08-31T11:52:57Z</time>
      </trkpt>
      <trkpt lat="44.00114" lon="7.23589">
        <ele>1715</ele>
        <time>2013-08-31T11:53:04Z</time>
      </trkpt>
      <trkpt lat="44.00106" lon="7.23582">
        <ele>1722</ele>
        <time>2013-08-31T11:53:16Z</time>
      </trkpt>
      <trkpt lat="44.00097" lon="7.23581">
        <ele>1700</ele>
        <time>2013-08-31T11:53:28Z</time>
      </trkpt>
      <trkpt lat="44.00089" lon="7.23585">
        <ele>1664</ele>
        <time>2013-08-31T11:53:36Z</time>
      </trkpt>
      <trkpt lat="44.00086" lon="7.23597">
        <ele>1664</ele>
        <time>2013-08-31T11:53:42Z</time>
      </trkpt>
      <trkpt lat="44.00086" lon="7.23609">
        <ele>1673</ele>
        <time>2013-08-31T11:54:00Z</time>
      </trkpt>
      <trkpt lat="44.00079" lon="7.23619">
        <ele>1679</ele>
        <time>2013-08-31T11:54:07Z</time>
      </trkpt>
      <trkpt lat="44.00071" lon="7.23627">
        <ele>1684</ele>
        <time>2013-08-31T11:54:11Z</time>
      </trkpt>
      <trkpt lat="44.00064" lon="7.23635">
        <ele>1702</ele>
        <time>2013-08-31T11:54:18Z</time>
      </trkpt>
      <trkpt lat="44.00057" lon="7.23645">
        <ele>1723</ele>
        <time>2013-08-31T11:54:29Z</time>
      </trkpt>
      <trkpt lat="44.0005" lon="7.23659">
        <ele>1723</ele>
        <time>2013-08-31T11:54:33Z</time>
      </trkpt>
      <trkpt lat="44.0004" lon="7.23668">
        <ele>1708</ele>
        <time>2013-08-31T11:54:40Z</time>
      </trkpt>
      <trkpt lat="44.00031" lon="7.23673">
        <ele>1686</ele>
        <time>2013-08-31T11:55:10Z</time>
      </trkpt>
      <trkpt lat="44.00025" lon="7.23683">
        <ele>1716</ele>
        <time>2013-08-31T11:55:47Z</time>
      </trkpt>
      <trkpt lat="44.00024" lon="7.2367">
        <ele>1666</ele>
        <time>2013-08-31T11:56:26Z</time>
      </trkpt>
      <trkpt lat="44.00033" lon="7.23666">
        <ele>1666</ele>
        <time>2013-08-31T11:56:43Z</time>
      </trkpt>
      <trkpt lat="44.00027" lon="7.23654">
        <ele>1666</ele>
        <time>2013-08-31T11:57:09Z</time>
      </trkpt>
      <trkpt lat="44.00019" lon="7.23648">
        <ele>1666</ele>
        <time>2013-08-31T11:57:20Z</time>
      </trkpt>
      <trkpt lat="44.00009" lon="7.2365">
        <ele>1684</ele>
        <time>2013-08-31T11:57:25Z</time>
      </trkpt>
      <trkpt lat="44.00001" lon="7.23645">
        <ele>1684</ele>
        <time>2013-08-31T11:57:31Z</time>
      </trkpt>
      <trkpt lat="43.99992" lon="7.2364">
        <ele>1694</ele>
        <time>2013-08-31T11:57:44Z</time>
      </trkpt>
      <trkpt lat="43.99983" lon="7.23636">
        <ele>1700</ele>
        <time>2013-08-31T11:57:51Z</time>
      </trkpt>
      <trkpt lat="43.99973" lon="7.23636">
        <ele>1691</ele>
        <time>2013-08-31T11:57:57Z</time>
      </trkpt>
      <trkpt lat="43.99962" lon="7.23638">
        <ele>1691</ele>
        <time>2013-08-31T11:58:04Z</time>
      </trkpt>
      <trkpt lat="43.99953" lon="7.23636">
        <ele>1691</ele>
        <time>2013-08-31T11:58:17Z</time>
      </trkpt>
      <trkpt lat="43.99942" lon="7.23636">
        <ele>1699</ele>
        <time>2013-08-31T11:58:28Z</time>
      </trkpt>
      <trkpt lat="43.99934" lon="7.23629">
        <ele>1710</ele>
        <time>2013-08-31T11:58:36Z</time>
      </trkpt>
      <trkpt lat="43.99927" lon="7.2362">
        <ele>1704</ele>
        <time>2013-08-31T11:58:46Z</time>
      </trkpt>
      <trkpt lat="43.99924" lon="7.23607">
        <ele>1712</ele>
        <time>2013-08-31T11:58:55Z</time>
      </trkpt>
      <trkpt lat="43.99913" lon="7.23609">
        <ele>1722</ele>
        <time>2013-08-31T11:59:00Z</time>
      </trkpt>
      <trkpt lat="43.99904" lon="7.23615">
        <ele>1728</ele>
        <time>2013-08-31T11:59:03Z</time>
      </trkpt>
      <trkpt lat="43.99895" lon="7.23616">
        <ele>1728</ele>
        <time>2013-08-31T11:59:07Z</time>
      </trkpt>
      <trkpt lat="43.99885" lon="7.23619">
        <ele>1728</ele>
        <time>2013-08-31T11:59:15Z</time>
      </trkpt>
      <trkpt lat="43.99877" lon="7.23614">
        <ele>1711</ele>
        <time>2013-08-31T11:59:25Z</time>
      </trkpt>
      <trkpt lat="43.99872" lon="7.236">
        <ele>1711</ele>
        <time>2013-08-31T11:59:38Z</time>
      </trkpt>
      <trkpt lat="43.99865" lon="7.23593">
        <ele>1711</ele>
        <time>2013-08-31T11:59:45Z</time>
      </trkpt>
      <trkpt lat="43.99854" lon="7.23598">
        <ele>1711</ele>
        <time>2013-08-31T11:59:49Z</time>
      </trkpt>
      <trkpt lat="43.99845" lon="7.23601">
        <ele>1711</ele>
        <time>2013-08-31T11:59:55Z</time>
      </trkpt>
      <trkpt lat="43.99835" lon="7.23603">
        <ele>1711</ele>
        <time>2013-08-31T12:00:00Z</time>
      </trkpt>
      <trkpt lat="43.99828" lon="7.23613">
        <ele>1711</ele>
        <time>2013-08-31T12:00:04Z</time>
      </trkpt>
      <trkpt lat="43.99819" lon="7.23619">
        <ele>1705</ele>
        <time>2013-08-31T12:00:09Z</time>
      </trkpt>
      <trkpt lat="43.9981" lon="7.23624">
        <ele>1698</ele>
        <time>2013-08-31T12:00:17Z</time>
      </trkpt>
      <trkpt lat="43.99801" lon="7.23629">
        <ele>1690</ele>
        <time>2013-08-31T12:00:35Z</time>
      </trkpt>
      <trkpt lat="43.99793" lon="7.23622">
        <ele>1695</ele>
        <time>2013-08-31T12:00:48Z</time>
      </trkpt>
      <trkpt lat="43.99784" lon="7.23615">
        <ele>1695</ele>
        <time>2013-08-31T12:00:58Z</time>
      </trkpt>
      <trkpt lat="43.99774" lon="7.23619">
        <ele>1695</ele>
        <time>2013-08-31T12:01:01Z</time>
      </trkpt>
      <trkpt lat="43.99764" lon="7.23612">
        <ele>1701</ele>
        <time>2013-08-31T12:01:07Z</time>
      </trkpt>
      <trkpt lat="43.99755" lon="7.2361">
        <ele>1708</ele>
        <time>2013-08-31T12:01:13Z</time>
      </trkpt>
      <trkpt lat="43.99745" lon="7.23614">
        <ele>1719</ele>
        <time>2013-08-31T12:01:24Z</time>
      </trkpt>
      <trkpt lat="43.99737" lon="7.23623">
        <ele>1719</ele>
        <time>2013-08-31T12:01:30Z</time>
      </trkpt>
      <trkpt lat="43.99728" lon="7.23631">
        <ele>1719</ele>
        <time>2013-08-31T12:01:35Z</time>
      </trkpt>
      <trkpt lat="43.99719" lon="7.23634">
        <ele>1719</ele>
        <time>2013-08-31T12:01:45Z</time>
      </trkpt>
      <trkpt lat="43.9971" lon="7.23641">
        <ele>1724</ele>
        <time>2013-08-31T12:01:48Z</time>
      </trkpt>
      <trkpt lat="43.99703" lon="7.2365">
        <ele>1724</ele>
        <time>2013-08-31T12:01:55Z</time>
      </trkpt>
      <trkpt lat="43.99692" lon="7.23654">
        <ele>1716</ele>
        <time>2013-08-31T12:02:01Z</time>
      </trkpt>
      <trkpt lat="43.99683" lon="7.23654">
        <ele>1724</ele>
        <time>2013-08-31T12:02:14Z</time>
      </trkpt>
      <trkpt lat="43.99668" lon="7.23658">
        <ele>1724</ele>
        <time>2013-08-31T12:02:23Z</time>
      </trkpt>
      <trkpt lat="43.9966" lon="7.23668">
        <ele>1724</ele>
        <time>2013-08-31T12:02:26Z</time>
      </trkpt>
      <trkpt lat="43.99649" lon="7.23668">
        <ele>1711</ele>
        <time>2013-08-31T12:02:43Z</time>
      </trkpt>
      <trkpt lat="43.99639" lon="7.23671">
        <ele>1711</ele>
        <time>2013-08-31T12:02:53Z</time>
      </trkpt>
      <trkpt lat="43.99629" lon="7.23678">
        <ele>1705</ele>
        <time>2013-08-31T12:03:01Z</time>
      </trkpt>
      <trkpt lat="43.99619" lon="7.23682">
        <ele>1705</ele>
        <time>2013-08-31T12:03:05Z</time>
      </trkpt>
      <trkpt lat="43.99608" lon="7.23688">
        <ele>1705</ele>
        <time>2013-08-31T12:03:11Z</time>
      </trkpt>
      <trkpt lat="43.99599" lon="7.2369">
        <ele>1705</ele>
        <time>2013-08-31T12:03:16Z</time>
      </trkpt>
      <trkpt lat="43.99591" lon="7.23701">
        <ele>1705</ele>
        <time>2013-08-31T12:03:25Z</time>
      </trkpt>
      <trkpt lat="43.99583" lon="7.23695">
        <ele>1692</ele>
        <time>2013-08-31T12:03:38Z</time>
      </trkpt>
      <trkpt lat="43.9958" lon="7.23682">
        <ele>1692</ele>
        <time>2013-08-31T12:03:47Z</time>
      </trkpt>
      <trkpt lat="43.99579" lon="7.23668">
        <ele>1677</ele>
        <time>2013-08-31T12:03:55Z</time>
      </trkpt>
      <trkpt lat="43.99571" lon="7.23659">
        <ele>1677</ele>
        <time>2013-08-31T12:04:03Z</time>
      </trkpt>
      <trkpt lat="43.99566" lon="7.2365">
        <ele>1677</ele>
        <time>2013-08-31T12:04:10Z</time>
      </trkpt>
      <trkpt lat="43.99553" lon="7.23647">
        <ele>1659</ele>
        <time>2013-08-31T12:04:18Z</time>
      </trkpt>
      <trkpt lat="43.99542" lon="7.2365">
        <ele>1659</ele>
        <time>2013-08-31T12:04:21Z</time>
      </trkpt>
      <trkpt lat="43.99535" lon="7.23642">
        <ele>1659</ele>
        <time>2013-08-31T12:04:34Z</time>
      </trkpt>
      <trkpt lat="43.99525" lon="7.23647">
        <ele>1665</ele>
        <time>2013-08-31T12:04:39Z</time>
      </trkpt>
      <trkpt lat="43.99516" lon="7.2365">
        <ele>1665</ele>
        <time>2013-08-31T12:04:43Z</time>
      </trkpt>
      <trkpt lat="43.99507" lon="7.23655">
        <ele>1665</ele>
        <time>2013-08-31T12:05:01Z</time>
      </trkpt>
      <trkpt lat="43.99496" lon="7.2366">
        <ele>1665</ele>
        <time>2013-08-31T12:05:05Z</time>
      </trkpt>
      <trkpt lat="43.99486" lon="7.23667">
        <ele>1665</ele>
        <time>2013-08-31T12:05:09Z</time>
      </trkpt>
      <trkpt lat="43.99478" lon="7.23673">
        <ele>1672</ele>
        <time>2013-08-31T12:05:12Z</time>
      </trkpt>
      <trkpt lat="43.99527" lon="7.23632">
        <ele>1684</ele>
        <time>2013-08-31T12:05:48Z</time>
      </trkpt>
      <trkpt lat="43.9954" lon="7.23627">
        <ele>1684</ele>
        <time>2013-08-31T12:05:50Z</time>
      </trkpt>
      <trkpt lat="43.99549" lon="7.23632">
        <ele>1684</ele>
        <time>2013-08-31T12:05:53Z</time>
      </trkpt>
      <trkpt lat="43.99542" lon="7.23644">
        <ele>1684</ele>
        <time>2013-08-31T12:05:56Z</time>
      </trkpt>
      <trkpt lat="43.99532" lon="7.23647">
        <ele>1684</ele>
        <time>2013-08-31T12:06:02Z</time>
      </trkpt>
      <trkpt lat="43.99523" lon="7.23652">
        <ele>1684</ele>
        <time>2013-08-31T12:06:11Z</time>
      </trkpt>
      <trkpt lat="43.99513" lon="7.23652">
        <ele>1677</ele>
        <time>2013-08-31T12:06:20Z</time>
      </trkpt>
      <trkpt lat="43.99501" lon="7.23654">
        <ele>1649</ele>
        <time>2013-08-31T12:06:28Z</time>
      </trkpt>
      <trkpt lat="43.99492" lon="7.23651">
        <ele>1628</ele>
        <time>2013-08-31T12:06:31Z</time>
      </trkpt>
      <trkpt lat="43.99484" lon="7.23658">
        <ele>1600</ele>
        <time>2013-08-31T12:06:44Z</time>
      </trkpt>
      <trkpt lat="43.9949" lon="7.23668">
        <ele>1629</ele>
        <time>2013-08-31T12:07:01Z</time>
      </trkpt>
      <trkpt lat="43.995" lon="7.23669">
        <ele>1644</ele>
        <time>2013-08-31T12:07:10Z</time>
      </trkpt>
      <trkpt lat="43.99509" lon="7.23674">
        <ele>1660</ele>
        <time>2013-08-31T12:07:41Z</time>
      </trkpt>
      <trkpt lat="43.99518" lon="7.23674">
        <ele>1660</ele>
        <time>2013-08-31T12:07:49Z</time>
      </trkpt>
      <trkpt lat="43.99506" lon="7.23669">
        <ele>1647</ele>
        <time>2013-08-31T12:08:00Z</time>
      </trkpt>
      <trkpt lat="43.99512" lon="7.23683">
        <ele>1647</ele>
        <time>2013-08-31T12:08:06Z</time>
      </trkpt>
      <trkpt lat="43.99509" lon="7.23671">
        <ele>1633</ele>
        <time>2013-08-31T12:08:16Z</time>
      </trkpt>
      <trkpt lat="43.99503" lon="7.23659">
        <ele>1633</ele>
        <time>2013-08-31T12:08:31Z</time>
      </trkpt>
      <trkpt lat="43.99512" lon="7.23664">
        <ele>1633</ele>
        <time>2013-08-31T12:08:41Z</time>
      </trkpt>
      <trkpt lat="43.99507" lon="7.23651">
        <ele>1651</ele>
        <time>2013-08-31T12:09:22Z</time>
      </trkpt>
      <trkpt lat="43.99493" lon="7.23644">
        <ele>1662</ele>
        <time>2013-08-31T12:09:32Z</time>
      </trkpt>
      <trkpt lat="43.99485" lon="7.23638">
        <ele>1671</ele>
        <time>2013-08-31T12:09:39Z</time>
      </trkpt>
      <trkpt lat="43.9948" lon="7.23626">
        <ele>1679</ele>
        <time>2013-08-31T12:09:47Z</time>
      </trkpt>
      <trkpt lat="43.99472" lon="7.2362">
        <ele>1679</ele>
        <time>2013-08-31T12:09:53Z</time>
      </trkpt>
      <trkpt lat="43.99462" lon="7.23618">
        <ele>1660</ele>
        <time>2013-08-31T12:10:03Z</time>
      </trkpt>
      <trkpt lat="43.99452" lon="7.23615">
        <ele>1660</ele>
        <time>2013-08-31T12:10:09Z</time>
      </trkpt>
      <trkpt lat="43.99443" lon="7.23607">
        <ele>1654</ele>
        <time>2013-08-31T12:10:15Z</time>
      </trkpt>
      <trkpt lat="43.99433" lon="7.23605">
        <ele>1654</ele>
        <time>2013-08-31T12:10:25Z</time>
      </trkpt>
      <trkpt lat="43.99425" lon="7.23601">
        <ele>1654</ele>
        <time>2013-08-31T12:10:30Z</time>
      </trkpt>
      <trkpt lat="43.99415" lon="7.23599">
        <ele>1654</ele>
        <time>2013-08-31T12:10:36Z</time>
      </trkpt>
      <trkpt lat="43.99405" lon="7.23602">
        <ele>1646</ele>
        <time>2013-08-31T12:10:41Z</time>
      </trkpt>
      <trkpt lat="43.99396" lon="7.23606">
        <ele>1639</ele>
        <time>2013-08-31T12:10:46Z</time>
      </trkpt>
      <trkpt lat="43.99387" lon="7.23608">
        <ele>1653</ele>
        <time>2013-08-31T12:10:56Z</time>
      </trkpt>
      <trkpt lat="43.99377" lon="7.23606">
        <ele>1647</ele>
        <time>2013-08-31T12:11:02Z</time>
      </trkpt>
      <trkpt lat="43.99366" lon="7.23606">
        <ele>1640</ele>
        <time>2013-08-31T12:11:09Z</time>
      </trkpt>
      <trkpt lat="43.99362" lon="7.2362">
        <ele>1633</ele>
        <time>2013-08-31T12:11:14Z</time>
      </trkpt>
      <trkpt lat="43.99352" lon="7.23624">
        <ele>1633</ele>
        <time>2013-08-31T12:11:21Z</time>
      </trkpt>
      <trkpt lat="43.99343" lon="7.23623">
        <ele>1633</ele>
        <time>2013-08-31T12:11:28Z</time>
      </trkpt>
      <trkpt lat="43.99335" lon="7.2363">
        <ele>1647</ele>
        <time>2013-08-31T12:11:43Z</time>
      </trkpt>
      <trkpt lat="43.99324" lon="7.2363">
        <ele>1660</ele>
        <time>2013-08-31T12:11:50Z</time>
      </trkpt>
      <trkpt lat="43.99318" lon="7.2364">
        <ele>1660</ele>
        <time>2013-08-31T12:11:54Z</time>
      </trkpt>
      <trkpt lat="43.99309" lon="7.2364">
        <ele>1654</ele>
        <time>2013-08-31T12:11:59Z</time>
      </trkpt>
      <trkpt lat="43.993" lon="7.23647">
        <ele>1654</ele>
        <time>2013-08-31T12:12:10Z</time>
      </trkpt>
      <trkpt lat="43.99288" lon="7.2365">
        <ele>1654</ele>
        <time>2013-08-31T12:12:15Z</time>
      </trkpt>
      <trkpt lat="43.99285" lon="7.23663">
        <ele>1654</ele>
        <time>2013-08-31T12:12:20Z</time>
      </trkpt>
      <trkpt lat="43.99275" lon="7.23665">
        <ele>1636</ele>
        <time>2013-08-31T12:12:28Z</time>
      </trkpt>
      <trkpt lat="43.99266" lon="7.23662">
        <ele>1636</ele>
        <time>2013-08-31T12:12:36Z</time>
      </trkpt>
      <trkpt lat="43.99257" lon="7.23668">
        <ele>1636</ele>
        <time>2013-08-31T12:12:42Z</time>
      </trkpt>
      <trkpt lat="43.99247" lon="7.23668">
        <ele>1626</ele>
        <time>2013-08-31T12:12:46Z</time>
      </trkpt>
      <trkpt lat="43.99239" lon="7.23674">
        <ele>1621</ele>
        <time>2013-08-31T12:12:52Z</time>
      </trkpt>
      <trkpt lat="43.99234" lon="7.23685">
        <ele>1609</ele>
        <time>2013-08-31T12:13:04Z</time>
      </trkpt>
      <trkpt lat="43.99243" lon="7.23685">
        <ele>1609</ele>
        <time>2013-08-31T12:13:18Z</time>
      </trkpt>
      <trkpt lat="43.99249" lon="7.23674">
        <ele>1609</ele>
        <time>2013-08-31T12:13:26Z</time>
      </trkpt>
      <trkpt lat="43.99256" lon="7.23666">
        <ele>1601</ele>
        <time>2013-08-31T12:13:33Z</time>
      </trkpt>
      <trkpt lat="43.99264" lon="7.23659">
        <ele>1607</ele>
        <time>2013-08-31T12:13:40Z</time>
      </trkpt>
      <trkpt lat="43.99268" lon="7.23648">
        <ele>1614</ele>
        <time>2013-08-31T12:13:50Z</time>
      </trkpt>
      <trkpt lat="43.99275" lon="7.2364">
        <ele>1614</ele>
        <time>2013-08-31T12:13:55Z</time>
      </trkpt>
      <trkpt lat="43.99285" lon="7.23635">
        <ele>1627</ele>
        <time>2013-08-31T12:13:59Z</time>
      </trkpt>
      <trkpt lat="43.99293" lon="7.23627">
        <ele>1627</ele>
        <time>2013-08-31T12:14:07Z</time>
      </trkpt>
      <trkpt lat="43.99298" lon="7.23616">
        <ele>1615</ele>
        <time>2013-08-31T12:14:18Z</time>
      </trkpt>
      <trkpt lat="43.99306" lon="7.23608">
        <ele>1604</ele>
        <time>2013-08-31T12:14:24Z</time>
      </trkpt>
      <trkpt lat="43.99314" lon="7.23603">
        <ele>1604</ele>
        <time>2013-08-31T12:14:31Z</time>
      </trkpt>
      <trkpt lat="43.99321" lon="7.23593">
        <ele>1598</ele>
        <time>2013-08-31T12:14:37Z</time>
      </trkpt>
      <trkpt lat="43.99328" lon="7.23584">
        <ele>1605</ele>
        <time>2013-08-31T12:14:45Z</time>
      </trkpt>
      <trkpt lat="43.99335" lon="7.23578">
        <ele>1605</ele>
        <time>2013-08-31T12:14:53Z</time>
      </trkpt>
      <trkpt lat="43.99342" lon="7.23565">
        <ele>1605</ele>
        <time>2013-08-31T12:15:02Z</time>
      </trkpt>
      <trkpt lat="43.99348" lon="7.23554">
        <ele>1605</ele>
        <time>2013-08-31T12:15:11Z</time>
      </trkpt>
      <trkpt lat="43.99357" lon="7.23553">
        <ele>1605</ele>
        <time>2013-08-31T12:15:18Z</time>
      </trkpt>
      <trkpt lat="43.99365" lon="7.23545">
        <ele>1605</ele>
        <time>2013-08-31T12:15:25Z</time>
      </trkpt>
      <trkpt lat="43.99373" lon="7.2354">
        <ele>1605</ele>
        <time>2013-08-31T12:15:34Z</time>
      </trkpt>
      <trkpt lat="43.9938" lon="7.2353">
        <ele>1610</ele>
        <time>2013-08-31T12:15:42Z</time>
      </trkpt>
      <trkpt lat="43.9939" lon="7.23528">
        <ele>1619</ele>
        <time>2013-08-31T12:15:48Z</time>
      </trkpt>
      <trkpt lat="43.994" lon="7.2352">
        <ele>1619</ele>
        <time>2013-08-31T12:15:53Z</time>
      </trkpt>
      <trkpt lat="43.99401" lon="7.23508">
        <ele>1619</ele>
        <time>2013-08-31T12:15:57Z</time>
      </trkpt>
      <trkpt lat="43.99413" lon="7.23504">
        <ele>1636</ele>
        <time>2013-08-31T12:16:19Z</time>
      </trkpt>
      <trkpt lat="43.99421" lon="7.2351">
        <ele>1613</ele>
        <time>2013-08-31T12:16:35Z</time>
      </trkpt>
      <trkpt lat="43.99428" lon="7.23503">
        <ele>1597</ele>
        <time>2013-08-31T12:16:40Z</time>
      </trkpt>
      <trkpt lat="43.9944" lon="7.23504">
        <ele>1581</ele>
        <time>2013-08-31T12:16:54Z</time>
      </trkpt>
      <trkpt lat="43.99451" lon="7.2351">
        <ele>1581</ele>
        <time>2013-08-31T12:17:06Z</time>
      </trkpt>
      <trkpt lat="43.99461" lon="7.23513">
        <ele>1574</ele>
        <time>2013-08-31T12:17:13Z</time>
      </trkpt>
      <trkpt lat="43.9947" lon="7.23509">
        <ele>1580</ele>
        <time>2013-08-31T12:17:19Z</time>
      </trkpt>
      <trkpt lat="43.99474" lon="7.23497">
        <ele>1590</ele>
        <time>2013-08-31T12:17:23Z</time>
      </trkpt>
      <trkpt lat="43.99483" lon="7.23491">
        <ele>1598</ele>
        <time>2013-08-31T12:17:27Z</time>
      </trkpt>
      <trkpt lat="43.99492" lon="7.23484">
        <ele>1609</ele>
        <time>2013-08-31T12:17:31Z</time>
      </trkpt>
      <trkpt lat="43.99501" lon="7.23477">
        <ele>1617</ele>
        <time>2013-08-31T12:17:34Z</time>
      </trkpt>
      <trkpt lat="43.99511" lon="7.23482">
        <ele>1617</ele>
        <time>2013-08-31T12:17:42Z</time>
      </trkpt>
      <trkpt lat="43.99517" lon="7.2347">
        <ele>1617</ele>
        <time>2013-08-31T12:17:52Z</time>
      </trkpt>
      <trkpt lat="43.9952" lon="7.23456">
        <ele>1617</ele>
        <time>2013-08-31T12:18:02Z</time>
      </trkpt>
      <trkpt lat="43.99529" lon="7.23456">
        <ele>1654</ele>
        <time>2013-08-31T12:18:18Z</time>
      </trkpt>
      <trkpt lat="43.99521" lon="7.2345">
        <ele>1597</ele>
        <time>2013-08-31T12:18:52Z</time>
      </trkpt>
      <trkpt lat="43.9952" lon="7.23438">
        <ele>1610</ele>
        <time>2013-08-31T12:18:57Z</time>
      </trkpt>
      <trkpt lat="43.99514" lon="7.23447">
        <ele>1616</ele>
        <time>2013-08-31T12:19:15Z</time>
      </trkpt>
      <trkpt lat="43.99525" lon="7.23444">
        <ele>1602</ele>
        <time>2013-08-31T12:19:43Z</time>
      </trkpt>
      <trkpt lat="43.99516" lon="7.23464">
        <ele>1596</ele>
        <time>2013-08-31T12:19:47Z</time>
      </trkpt>
      <trkpt lat="43.99523" lon="7.23455">
        <ele>1628</ele>
        <time>2013-08-31T12:20:24Z</time>
      </trkpt>
      <trkpt lat="43.99527" lon="7.23444">
        <ele>1644</ele>
        <time>2013-08-31T12:20:31Z</time>
      </trkpt>
      <trkpt lat="43.99527" lon="7.23456">
        <ele>1634</ele>
        <time>2013-08-31T12:20:37Z</time>
      </trkpt>
      <trkpt lat="43.99518" lon="7.23452">
        <ele>1621</ele>
        <time>2013-08-31T12:21:32Z</time>
      </trkpt>
      <trkpt lat="43.99516" lon="7.23464">
        <ele>1605</ele>
        <time>2013-08-31T12:22:49Z</time>
      </trkpt>
      <trkpt lat="43.99523" lon="7.23473">
        <ele>1605</ele>
        <time>2013-08-31T12:22:53Z</time>
      </trkpt>
      <trkpt lat="43.99514" lon="7.23469">
        <ele>1595</ele>
        <time>2013-08-31T12:23:18Z</time>
      </trkpt>
      <trkpt lat="43.99507" lon="7.23457">
        <ele>1614</ele>
        <time>2013-08-31T12:23:33Z</time>
      </trkpt>
      <trkpt lat="43.995" lon="7.23449">
        <ele>1601</ele>
        <time>2013-08-31T12:23:46Z</time>
      </trkpt>
      <trkpt lat="43.99491" lon="7.23453">
        <ele>1561</ele>
        <time>2013-08-31T12:23:56Z</time>
      </trkpt>
      <trkpt lat="43.99485" lon="7.23444">
        <ele>1553</ele>
        <time>2013-08-31T12:24:03Z</time>
      </trkpt>
      <trkpt lat="43.99475" lon="7.23445">
        <ele>1547</ele>
        <time>2013-08-31T12:24:13Z</time>
      </trkpt>
      <trkpt lat="43.9947" lon="7.23433">
        <ele>1536</ele>
        <time>2013-08-31T12:24:20Z</time>
      </trkpt>
      <trkpt lat="43.99464" lon="7.23421">
        <ele>1547</ele>
        <time>2013-08-31T12:24:27Z</time>
      </trkpt>
      <trkpt lat="43.99463" lon="7.23407">
        <ele>1547</ele>
        <time>2013-08-31T12:24:30Z</time>
      </trkpt>
      <trkpt lat="43.9946" lon="7.23395">
        <ele>1567</ele>
        <time>2013-08-31T12:24:35Z</time>
      </trkpt>
      <trkpt lat="43.99458" lon="7.23382">
        <ele>1594</ele>
        <time>2013-08-31T12:24:44Z</time>
      </trkpt>
      <trkpt lat="43.99452" lon="7.23393">
        <ele>1607</ele>
        <time>2013-08-31T12:25:05Z</time>
      </trkpt>
      <trkpt lat="43.99459" lon="7.234">
        <ele>1607</ele>
        <time>2013-08-31T12:25:15Z</time>
      </trkpt>
      <trkpt lat="43.99468" lon="7.23404">
        <ele>1607</ele>
        <time>2013-08-31T12:25:21Z</time>
      </trkpt>
      <trkpt lat="43.99468" lon="7.23417">
        <ele>1607</ele>
        <time>2013-08-31T12:25:34Z</time>
      </trkpt>
      <trkpt lat="43.99469" lon="7.2343">
        <ele>1600</ele>
        <time>2013-08-31T12:25:41Z</time>
      </trkpt>
      <trkpt lat="43.99468" lon="7.23444">
        <ele>1577</ele>
        <time>2013-08-31T12:25:48Z</time>
      </trkpt>
      <trkpt lat="43.99477" lon="7.23443">
        <ele>1583</ele>
        <time>2013-08-31T12:25:58Z</time>
      </trkpt>
      <trkpt lat="43.99476" lon="7.23457">
        <ele>1583</ele>
        <time>2013-08-31T12:26:04Z</time>
      </trkpt>
      <trkpt lat="43.99483" lon="7.23464">
        <ele>1583</ele>
        <time>2013-08-31T12:26:13Z</time>
      </trkpt>
      <trkpt lat="43.99487" lon="7.23476">
        <ele>1571</ele>
        <time>2013-08-31T12:26:19Z</time>
      </trkpt>
      <trkpt lat="43.99491" lon="7.23487">
        <ele>1560</ele>
        <time>2013-08-31T12:26:46Z</time>
      </trkpt>
      <trkpt lat="43.995" lon="7.23483">
        <ele>1580</ele>
        <time>2013-08-31T12:27:04Z</time>
      </trkpt>
      <trkpt lat="43.99512" lon="7.23478">
        <ele>1580</ele>
        <time>2013-08-31T12:27:08Z</time>
      </trkpt>
      <trkpt lat="43.99521" lon="7.23474">
        <ele>1580</ele>
        <time>2013-08-31T12:27:11Z</time>
      </trkpt>
      <trkpt lat="43.99531" lon="7.23464">
        <ele>1593</ele>
        <time>2013-08-31T12:27:15Z</time>
      </trkpt>
      <trkpt lat="43.99538" lon="7.23454">
        <ele>1593</ele>
        <time>2013-08-31T12:27:20Z</time>
      </trkpt>
      <trkpt lat="43.99545" lon="7.23445">
        <ele>1603</ele>
        <time>2013-08-31T12:27:25Z</time>
      </trkpt>
      <trkpt lat="43.99555" lon="7.23441">
        <ele>1618</ele>
        <time>2013-08-31T12:27:32Z</time>
      </trkpt>
      <trkpt lat="43.99559" lon="7.2343">
        <ele>1618</ele>
        <time>2013-08-31T12:27:38Z</time>
      </trkpt>
      <trkpt lat="43.99568" lon="7.23427">
        <ele>1618</ele>
        <time>2013-08-31T12:27:43Z</time>
      </trkpt>
      <trkpt lat="43.9957" lon="7.23415">
        <ele>1618</ele>
        <time>2013-08-31T12:27:50Z</time>
      </trkpt>
      <trkpt lat="43.99577" lon="7.23406">
        <ele>1603</ele>
        <time>2013-08-31T12:28:03Z</time>
      </trkpt>
      <trkpt lat="43.9957" lon="7.23398">
        <ele>1603</ele>
        <time>2013-08-31T12:28:09Z</time>
      </trkpt>
      <trkpt lat="43.99559" lon="7.23396">
        <ele>1594</ele>
        <time>2013-08-31T12:28:12Z</time>
      </trkpt>
      <trkpt lat="43.99549" lon="7.23394">
        <ele>1594</ele>
        <time>2013-08-31T12:28:17Z</time>
      </trkpt>
      <trkpt lat="43.9954" lon="7.23394">
        <ele>1585</ele>
        <time>2013-08-31T12:28:21Z</time>
      </trkpt>
      <trkpt lat="43.9954" lon="7.23379">
        <ele>1585</ele>
        <time>2013-08-31T12:28:30Z</time>
      </trkpt>
      <trkpt lat="43.99538" lon="7.23367">
        <ele>1579</ele>
        <time>2013-08-31T12:28:36Z</time>
      </trkpt>
      <trkpt lat="43.99533" lon="7.23356">
        <ele>1579</ele>
        <time>2013-08-31T12:28:43Z</time>
      </trkpt>
      <trkpt lat="43.99525" lon="7.23347">
        <ele>1579</ele>
        <time>2013-08-31T12:28:53Z</time>
      </trkpt>
      <trkpt lat="43.99514" lon="7.23344">
        <ele>1573</ele>
        <time>2013-08-31T12:29:00Z</time>
      </trkpt>
      <trkpt lat="43.99502" lon="7.23345">
        <ele>1573</ele>
        <time>2013-08-31T12:29:04Z</time>
      </trkpt>
      <trkpt lat="43.99493" lon="7.23346">
        <ele>1573</ele>
        <time>2013-08-31T12:29:08Z</time>
      </trkpt>
      <trkpt lat="43.99485" lon="7.2334">
        <ele>1573</ele>
        <time>2013-08-31T12:29:15Z</time>
      </trkpt>
      <trkpt lat="43.99495" lon="7.23331">
        <ele>1565</ele>
        <time>2013-08-31T12:29:36Z</time>
      </trkpt>
      <trkpt lat="43.99492" lon="7.23316">
        <ele>1560</ele>
        <time>2013-08-31T12:29:52Z</time>
      </trkpt>
      <trkpt lat="43.99481" lon="7.23316">
        <ele>1569</ele>
        <time>2013-08-31T12:30:01Z</time>
      </trkpt>
      <trkpt lat="43.99472" lon="7.23316">
        <ele>1569</ele>
        <time>2013-08-31T12:30:06Z</time>
      </trkpt>
      <trkpt lat="43.99461" lon="7.23318">
        <ele>1563</ele>
        <time>2013-08-31T12:30:11Z</time>
      </trkpt>
      <trkpt lat="43.99452" lon="7.23318">
        <ele>1563</ele>
        <time>2013-08-31T12:30:18Z</time>
      </trkpt>
      <trkpt lat="43.9944" lon="7.23321">
        <ele>1573</ele>
        <time>2013-08-31T12:30:21Z</time>
      </trkpt>
      <trkpt lat="43.99436" lon="7.2331">
        <ele>1564</ele>
        <time>2013-08-31T12:30:39Z</time>
      </trkpt>
      <trkpt lat="43.99433" lon="7.23297">
        <ele>1546</ele>
        <time>2013-08-31T12:30:53Z</time>
      </trkpt>
      <trkpt lat="43.99429" lon="7.23285">
        <ele>1538</ele>
        <time>2013-08-31T12:31:01Z</time>
      </trkpt>
      <trkpt lat="43.99418" lon="7.23284">
        <ele>1538</ele>
        <time>2013-08-31T12:31:06Z</time>
      </trkpt>
      <trkpt lat="43.99409" lon="7.23285">
        <ele>1545</ele>
        <time>2013-08-31T12:31:10Z</time>
      </trkpt>
      <trkpt lat="43.99414" lon="7.23271">
        <ele>1550</ele>
        <time>2013-08-31T12:31:24Z</time>
      </trkpt>
      <trkpt lat="43.99405" lon="7.23268">
        <ele>1550</ele>
        <time>2013-08-31T12:31:36Z</time>
      </trkpt>
      <trkpt lat="43.99396" lon="7.23266">
        <ele>1560</ele>
        <time>2013-08-31T12:31:44Z</time>
      </trkpt>
      <trkpt lat="43.99387" lon="7.23264">
        <ele>1560</ele>
        <time>2013-08-31T12:31:53Z</time>
      </trkpt>
      <trkpt lat="43.99384" lon="7.23253">
        <ele>1541</ele>
        <time>2013-08-31T12:32:06Z</time>
      </trkpt>
      <trkpt lat="43.99383" lon="7.2324">
        <ele>1529</ele>
        <time>2013-08-31T12:32:14Z</time>
      </trkpt>
      <trkpt lat="43.99374" lon="7.23237">
        <ele>1529</ele>
        <time>2013-08-31T12:32:22Z</time>
      </trkpt>
      <trkpt lat="43.99367" lon="7.23229">
        <ele>1529</ele>
        <time>2013-08-31T12:32:32Z</time>
      </trkpt>
      <trkpt lat="43.99357" lon="7.23227">
        <ele>1529</ele>
        <time>2013-08-31T12:32:39Z</time>
      </trkpt>
      <trkpt lat="43.99348" lon="7.23229">
        <ele>1529</ele>
        <time>2013-08-31T12:32:47Z</time>
      </trkpt>
      <trkpt lat="43.99337" lon="7.23218">
        <ele>1539</ele>
        <time>2013-08-31T12:33:08Z</time>
      </trkpt>
      <trkpt lat="43.9933" lon="7.23209">
        <ele>1539</ele>
        <time>2013-08-31T12:33:11Z</time>
      </trkpt>
      <trkpt lat="43.99321" lon="7.23207">
        <ele>1539</ele>
        <time>2013-08-31T12:33:18Z</time>
      </trkpt>
      <trkpt lat="43.99314" lon="7.23199">
        <ele>1539</ele>
        <time>2013-08-31T12:33:26Z</time>
      </trkpt>
      <trkpt lat="43.99303" lon="7.23193">
        <ele>1539</ele>
        <time>2013-08-31T12:33:32Z</time>
      </trkpt>
      <trkpt lat="43.99296" lon="7.23184">
        <ele>1525</ele>
        <time>2013-08-31T12:33:51Z</time>
      </trkpt>
      <trkpt lat="43.99287" lon="7.23189">
        <ele>1525</ele>
        <time>2013-08-31T12:33:55Z</time>
      </trkpt>
      <trkpt lat="43.99278" lon="7.23186">
        <ele>1515</ele>
        <time>2013-08-31T12:34:15Z</time>
      </trkpt>
      <trkpt lat="43.99265" lon="7.23187">
        <ele>1515</ele>
        <time>2013-08-31T12:34:28Z</time>
      </trkpt>
      <trkpt lat="43.99256" lon="7.23191">
        <ele>1523</ele>
        <time>2013-08-31T12:34:34Z</time>
      </trkpt>
      <trkpt lat="43.99249" lon="7.23184">
        <ele>1503</ele>
        <time>2013-08-31T12:34:57Z</time>
      </trkpt>
      <trkpt lat="43.99241" lon="7.23175">
        <ele>1503</ele>
        <time>2013-08-31T12:35:00Z</time>
      </trkpt>
      <trkpt lat="43.99232" lon="7.23171">
        <ele>1497</ele>
        <time>2013-08-31T12:35:14Z</time>
      </trkpt>
      <trkpt lat="43.99222" lon="7.23175">
        <ele>1502</ele>
        <time>2013-08-31T12:35:18Z</time>
      </trkpt>
      <trkpt lat="43.9921" lon="7.23173">
        <ele>1494</ele>
        <time>2013-08-31T12:35:25Z</time>
      </trkpt>
      <trkpt lat="43.992" lon="7.23179">
        <ele>1489</ele>
        <time>2013-08-31T12:35:32Z</time>
      </trkpt>
      <trkpt lat="43.99191" lon="7.23185">
        <ele>1489</ele>
        <time>2013-08-31T12:35:34Z</time>
      </trkpt>
      <trkpt lat="43.99182" lon="7.23187">
        <ele>1489</ele>
        <time>2013-08-31T12:35:38Z</time>
      </trkpt>
      <trkpt lat="43.99191" lon="7.23168">
        <ele>1496</ele>
        <time>2013-08-31T12:35:45Z</time>
      </trkpt>
      <trkpt lat="43.99195" lon="7.23154">
        <ele>1496</ele>
        <time>2013-08-31T12:35:49Z</time>
      </trkpt>
      <trkpt lat="43.9919" lon="7.23144">
        <ele>1496</ele>
        <time>2013-08-31T12:36:13Z</time>
      </trkpt>
      <trkpt lat="43.99183" lon="7.23155">
        <ele>1496</ele>
        <time>2013-08-31T12:36:18Z</time>
      </trkpt>
      <trkpt lat="43.99175" lon="7.23161">
        <ele>1496</ele>
        <time>2013-08-31T12:36:30Z</time>
      </trkpt>
      <trkpt lat="43.99166" lon="7.23156">
        <ele>1487</ele>
        <time>2013-08-31T12:36:40Z</time>
      </trkpt>
      <trkpt lat="43.99158" lon="7.23163">
        <ele>1481</ele>
        <time>2013-08-31T12:36:47Z</time>
      </trkpt>
      <trkpt lat="43.99149" lon="7.23167">
        <ele>1481</ele>
        <time>2013-08-31T12:36:57Z</time>
      </trkpt>
      <trkpt lat="43.9914" lon="7.23166">
        <ele>1481</ele>
        <time>2013-08-31T12:37:06Z</time>
      </trkpt>
      <trkpt lat="43.9913" lon="7.23162">
        <ele>1481</ele>
        <time>2013-08-31T12:37:11Z</time>
      </trkpt>
      <trkpt lat="43.99122" lon="7.23165">
        <ele>1481</ele>
        <time>2013-08-31T12:37:18Z</time>
      </trkpt>
      <trkpt lat="43.99113" lon="7.23169">
        <ele>1481</ele>
        <time>2013-08-31T12:37:32Z</time>
      </trkpt>
      <trkpt lat="43.99104" lon="7.23174">
        <ele>1481</ele>
        <time>2013-08-31T12:37:40Z</time>
      </trkpt>
      <trkpt lat="43.99094" lon="7.23173">
        <ele>1481</ele>
        <time>2013-08-31T12:37:46Z</time>
      </trkpt>
      <trkpt lat="43.99084" lon="7.23175">
        <ele>1481</ele>
        <time>2013-08-31T12:37:53Z</time>
      </trkpt>
      <trkpt lat="43.99077" lon="7.23182">
        <ele>1486</ele>
        <time>2013-08-31T12:38:02Z</time>
      </trkpt>
      <trkpt lat="43.99068" lon="7.23182">
        <ele>1486</ele>
        <time>2013-08-31T12:38:13Z</time>
      </trkpt>
      <trkpt lat="43.99057" lon="7.23184">
        <ele>1486</ele>
        <time>2013-08-31T12:38:21Z</time>
      </trkpt>
      <trkpt lat="43.99047" lon="7.23182">
        <ele>1486</ele>
        <time>2013-08-31T12:38:28Z</time>
      </trkpt>
      <trkpt lat="43.99038" lon="7.23183">
        <ele>1475</ele>
        <time>2013-08-31T12:38:35Z</time>
      </trkpt>
      <trkpt lat="43.99042" lon="7.23172">
        <ele>1470</ele>
        <time>2013-08-31T12:38:55Z</time>
      </trkpt>
      <trkpt lat="43.99045" lon="7.23159">
        <ele>1470</ele>
        <time>2013-08-31T12:39:05Z</time>
      </trkpt>
      <trkpt lat="43.99037" lon="7.23152">
        <ele>1470</ele>
        <time>2013-08-31T12:39:15Z</time>
      </trkpt>
      <trkpt lat="43.99028" lon="7.23155">
        <ele>1464</ele>
        <time>2013-08-31T12:39:27Z</time>
      </trkpt>
      <trkpt lat="43.99019" lon="7.23153">
        <ele>1464</ele>
        <time>2013-08-31T12:39:47Z</time>
      </trkpt>
      <trkpt lat="43.99011" lon="7.23149">
        <ele>1464</ele>
        <time>2013-08-31T12:39:56Z</time>
      </trkpt>
      <trkpt lat="43.99017" lon="7.23138">
        <ele>1464</ele>
        <time>2013-08-31T12:40:10Z</time>
      </trkpt>
      <trkpt lat="43.99004" lon="7.23151">
        <ele>1450</ele>
        <time>2013-08-31T12:40:32Z</time>
      </trkpt>
      <trkpt lat="43.99012" lon="7.23147">
        <ele>1439</ele>
        <time>2013-08-31T12:40:43Z</time>
      </trkpt>
      <trkpt lat="43.9902" lon="7.23139">
        <ele>1450</ele>
        <time>2013-08-31T12:41:07Z</time>
      </trkpt>
      <trkpt lat="43.99027" lon="7.23132">
        <ele>1460</ele>
        <time>2013-08-31T12:41:37Z</time>
      </trkpt>
      <trkpt lat="43.99017" lon="7.23129">
        <ele>1460</ele>
        <time>2013-08-31T12:41:48Z</time>
      </trkpt>
      <trkpt lat="43.99009" lon="7.23136">
        <ele>1460</ele>
        <time>2013-08-31T12:42:04Z</time>
      </trkpt>
      <trkpt lat="43.99018" lon="7.23137">
        <ele>1460</ele>
        <time>2013-08-31T12:43:27Z</time>
      </trkpt>
      <trkpt lat="43.99022" lon="7.23148">
        <ele>1447</ele>
        <time>2013-08-31T12:43:45Z</time>
      </trkpt>
      <trkpt lat="43.99013" lon="7.23147">
        <ele>1447</ele>
        <time>2013-08-31T12:44:04Z</time>
      </trkpt>
      <trkpt lat="43.9902" lon="7.23139">
        <ele>1447</ele>
        <time>2013-08-31T12:44:09Z</time>
      </trkpt>
      <trkpt lat="43.99013" lon="7.23132">
        <ele>1447</ele>
        <time>2013-08-31T12:44:44Z</time>
      </trkpt>
      <trkpt lat="43.99003" lon="7.23129">
        <ele>1453</ele>
        <time>2013-08-31T12:44:51Z</time>
      </trkpt>
      <trkpt lat="43.98994" lon="7.23131">
        <ele>1439</ele>
        <time>2013-08-31T12:45:05Z</time>
      </trkpt>
      <trkpt lat="43.98983" lon="7.2313">
        <ele>1446</ele>
        <time>2013-08-31T12:45:22Z</time>
      </trkpt>
      <trkpt lat="43.98972" lon="7.23127">
        <ele>1446</ele>
        <time>2013-08-31T12:45:36Z</time>
      </trkpt>
      <trkpt lat="43.98962" lon="7.23131">
        <ele>1446</ele>
        <time>2013-08-31T12:45:42Z</time>
      </trkpt>
      <trkpt lat="43.98953" lon="7.23127">
        <ele>1446</ele>
        <time>2013-08-31T12:45:58Z</time>
      </trkpt>
      <trkpt lat="43.98944" lon="7.23131">
        <ele>1456</ele>
        <time>2013-08-31T12:46:08Z</time>
      </trkpt>
      <trkpt lat="43.98937" lon="7.23138">
        <ele>1456</ele>
        <time>2013-08-31T12:46:17Z</time>
      </trkpt>
      <trkpt lat="43.98929" lon="7.23145">
        <ele>1450</ele>
        <time>2013-08-31T12:46:25Z</time>
      </trkpt>
      <trkpt lat="43.9892" lon="7.23144">
        <ele>1443</ele>
        <time>2013-08-31T12:46:37Z</time>
      </trkpt>
      <trkpt lat="43.9891" lon="7.2315">
        <ele>1437</ele>
        <time>2013-08-31T12:46:48Z</time>
      </trkpt>
      <trkpt lat="43.989" lon="7.23153">
        <ele>1447</ele>
        <time>2013-08-31T12:46:58Z</time>
      </trkpt>
      <trkpt lat="43.98891" lon="7.23149">
        <ele>1440</ele>
        <time>2013-08-31T12:47:06Z</time>
      </trkpt>
      <trkpt lat="43.98881" lon="7.23147">
        <ele>1429</ele>
        <time>2013-08-31T12:47:30Z</time>
      </trkpt>
      <trkpt lat="43.98871" lon="7.2315">
        <ele>1429</ele>
        <time>2013-08-31T12:47:41Z</time>
      </trkpt>
      <trkpt lat="43.98862" lon="7.23149">
        <ele>1429</ele>
        <time>2013-08-31T12:47:54Z</time>
      </trkpt>
      <trkpt lat="43.98855" lon="7.23157">
        <ele>1420</ele>
        <time>2013-08-31T12:48:05Z</time>
      </trkpt>
      <trkpt lat="43.98844" lon="7.23156">
        <ele>1420</ele>
        <time>2013-08-31T12:48:15Z</time>
      </trkpt>
      <trkpt lat="43.98841" lon="7.23144">
        <ele>1420</ele>
        <time>2013-08-31T12:48:38Z</time>
      </trkpt>
      <trkpt lat="43.98831" lon="7.23149">
        <ele>1412</ele>
        <time>2013-08-31T12:48:51Z</time>
      </trkpt>
      <trkpt lat="43.98822" lon="7.23153">
        <ele>1412</ele>
        <time>2013-08-31T12:48:58Z</time>
      </trkpt>
      <trkpt lat="43.98818" lon="7.23164">
        <ele>1406</ele>
        <time>2013-08-31T12:49:13Z</time>
      </trkpt>
      <trkpt lat="43.98808" lon="7.23164">
        <ele>1398</ele>
        <time>2013-08-31T12:49:40Z</time>
      </trkpt>
      <trkpt lat="43.98799" lon="7.23159">
        <ele>1398</ele>
        <time>2013-08-31T12:49:51Z</time>
      </trkpt>
      <trkpt lat="43.98792" lon="7.23152">
        <ele>1406</ele>
        <time>2013-08-31T12:50:01Z</time>
      </trkpt>
      <trkpt lat="43.98793" lon="7.23139">
        <ele>1388</ele>
        <time>2013-08-31T12:50:39Z</time>
      </trkpt>
      <trkpt lat="43.98785" lon="7.23135">
        <ele>1388</ele>
        <time>2013-08-31T12:50:56Z</time>
      </trkpt>
      <trkpt lat="43.98778" lon="7.23142">
        <ele>1380</ele>
        <time>2013-08-31T12:51:20Z</time>
      </trkpt>
      <trkpt lat="43.98769" lon="7.2314">
        <ele>1380</ele>
        <time>2013-08-31T12:51:33Z</time>
      </trkpt>
      <trkpt lat="43.98763" lon="7.2315">
        <ele>1380</ele>
        <time>2013-08-31T12:51:43Z</time>
      </trkpt>
      <trkpt lat="43.98754" lon="7.23152">
        <ele>1386</ele>
        <time>2013-08-31T12:51:51Z</time>
      </trkpt>
      <trkpt lat="43.98744" lon="7.23149">
        <ele>1396</ele>
        <time>2013-08-31T12:51:58Z</time>
      </trkpt>
      <trkpt lat="43.98734" lon="7.23147">
        <ele>1396</ele>
        <time>2013-08-31T12:52:08Z</time>
      </trkpt>
      <trkpt lat="43.98725" lon="7.2315">
        <ele>1396</ele>
        <time>2013-08-31T12:52:17Z</time>
      </trkpt>
      <trkpt lat="43.9872" lon="7.23163">
        <ele>1396</ele>
        <time>2013-08-31T12:52:22Z</time>
      </trkpt>
      <trkpt lat="43.98717" lon="7.23174">
        <ele>1373</ele>
        <time>2013-08-31T12:52:33Z</time>
      </trkpt>
      <trkpt lat="43.98712" lon="7.23184">
        <ele>1373</ele>
        <time>2013-08-31T12:52:42Z</time>
      </trkpt>
      <trkpt lat="43.98706" lon="7.23195">
        <ele>1373</ele>
        <time>2013-08-31T12:52:52Z</time>
      </trkpt>
      <trkpt lat="43.98699" lon="7.23204">
        <ele>1373</ele>
        <time>2013-08-31T12:53:02Z</time>
      </trkpt>
      <trkpt lat="43.9869" lon="7.23203">
        <ele>1367</ele>
        <time>2013-08-31T12:53:10Z</time>
      </trkpt>
      <trkpt lat="43.9868" lon="7.23204">
        <ele>1367</ele>
        <time>2013-08-31T12:53:18Z</time>
      </trkpt>
      <trkpt lat="43.98671" lon="7.23204">
        <ele>1367</ele>
        <time>2013-08-31T12:53:22Z</time>
      </trkpt>
      <trkpt lat="43.98662" lon="7.2321">
        <ele>1367</ele>
        <time>2013-08-31T12:53:33Z</time>
      </trkpt>
      <trkpt lat="43.98649" lon="7.23215">
        <ele>1367</ele>
        <time>2013-08-31T12:53:44Z</time>
      </trkpt>
      <trkpt lat="43.9864" lon="7.23221">
        <ele>1367</ele>
        <time>2013-08-31T12:53:50Z</time>
      </trkpt>
      <trkpt lat="43.9863" lon="7.23223">
        <ele>1367</ele>
        <time>2013-08-31T12:54:00Z</time>
      </trkpt>
      <trkpt lat="43.9862" lon="7.23225">
        <ele>1367</ele>
        <time>2013-08-31T12:54:13Z</time>
      </trkpt>
      <trkpt lat="43.98611" lon="7.23227">
        <ele>1367</ele>
        <time>2013-08-31T12:54:19Z</time>
      </trkpt>
      <trkpt lat="43.98603" lon="7.23233">
        <ele>1360</ele>
        <time>2013-08-31T12:54:54Z</time>
      </trkpt>
      <trkpt lat="43.98593" lon="7.23235">
        <ele>1360</ele>
        <time>2013-08-31T12:55:01Z</time>
      </trkpt>
      <trkpt lat="43.98585" lon="7.23241">
        <ele>1353</ele>
        <time>2013-08-31T12:55:10Z</time>
      </trkpt>
      <trkpt lat="43.98579" lon="7.2325">
        <ele>1353</ele>
        <time>2013-08-31T12:55:56Z</time>
      </trkpt>
      <trkpt lat="43.98569" lon="7.23253">
        <ele>1371</ele>
        <time>2013-08-31T12:57:11Z</time>
      </trkpt>
      <trkpt lat="43.9856" lon="7.2325">
        <ele>1371</ele>
        <time>2013-08-31T12:57:38Z</time>
      </trkpt>
      <trkpt lat="43.98559" lon="7.23263">
        <ele>1364</ele>
        <time>2013-08-31T12:57:57Z</time>
      </trkpt>
      <trkpt lat="43.98555" lon="7.23276">
        <ele>1354</ele>
        <time>2013-08-31T12:58:05Z</time>
      </trkpt>
      <trkpt lat="43.98545" lon="7.2328">
        <ele>1354</ele>
        <time>2013-08-31T12:58:14Z</time>
      </trkpt>
      <trkpt lat="43.98543" lon="7.23292">
        <ele>1360</ele>
        <time>2013-08-31T12:58:22Z</time>
      </trkpt>
      <trkpt lat="43.98535" lon="7.23301">
        <ele>1360</ele>
        <time>2013-08-31T12:58:27Z</time>
      </trkpt>
      <trkpt lat="43.98538" lon="7.23313">
        <ele>1360</ele>
        <time>2013-08-31T12:58:40Z</time>
      </trkpt>
      <trkpt lat="43.98533" lon="7.23324">
        <ele>1360</ele>
        <time>2013-08-31T12:58:48Z</time>
      </trkpt>
      <trkpt lat="43.98538" lon="7.23333">
        <ele>1366</ele>
        <time>2013-08-31T12:58:54Z</time>
      </trkpt>
      <trkpt lat="43.98533" lon="7.23344">
        <ele>1374</ele>
        <time>2013-08-31T12:59:07Z</time>
      </trkpt>
      <trkpt lat="43.98523" lon="7.23347">
        <ele>1374</ele>
        <time>2013-08-31T12:59:11Z</time>
      </trkpt>
      <trkpt lat="43.98511" lon="7.23348">
        <ele>1381</ele>
        <time>2013-08-31T12:59:15Z</time>
      </trkpt>
      <trkpt lat="43.98504" lon="7.23356">
        <ele>1381</ele>
        <time>2013-08-31T12:59:26Z</time>
      </trkpt>
      <trkpt lat="43.98494" lon="7.23359">
        <ele>1374</ele>
        <time>2013-08-31T12:59:35Z</time>
      </trkpt>
      <trkpt lat="43.98485" lon="7.23361">
        <ele>1374</ele>
        <time>2013-08-31T12:59:45Z</time>
      </trkpt>
      <trkpt lat="43.98476" lon="7.23364">
        <ele>1374</ele>
        <time>2013-08-31T12:59:49Z</time>
      </trkpt>
      <trkpt lat="43.98474" lon="7.23377">
        <ele>1374</ele>
        <time>2013-08-31T13:00:05Z</time>
      </trkpt>
      <trkpt lat="43.98467" lon="7.23386">
        <ele>1386</ele>
        <time>2013-08-31T13:00:22Z</time>
      </trkpt>
      <trkpt lat="43.98464" lon="7.23398">
        <ele>1386</ele>
        <time>2013-08-31T13:00:35Z</time>
      </trkpt>
      <trkpt lat="43.98455" lon="7.23395">
        <ele>1386</ele>
        <time>2013-08-31T13:00:54Z</time>
      </trkpt>
      <trkpt lat="43.98447" lon="7.23406">
        <ele>1386</ele>
        <time>2013-08-31T13:01:10Z</time>
      </trkpt>
      <trkpt lat="43.98438" lon="7.23413">
        <ele>1386</ele>
        <time>2013-08-31T13:01:15Z</time>
      </trkpt>
      <trkpt lat="43.98438" lon="7.23426">
        <ele>1386</ele>
        <time>2013-08-31T13:01:29Z</time>
      </trkpt>
      <trkpt lat="43.98429" lon="7.2343">
        <ele>1386</ele>
        <time>2013-08-31T13:01:44Z</time>
      </trkpt>
      <trkpt lat="43.9842" lon="7.23439">
        <ele>1398</ele>
        <time>2013-08-31T13:01:55Z</time>
      </trkpt>
      <trkpt lat="43.98416" lon="7.23453">
        <ele>1398</ele>
        <time>2013-08-31T13:02:05Z</time>
      </trkpt>
      <trkpt lat="43.98424" lon="7.23459">
        <ele>1398</ele>
        <time>2013-08-31T13:02:09Z</time>
      </trkpt>
      <trkpt lat="43.98417" lon="7.23468">
        <ele>1398</ele>
        <time>2013-08-31T13:02:27Z</time>
      </trkpt>
      <trkpt lat="43.98409" lon="7.23473">
        <ele>1398</ele>
        <time>2013-08-31T13:02:31Z</time>
      </trkpt>
      <trkpt lat="43.98398" lon="7.23477">
        <ele>1388</ele>
        <time>2013-08-31T13:02:39Z</time>
      </trkpt>
      <trkpt lat="43.98388" lon="7.2348">
        <ele>1388</ele>
        <time>2013-08-31T13:02:42Z</time>
      </trkpt>
      <trkpt lat="43.98378" lon="7.23484">
        <ele>1388</ele>
        <time>2013-08-31T13:02:46Z</time>
      </trkpt>
      <trkpt lat="43.98369" lon="7.23488">
        <ele>1388</ele>
        <time>2013-08-31T13:02:56Z</time>
      </trkpt>
      <trkpt lat="43.98359" lon="7.23493">
        <ele>1388</ele>
        <time>2013-08-31T13:03:01Z</time>
      </trkpt>
      <trkpt lat="43.9835" lon="7.235">
        <ele>1388</ele>
        <time>2013-08-31T13:03:04Z</time>
      </trkpt>
      <trkpt lat="43.98344" lon="7.23509">
        <ele>1383</ele>
        <time>2013-08-31T13:03:20Z</time>
      </trkpt>
      <trkpt lat="43.9833" lon="7.23509">
        <ele>1383</ele>
        <time>2013-08-31T13:03:24Z</time>
      </trkpt>
      <trkpt lat="43.98325" lon="7.23518">
        <ele>1375</ele>
        <time>2013-08-31T13:03:31Z</time>
      </trkpt>
      <trkpt lat="43.98318" lon="7.23527">
        <ele>1375</ele>
        <time>2013-08-31T13:03:41Z</time>
      </trkpt>
      <trkpt lat="43.98312" lon="7.23536">
        <ele>1390</ele>
        <time>2013-08-31T13:03:55Z</time>
      </trkpt>
      <trkpt lat="43.98304" lon="7.23544">
        <ele>1390</ele>
        <time>2013-08-31T13:04:02Z</time>
      </trkpt>
      <trkpt lat="43.98294" lon="7.23544">
        <ele>1377</ele>
        <time>2013-08-31T13:04:09Z</time>
      </trkpt>
      <trkpt lat="43.98285" lon="7.2354">
        <ele>1377</ele>
        <time>2013-08-31T13:04:13Z</time>
      </trkpt>
      <trkpt lat="43.98278" lon="7.23547">
        <ele>1377</ele>
        <time>2013-08-31T13:04:25Z</time>
      </trkpt>
      <trkpt lat="43.98269" lon="7.23551">
        <ele>1377</ele>
        <time>2013-08-31T13:04:31Z</time>
      </trkpt>
      <trkpt lat="43.98261" lon="7.23558">
        <ele>1386</ele>
        <time>2013-08-31T13:04:40Z</time>
      </trkpt>
      <trkpt lat="43.98252" lon="7.23564">
        <ele>1392</ele>
        <time>2013-08-31T13:04:45Z</time>
      </trkpt>
      <trkpt lat="43.98251" lon="7.23577">
        <ele>1392</ele>
        <time>2013-08-31T13:04:55Z</time>
      </trkpt>
      <trkpt lat="43.98256" lon="7.23587">
        <ele>1384</ele>
        <time>2013-08-31T13:05:02Z</time>
      </trkpt>
      <trkpt lat="43.98248" lon="7.23593">
        <ele>1391</ele>
        <time>2013-08-31T13:05:14Z</time>
      </trkpt>
      <trkpt lat="43.98238" lon="7.23598">
        <ele>1391</ele>
        <time>2013-08-31T13:05:18Z</time>
      </trkpt>
      <trkpt lat="43.98227" lon="7.23601">
        <ele>1391</ele>
        <time>2013-08-31T13:05:28Z</time>
      </trkpt>
      <trkpt lat="43.98217" lon="7.23598">
        <ele>1391</ele>
        <time>2013-08-31T13:05:30Z</time>
      </trkpt>
      <trkpt lat="43.98206" lon="7.23593">
        <ele>1397</ele>
        <time>2013-08-31T13:05:33Z</time>
      </trkpt>
      <trkpt lat="43.98197" lon="7.23597">
        <ele>1386</ele>
        <time>2013-08-31T13:05:57Z</time>
      </trkpt>
      <trkpt lat="43.98187" lon="7.23591">
        <ele>1386</ele>
        <time>2013-08-31T13:06:03Z</time>
      </trkpt>
      <trkpt lat="43.98179" lon="7.23587">
        <ele>1398</ele>
        <time>2013-08-31T13:06:11Z</time>
      </trkpt>
      <trkpt lat="43.9817" lon="7.23591">
        <ele>1398</ele>
        <time>2013-08-31T13:06:21Z</time>
      </trkpt>
      <trkpt lat="43.98161" lon="7.23595">
        <ele>1398</ele>
        <time>2013-08-31T13:06:27Z</time>
      </trkpt>
      <trkpt lat="43.9816" lon="7.23581">
        <ele>1377</ele>
        <time>2013-08-31T13:06:54Z</time>
      </trkpt>
      <trkpt lat="43.98156" lon="7.2357">
        <ele>1377</ele>
        <time>2013-08-31T13:07:06Z</time>
      </trkpt>
      <trkpt lat="43.98148" lon="7.23566">
        <ele>1383</ele>
        <time>2013-08-31T13:07:16Z</time>
      </trkpt>
      <trkpt lat="43.98139" lon="7.23561">
        <ele>1391</ele>
        <time>2013-08-31T13:07:22Z</time>
      </trkpt>
      <trkpt lat="43.9813" lon="7.23555">
        <ele>1391</ele>
        <time>2013-08-31T13:07:30Z</time>
      </trkpt>
      <trkpt lat="43.98129" lon="7.2354">
        <ele>1385</ele>
        <time>2013-08-31T13:07:37Z</time>
      </trkpt>
      <trkpt lat="43.9812" lon="7.23547">
        <ele>1385</ele>
        <time>2013-08-31T13:07:41Z</time>
      </trkpt>
      <trkpt lat="43.9811" lon="7.23545">
        <ele>1395</ele>
        <time>2013-08-31T13:07:52Z</time>
      </trkpt>
      <trkpt lat="43.98098" lon="7.2354">
        <ele>1395</ele>
        <time>2013-08-31T13:08:05Z</time>
      </trkpt>
      <trkpt lat="43.98089" lon="7.23538">
        <ele>1395</ele>
        <time>2013-08-31T13:08:11Z</time>
      </trkpt>
      <trkpt lat="43.9808" lon="7.23533">
        <ele>1385</ele>
        <time>2013-08-31T13:08:22Z</time>
      </trkpt>
      <trkpt lat="43.98071" lon="7.23526">
        <ele>1385</ele>
        <time>2013-08-31T13:08:30Z</time>
      </trkpt>
      <trkpt lat="43.98069" lon="7.23513">
        <ele>1385</ele>
        <time>2013-08-31T13:08:42Z</time>
      </trkpt>
      <trkpt lat="43.98064" lon="7.235">
        <ele>1378</ele>
        <time>2013-08-31T13:08:53Z</time>
      </trkpt>
      <trkpt lat="43.98055" lon="7.23497">
        <ele>1385</ele>
        <time>2013-08-31T13:08:58Z</time>
      </trkpt>
      <trkpt lat="43.98049" lon="7.23485">
        <ele>1390</ele>
        <time>2013-08-31T13:09:11Z</time>
      </trkpt>
    </trkseg>
  </trk>
</gpx>